<?xml version="1.0" encoding="UTF-8" standalone="no" ?>
<gpx xmlns="http://www.topografix.com/GPX/1/1" xmlns:xsi="http://www.w3.org/2001/XMLSchema-instance" xsi:schemaLocation="http://www.topografix.com/GPX/1/1 http://www.topografix.com/GPX/1/1/gpx.xsd" version="1.1" creator="VisuGPX - https://www.visugpx.com">
  <metadata>
    <name>Traces DPT 33</name>
    <desc><![CDATA[Total: 12.2km]]></desc>
  </metadata>
  <trk>
    <name><![CDATA[randogps33-518]]></name>
    <extensions>
      <line xmlns="http://www.topografix.com/GPX/gpx_style/0/2">
        <color>0000FF</color>
        <width>4</width>
      </line>
    </extensions>
    <trkseg>
      <trkpt lat="44.64844" lon="-0.21">
        <ele>125.11</ele>
        <time>2017-01-26T08:28:08Z</time>
      </trkpt>
      <trkpt lat="44.64841" lon="-0.21002">
        <ele>121.74</ele>
        <time>2017-01-26T08:28:21Z</time>
      </trkpt>
      <trkpt lat="44.6484" lon="-0.21002">
        <ele>118.38</ele>
        <time>2017-01-26T08:28:29Z</time>
      </trkpt>
      <trkpt lat="44.6484" lon="-0.21002">
        <ele>117.42</ele>
        <time>2017-01-26T08:28:31Z</time>
      </trkpt>
      <trkpt lat="44.64838" lon="-0.21002">
        <ele>115.5</ele>
        <time>2017-01-26T08:28:35Z</time>
      </trkpt>
      <trkpt lat="44.64837" lon="-0.21002">
        <ele>112.13</ele>
        <time>2017-01-26T08:28:41Z</time>
      </trkpt>
      <trkpt lat="44.64837" lon="-0.21001">
        <ele>110.21</ele>
        <time>2017-01-26T08:28:45Z</time>
      </trkpt>
      <trkpt lat="44.64837" lon="-0.21001">
        <ele>108.77</ele>
        <time>2017-01-26T08:28:48Z</time>
      </trkpt>
      <trkpt lat="44.64839" lon="-0.21002">
        <ele>105.4</ele>
        <time>2017-01-26T08:28:58Z</time>
      </trkpt>
      <trkpt lat="44.64841" lon="-0.21006">
        <ele>105.4</ele>
        <time>2017-01-26T08:29:20Z</time>
      </trkpt>
      <trkpt lat="44.6484" lon="-0.21008">
        <ele>105.4</ele>
        <time>2017-01-26T08:29:37Z</time>
      </trkpt>
      <trkpt lat="44.64842" lon="-0.21006">
        <ele>105.88</ele>
        <time>2017-01-26T08:29:52Z</time>
      </trkpt>
      <trkpt lat="44.64841" lon="-0.21005">
        <ele>105.4</ele>
        <time>2017-01-26T08:30:06Z</time>
      </trkpt>
      <trkpt lat="44.64842" lon="-0.21005">
        <ele>105.88</ele>
        <time>2017-01-26T08:30:20Z</time>
      </trkpt>
      <trkpt lat="44.64842" lon="-0.21005">
        <ele>105.88</ele>
        <time>2017-01-26T08:30:31Z</time>
      </trkpt>
      <trkpt lat="44.64842" lon="-0.21003">
        <ele>106.36</ele>
        <time>2017-01-26T08:30:44Z</time>
      </trkpt>
      <trkpt lat="44.64843" lon="-0.21002">
        <ele>106.36</ele>
        <time>2017-01-26T08:31:06Z</time>
      </trkpt>
      <trkpt lat="44.64847" lon="-0.20996">
        <ele>106.36</ele>
        <time>2017-01-26T08:31:18Z</time>
      </trkpt>
      <trkpt lat="44.64849" lon="-0.20993">
        <ele>106.36</ele>
        <time>2017-01-26T08:31:25Z</time>
      </trkpt>
      <trkpt lat="44.64863" lon="-0.20978">
        <ele>106.84</ele>
        <time>2017-01-26T08:31:41Z</time>
      </trkpt>
      <trkpt lat="44.64868" lon="-0.20972">
        <ele>106.84</ele>
        <time>2017-01-26T08:31:51Z</time>
      </trkpt>
      <trkpt lat="44.64867" lon="-0.20966">
        <ele>106.36</ele>
        <time>2017-01-26T08:31:56Z</time>
      </trkpt>
      <trkpt lat="44.64858" lon="-0.20939">
        <ele>107.32</ele>
        <time>2017-01-26T08:32:14Z</time>
      </trkpt>
      <trkpt lat="44.64857" lon="-0.20936">
        <ele>107.32</ele>
        <time>2017-01-26T08:32:28Z</time>
      </trkpt>
      <trkpt lat="44.64856" lon="-0.20929">
        <ele>107.32</ele>
        <time>2017-01-26T08:32:40Z</time>
      </trkpt>
      <trkpt lat="44.64854" lon="-0.20919">
        <ele>107.81</ele>
        <time>2017-01-26T08:32:49Z</time>
      </trkpt>
      <trkpt lat="44.64853" lon="-0.20916">
        <ele>107.81</ele>
        <time>2017-01-26T08:32:51Z</time>
      </trkpt>
      <trkpt lat="44.64851" lon="-0.20897">
        <ele>108.29</ele>
        <time>2017-01-26T08:33:02Z</time>
      </trkpt>
      <trkpt lat="44.64847" lon="-0.20892">
        <ele>108.77</ele>
        <time>2017-01-26T08:33:16Z</time>
      </trkpt>
      <trkpt lat="44.64843" lon="-0.2088">
        <ele>108.29</ele>
        <time>2017-01-26T08:33:31Z</time>
      </trkpt>
      <trkpt lat="44.64844" lon="-0.2088">
        <ele>108.77</ele>
        <time>2017-01-26T08:33:34Z</time>
      </trkpt>
      <trkpt lat="44.64847" lon="-0.20887">
        <ele>108.77</ele>
        <time>2017-01-26T08:33:39Z</time>
      </trkpt>
      <trkpt lat="44.64851" lon="-0.20888">
        <ele>108.29</ele>
        <time>2017-01-26T08:33:54Z</time>
      </trkpt>
      <trkpt lat="44.64851" lon="-0.20888">
        <ele>103.48</ele>
        <time>2017-01-26T08:34:11Z</time>
      </trkpt>
      <trkpt lat="44.64851" lon="-0.20888">
        <ele>114.53</ele>
        <time>2017-01-26T08:34:12Z</time>
      </trkpt>
      <trkpt lat="44.64851" lon="-0.20888">
        <ele>108.77</ele>
        <time>2017-01-26T08:34:13Z</time>
      </trkpt>
      <trkpt lat="44.64852" lon="-0.20888">
        <ele>108.77</ele>
        <time>2017-01-26T08:34:27Z</time>
      </trkpt>
      <trkpt lat="44.64854" lon="-0.20897">
        <ele>108.77</ele>
        <time>2017-01-26T08:34:32Z</time>
      </trkpt>
      <trkpt lat="44.64863" lon="-0.20928">
        <ele>108.29</ele>
        <time>2017-01-26T08:34:51Z</time>
      </trkpt>
      <trkpt lat="44.64864" lon="-0.20935">
        <ele>108.29</ele>
        <time>2017-01-26T08:34:54Z</time>
      </trkpt>
      <trkpt lat="44.64869" lon="-0.20961">
        <ele>108.77</ele>
        <time>2017-01-26T08:35:11Z</time>
      </trkpt>
      <trkpt lat="44.6487" lon="-0.20962">
        <ele>108.77</ele>
        <time>2017-01-26T08:35:26Z</time>
      </trkpt>
      <trkpt lat="44.64872" lon="-0.20962">
        <ele>108.29</ele>
        <time>2017-01-26T08:35:39Z</time>
      </trkpt>
      <trkpt lat="44.64872" lon="-0.20962">
        <ele>108.29</ele>
        <time>2017-01-26T08:35:51Z</time>
      </trkpt>
      <trkpt lat="44.64872" lon="-0.20963">
        <ele>108.29</ele>
        <time>2017-01-26T08:36:12Z</time>
      </trkpt>
      <trkpt lat="44.6487" lon="-0.20977">
        <ele>107.81</ele>
        <time>2017-01-26T08:36:22Z</time>
      </trkpt>
      <trkpt lat="44.6485" lon="-0.20992">
        <ele>108.29</ele>
        <time>2017-01-26T08:36:40Z</time>
      </trkpt>
      <trkpt lat="44.6484" lon="-0.21005">
        <ele>107.81</ele>
        <time>2017-01-26T08:36:51Z</time>
      </trkpt>
      <trkpt lat="44.64829" lon="-0.21018">
        <ele>108.29</ele>
        <time>2017-01-26T08:37:07Z</time>
      </trkpt>
      <trkpt lat="44.64834" lon="-0.21015">
        <ele>108.29</ele>
        <time>2017-01-26T08:37:12Z</time>
      </trkpt>
      <trkpt lat="44.64847" lon="-0.21029">
        <ele>107.81</ele>
        <time>2017-01-26T08:37:27Z</time>
      </trkpt>
      <trkpt lat="44.64849" lon="-0.21033">
        <ele>107.32</ele>
        <time>2017-01-26T08:37:40Z</time>
      </trkpt>
      <trkpt lat="44.6485" lon="-0.21033">
        <ele>107.32</ele>
        <time>2017-01-26T08:37:43Z</time>
      </trkpt>
      <trkpt lat="44.64864" lon="-0.21014">
        <ele>107.32</ele>
        <time>2017-01-26T08:37:59Z</time>
      </trkpt>
      <trkpt lat="44.64864" lon="-0.21002">
        <ele>107.81</ele>
        <time>2017-01-26T08:38:06Z</time>
      </trkpt>
      <trkpt lat="44.64868" lon="-0.20991">
        <ele>108.29</ele>
        <time>2017-01-26T08:38:14Z</time>
      </trkpt>
      <trkpt lat="44.64869" lon="-0.20966">
        <ele>108.29</ele>
        <time>2017-01-26T08:38:30Z</time>
      </trkpt>
      <trkpt lat="44.64861" lon="-0.20941">
        <ele>108.77</ele>
        <time>2017-01-26T08:38:46Z</time>
      </trkpt>
      <trkpt lat="44.64859" lon="-0.20938">
        <ele>108.77</ele>
        <time>2017-01-26T08:38:48Z</time>
      </trkpt>
      <trkpt lat="44.64855" lon="-0.20931">
        <ele>108.77</ele>
        <time>2017-01-26T08:38:53Z</time>
      </trkpt>
      <trkpt lat="44.64855" lon="-0.20921">
        <ele>109.25</ele>
        <time>2017-01-26T08:38:58Z</time>
      </trkpt>
      <trkpt lat="44.6485" lon="-0.20898">
        <ele>109.73</ele>
        <time>2017-01-26T08:39:10Z</time>
      </trkpt>
      <trkpt lat="44.64839" lon="-0.20864">
        <ele>109.73</ele>
        <time>2017-01-26T08:39:28Z</time>
      </trkpt>
      <trkpt lat="44.6483" lon="-0.20837">
        <ele>108.77</ele>
        <time>2017-01-26T08:39:43Z</time>
      </trkpt>
      <trkpt lat="44.64818" lon="-0.20811">
        <ele>108.29</ele>
        <time>2017-01-26T08:40:01Z</time>
      </trkpt>
      <trkpt lat="44.64818" lon="-0.20812">
        <ele>108.29</ele>
        <time>2017-01-26T08:40:06Z</time>
      </trkpt>
      <trkpt lat="44.64815" lon="-0.20813">
        <ele>108.29</ele>
        <time>2017-01-26T08:40:09Z</time>
      </trkpt>
      <trkpt lat="44.64811" lon="-0.20814">
        <ele>108.77</ele>
        <time>2017-01-26T08:40:24Z</time>
      </trkpt>
      <trkpt lat="44.64814" lon="-0.20812">
        <ele>108.77</ele>
        <time>2017-01-26T08:40:37Z</time>
      </trkpt>
      <trkpt lat="44.64818" lon="-0.20811">
        <ele>106.84</ele>
        <time>2017-01-26T08:40:41Z</time>
      </trkpt>
      <trkpt lat="44.64819" lon="-0.20811">
        <ele>111.65</ele>
        <time>2017-01-26T08:40:42Z</time>
      </trkpt>
      <trkpt lat="44.64819" lon="-0.20811">
        <ele>108.77</ele>
        <time>2017-01-26T08:40:43Z</time>
      </trkpt>
      <trkpt lat="44.64821" lon="-0.20814">
        <ele>108.77</ele>
        <time>2017-01-26T08:40:46Z</time>
      </trkpt>
      <trkpt lat="44.64823" lon="-0.20818">
        <ele>104.44</ele>
        <time>2017-01-26T08:40:50Z</time>
      </trkpt>
      <trkpt lat="44.64823" lon="-0.20819">
        <ele>114.05</ele>
        <time>2017-01-26T08:40:51Z</time>
      </trkpt>
      <trkpt lat="44.64823" lon="-0.2082">
        <ele>109.25</ele>
        <time>2017-01-26T08:40:52Z</time>
      </trkpt>
      <trkpt lat="44.64827" lon="-0.20827">
        <ele>109.25</ele>
        <time>2017-01-26T08:41:06Z</time>
      </trkpt>
      <trkpt lat="44.64837" lon="-0.20857">
        <ele>110.21</ele>
        <time>2017-01-26T08:41:21Z</time>
      </trkpt>
      <trkpt lat="44.64844" lon="-0.20881">
        <ele>110.21</ele>
        <time>2017-01-26T08:41:34Z</time>
      </trkpt>
      <trkpt lat="44.64848" lon="-0.20892">
        <ele>110.21</ele>
        <time>2017-01-26T08:41:40Z</time>
      </trkpt>
      <trkpt lat="44.64859" lon="-0.2093">
        <ele>109.73</ele>
        <time>2017-01-26T08:42:01Z</time>
      </trkpt>
      <trkpt lat="44.64866" lon="-0.20957">
        <ele>109.25</ele>
        <time>2017-01-26T08:42:17Z</time>
      </trkpt>
      <trkpt lat="44.64867" lon="-0.2096">
        <ele>109.25</ele>
        <time>2017-01-26T08:42:20Z</time>
      </trkpt>
      <trkpt lat="44.64871" lon="-0.20971">
        <ele>109.25</ele>
        <time>2017-01-26T08:42:26Z</time>
      </trkpt>
      <trkpt lat="44.64872" lon="-0.20996">
        <ele>108.77</ele>
        <time>2017-01-26T08:42:42Z</time>
      </trkpt>
      <trkpt lat="44.64873" lon="-0.20999">
        <ele>108.77</ele>
        <time>2017-01-26T08:42:54Z</time>
      </trkpt>
      <trkpt lat="44.64871" lon="-0.21008">
        <ele>108.29</ele>
        <time>2017-01-26T08:43:05Z</time>
      </trkpt>
      <trkpt lat="44.64889" lon="-0.20999">
        <ele>108.29</ele>
        <time>2017-01-26T08:43:21Z</time>
      </trkpt>
      <trkpt lat="44.64896" lon="-0.20997">
        <ele>108.77</ele>
        <time>2017-01-26T08:43:31Z</time>
      </trkpt>
      <trkpt lat="44.64897" lon="-0.20998">
        <ele>108.77</ele>
        <time>2017-01-26T08:43:44Z</time>
      </trkpt>
      <trkpt lat="44.64897" lon="-0.20998">
        <ele>108.77</ele>
        <time>2017-01-26T08:43:45Z</time>
      </trkpt>
      <trkpt lat="44.64907" lon="-0.20984">
        <ele>107.81</ele>
        <time>2017-01-26T08:43:58Z</time>
      </trkpt>
      <trkpt lat="44.64915" lon="-0.20974">
        <ele>107.32</ele>
        <time>2017-01-26T08:44:07Z</time>
      </trkpt>
      <trkpt lat="44.64922" lon="-0.20951">
        <ele>106.84</ele>
        <time>2017-01-26T08:44:25Z</time>
      </trkpt>
      <trkpt lat="44.64923" lon="-0.20953">
        <ele>106.84</ele>
        <time>2017-01-26T08:44:30Z</time>
      </trkpt>
      <trkpt lat="44.64913" lon="-0.20979">
        <ele>107.32</ele>
        <time>2017-01-26T08:44:45Z</time>
      </trkpt>
      <trkpt lat="44.64906" lon="-0.20997">
        <ele>108.29</ele>
        <time>2017-01-26T08:44:57Z</time>
      </trkpt>
      <trkpt lat="44.64905" lon="-0.20997">
        <ele>108.29</ele>
        <time>2017-01-26T08:45:09Z</time>
      </trkpt>
      <trkpt lat="44.64913" lon="-0.21009">
        <ele>107.32</ele>
        <time>2017-01-26T08:45:24Z</time>
      </trkpt>
      <trkpt lat="44.64918" lon="-0.21014">
        <ele>106.84</ele>
        <time>2017-01-26T08:45:30Z</time>
      </trkpt>
      <trkpt lat="44.64922" lon="-0.21019">
        <ele>106.36</ele>
        <time>2017-01-26T08:45:34Z</time>
      </trkpt>
      <trkpt lat="44.64933" lon="-0.21031">
        <ele>105.88</ele>
        <time>2017-01-26T08:45:44Z</time>
      </trkpt>
      <trkpt lat="44.64945" lon="-0.21048">
        <ele>104.92</ele>
        <time>2017-01-26T08:45:57Z</time>
      </trkpt>
      <trkpt lat="44.64959" lon="-0.21069">
        <ele>105.4</ele>
        <time>2017-01-26T08:46:12Z</time>
      </trkpt>
      <trkpt lat="44.64973" lon="-0.21088">
        <ele>103.48</ele>
        <time>2017-01-26T08:46:26Z</time>
      </trkpt>
      <trkpt lat="44.64976" lon="-0.2109">
        <ele>103.48</ele>
        <time>2017-01-26T08:46:29Z</time>
      </trkpt>
      <trkpt lat="44.64989" lon="-0.21106">
        <ele>103</ele>
        <time>2017-01-26T08:46:42Z</time>
      </trkpt>
      <trkpt lat="44.64993" lon="-0.21113">
        <ele>103</ele>
        <time>2017-01-26T08:46:46Z</time>
      </trkpt>
      <trkpt lat="44.65006" lon="-0.21131">
        <ele>102.52</ele>
        <time>2017-01-26T08:46:59Z</time>
      </trkpt>
      <trkpt lat="44.6502" lon="-0.21152">
        <ele>102.04</ele>
        <time>2017-01-26T08:47:14Z</time>
      </trkpt>
      <trkpt lat="44.65036" lon="-0.21172">
        <ele>101.56</ele>
        <time>2017-01-26T08:47:29Z</time>
      </trkpt>
      <trkpt lat="44.65052" lon="-0.21193">
        <ele>101.08</ele>
        <time>2017-01-26T08:47:45Z</time>
      </trkpt>
      <trkpt lat="44.6506" lon="-0.21204">
        <ele>101.08</ele>
        <time>2017-01-26T08:47:53Z</time>
      </trkpt>
      <trkpt lat="44.65066" lon="-0.21217">
        <ele>101.08</ele>
        <time>2017-01-26T08:48:01Z</time>
      </trkpt>
      <trkpt lat="44.65084" lon="-0.21241">
        <ele>101.56</ele>
        <time>2017-01-26T08:48:19Z</time>
      </trkpt>
      <trkpt lat="44.65101" lon="-0.21262">
        <ele>102.04</ele>
        <time>2017-01-26T08:48:34Z</time>
      </trkpt>
      <trkpt lat="44.6511" lon="-0.21275">
        <ele>101.56</ele>
        <time>2017-01-26T08:48:48Z</time>
      </trkpt>
      <trkpt lat="44.65104" lon="-0.2127">
        <ele>101.56</ele>
        <time>2017-01-26T08:48:54Z</time>
      </trkpt>
      <trkpt lat="44.65102" lon="-0.21275">
        <ele>101.56</ele>
        <time>2017-01-26T08:48:59Z</time>
      </trkpt>
      <trkpt lat="44.65099" lon="-0.21286">
        <ele>100.11</ele>
        <time>2017-01-26T08:49:07Z</time>
      </trkpt>
      <trkpt lat="44.65089" lon="-0.21299">
        <ele>97.23</ele>
        <time>2017-01-26T08:49:20Z</time>
      </trkpt>
      <trkpt lat="44.65087" lon="-0.21302">
        <ele>96.75</ele>
        <time>2017-01-26T08:49:23Z</time>
      </trkpt>
      <trkpt lat="44.65072" lon="-0.21322">
        <ele>93.39</ele>
        <time>2017-01-26T08:49:41Z</time>
      </trkpt>
      <trkpt lat="44.65066" lon="-0.21328">
        <ele>92.42</ele>
        <time>2017-01-26T08:49:47Z</time>
      </trkpt>
      <trkpt lat="44.65048" lon="-0.21347">
        <ele>89.54</ele>
        <time>2017-01-26T08:50:07Z</time>
      </trkpt>
      <trkpt lat="44.65048" lon="-0.21349">
        <ele>90.02</ele>
        <time>2017-01-26T08:50:12Z</time>
      </trkpt>
      <trkpt lat="44.6504" lon="-0.2136">
        <ele>88.1</ele>
        <time>2017-01-26T08:50:21Z</time>
      </trkpt>
      <trkpt lat="44.65036" lon="-0.2138">
        <ele>87.14</ele>
        <time>2017-01-26T08:50:34Z</time>
      </trkpt>
      <trkpt lat="44.65046" lon="-0.21404">
        <ele>86.18</ele>
        <time>2017-01-26T08:50:49Z</time>
      </trkpt>
      <trkpt lat="44.65047" lon="-0.21407">
        <ele>81.85</ele>
        <time>2017-01-26T08:50:51Z</time>
      </trkpt>
      <trkpt lat="44.65048" lon="-0.21409">
        <ele>88.1</ele>
        <time>2017-01-26T08:50:52Z</time>
      </trkpt>
      <trkpt lat="44.6505" lon="-0.21414">
        <ele>85.69</ele>
        <time>2017-01-26T08:50:55Z</time>
      </trkpt>
      <trkpt lat="44.6505" lon="-0.21416">
        <ele>85.69</ele>
        <time>2017-01-26T08:50:56Z</time>
      </trkpt>
      <trkpt lat="44.65053" lon="-0.21423">
        <ele>85.21</ele>
        <time>2017-01-26T08:51:00Z</time>
      </trkpt>
      <trkpt lat="44.65056" lon="-0.21436">
        <ele>84.73</ele>
        <time>2017-01-26T08:51:08Z</time>
      </trkpt>
      <trkpt lat="44.65057" lon="-0.21439">
        <ele>84.25</ele>
        <time>2017-01-26T08:51:10Z</time>
      </trkpt>
      <trkpt lat="44.65058" lon="-0.21442">
        <ele>84.25</ele>
        <time>2017-01-26T08:51:12Z</time>
      </trkpt>
      <trkpt lat="44.65066" lon="-0.21463">
        <ele>83.29</ele>
        <time>2017-01-26T08:51:25Z</time>
      </trkpt>
      <trkpt lat="44.65074" lon="-0.2149">
        <ele>81.85</ele>
        <time>2017-01-26T08:51:41Z</time>
      </trkpt>
      <trkpt lat="44.65081" lon="-0.21507">
        <ele>80.89</ele>
        <time>2017-01-26T08:51:52Z</time>
      </trkpt>
      <trkpt lat="44.65084" lon="-0.2152">
        <ele>80.41</ele>
        <time>2017-01-26T08:52:00Z</time>
      </trkpt>
      <trkpt lat="44.65087" lon="-0.21528">
        <ele>79.93</ele>
        <time>2017-01-26T08:52:05Z</time>
      </trkpt>
      <trkpt lat="44.65092" lon="-0.2155">
        <ele>78.97</ele>
        <time>2017-01-26T08:52:18Z</time>
      </trkpt>
      <trkpt lat="44.65097" lon="-0.21564">
        <ele>78</ele>
        <time>2017-01-26T08:52:27Z</time>
      </trkpt>
      <trkpt lat="44.65108" lon="-0.21594">
        <ele>77.04</ele>
        <time>2017-01-26T08:52:47Z</time>
      </trkpt>
      <trkpt lat="44.6511" lon="-0.21607">
        <ele>76.08</ele>
        <time>2017-01-26T08:53:00Z</time>
      </trkpt>
      <trkpt lat="44.65109" lon="-0.21609">
        <ele>76.56</ele>
        <time>2017-01-26T08:53:02Z</time>
      </trkpt>
      <trkpt lat="44.65104" lon="-0.21616">
        <ele>76.56</ele>
        <time>2017-01-26T08:53:08Z</time>
      </trkpt>
      <trkpt lat="44.65102" lon="-0.21623">
        <ele>75.6</ele>
        <time>2017-01-26T08:53:13Z</time>
      </trkpt>
      <trkpt lat="44.65091" lon="-0.21636">
        <ele>75.12</ele>
        <time>2017-01-26T08:53:29Z</time>
      </trkpt>
      <trkpt lat="44.65086" lon="-0.21639">
        <ele>74.64</ele>
        <time>2017-01-26T08:53:44Z</time>
      </trkpt>
      <trkpt lat="44.65066" lon="-0.21659">
        <ele>74.16</ele>
        <time>2017-01-26T08:54:03Z</time>
      </trkpt>
      <trkpt lat="44.65049" lon="-0.2168">
        <ele>73.68</ele>
        <time>2017-01-26T08:54:21Z</time>
      </trkpt>
      <trkpt lat="44.65032" lon="-0.21696">
        <ele>73.2</ele>
        <time>2017-01-26T08:54:38Z</time>
      </trkpt>
      <trkpt lat="44.65027" lon="-0.21702">
        <ele>73.2</ele>
        <time>2017-01-26T08:54:52Z</time>
      </trkpt>
      <trkpt lat="44.65021" lon="-0.21707">
        <ele>73.2</ele>
        <time>2017-01-26T08:55:02Z</time>
      </trkpt>
      <trkpt lat="44.65009" lon="-0.21721">
        <ele>72.24</ele>
        <time>2017-01-26T08:55:17Z</time>
      </trkpt>
      <trkpt lat="44.64993" lon="-0.21739">
        <ele>72.24</ele>
        <time>2017-01-26T08:55:35Z</time>
      </trkpt>
      <trkpt lat="44.64991" lon="-0.21746">
        <ele>71.76</ele>
        <time>2017-01-26T08:55:50Z</time>
      </trkpt>
      <trkpt lat="44.6499" lon="-0.21751">
        <ele>71.27</ele>
        <time>2017-01-26T08:55:55Z</time>
      </trkpt>
      <trkpt lat="44.64998" lon="-0.21769">
        <ele>70.79</ele>
        <time>2017-01-26T08:56:08Z</time>
      </trkpt>
      <trkpt lat="44.65014" lon="-0.21781">
        <ele>70.31</ele>
        <time>2017-01-26T08:56:25Z</time>
      </trkpt>
      <trkpt lat="44.65025" lon="-0.21793">
        <ele>69.83</ele>
        <time>2017-01-26T08:56:37Z</time>
      </trkpt>
      <trkpt lat="44.65039" lon="-0.21803">
        <ele>69.35</ele>
        <time>2017-01-26T08:56:52Z</time>
      </trkpt>
      <trkpt lat="44.65051" lon="-0.21817">
        <ele>68.87</ele>
        <time>2017-01-26T08:57:06Z</time>
      </trkpt>
      <trkpt lat="44.65061" lon="-0.21826">
        <ele>68.87</ele>
        <time>2017-01-26T08:57:19Z</time>
      </trkpt>
      <trkpt lat="44.65066" lon="-0.21839">
        <ele>68.87</ele>
        <time>2017-01-26T08:57:33Z</time>
      </trkpt>
      <trkpt lat="44.65068" lon="-0.21848">
        <ele>68.39</ele>
        <time>2017-01-26T08:57:39Z</time>
      </trkpt>
      <trkpt lat="44.6507" lon="-0.21853">
        <ele>68.39</ele>
        <time>2017-01-26T08:57:43Z</time>
      </trkpt>
      <trkpt lat="44.6507" lon="-0.21859">
        <ele>68.39</ele>
        <time>2017-01-26T08:57:53Z</time>
      </trkpt>
      <trkpt lat="44.65072" lon="-0.21882">
        <ele>68.39</ele>
        <time>2017-01-26T08:58:09Z</time>
      </trkpt>
      <trkpt lat="44.65075" lon="-0.21903">
        <ele>67.91</ele>
        <time>2017-01-26T08:58:22Z</time>
      </trkpt>
      <trkpt lat="44.65076" lon="-0.21912">
        <ele>64.55</ele>
        <time>2017-01-26T08:58:27Z</time>
      </trkpt>
      <trkpt lat="44.65077" lon="-0.21914">
        <ele>70.79</ele>
        <time>2017-01-26T08:58:28Z</time>
      </trkpt>
      <trkpt lat="44.65077" lon="-0.21916">
        <ele>66.47</ele>
        <time>2017-01-26T08:58:29Z</time>
      </trkpt>
      <trkpt lat="44.6508" lon="-0.21946">
        <ele>66.95</ele>
        <time>2017-01-26T08:58:46Z</time>
      </trkpt>
      <trkpt lat="44.65081" lon="-0.21952">
        <ele>66.95</ele>
        <time>2017-01-26T08:58:50Z</time>
      </trkpt>
      <trkpt lat="44.65086" lon="-0.2198">
        <ele>66.95</ele>
        <time>2017-01-26T08:59:07Z</time>
      </trkpt>
      <trkpt lat="44.65089" lon="-0.22007">
        <ele>66.47</ele>
        <time>2017-01-26T08:59:23Z</time>
      </trkpt>
      <trkpt lat="44.65093" lon="-0.22035">
        <ele>65.51</ele>
        <time>2017-01-26T08:59:39Z</time>
      </trkpt>
      <trkpt lat="44.65094" lon="-0.22058">
        <ele>65.51</ele>
        <time>2017-01-26T08:59:53Z</time>
      </trkpt>
      <trkpt lat="44.65093" lon="-0.2206">
        <ele>65.03</ele>
        <time>2017-01-26T09:00:06Z</time>
      </trkpt>
      <trkpt lat="44.65091" lon="-0.22062">
        <ele>65.99</ele>
        <time>2017-01-26T09:00:13Z</time>
      </trkpt>
      <trkpt lat="44.65094" lon="-0.2209">
        <ele>65.03</ele>
        <time>2017-01-26T09:00:30Z</time>
      </trkpt>
      <trkpt lat="44.65095" lon="-0.22096">
        <ele>68.39</ele>
        <time>2017-01-26T09:00:34Z</time>
      </trkpt>
      <trkpt lat="44.65095" lon="-0.22101">
        <ele>62.62</ele>
        <time>2017-01-26T09:00:37Z</time>
      </trkpt>
      <trkpt lat="44.65095" lon="-0.22103">
        <ele>66.47</ele>
        <time>2017-01-26T09:00:38Z</time>
      </trkpt>
      <trkpt lat="44.65096" lon="-0.22112">
        <ele>63.58</ele>
        <time>2017-01-26T09:00:43Z</time>
      </trkpt>
      <trkpt lat="44.65096" lon="-0.22113">
        <ele>66.47</ele>
        <time>2017-01-26T09:00:44Z</time>
      </trkpt>
      <trkpt lat="44.65098" lon="-0.22132">
        <ele>65.03</ele>
        <time>2017-01-26T09:00:56Z</time>
      </trkpt>
      <trkpt lat="44.651" lon="-0.22138">
        <ele>65.03</ele>
        <time>2017-01-26T09:01:00Z</time>
      </trkpt>
      <trkpt lat="44.65102" lon="-0.22154">
        <ele>65.03</ele>
        <time>2017-01-26T09:01:09Z</time>
      </trkpt>
      <trkpt lat="44.65105" lon="-0.22181">
        <ele>65.03</ele>
        <time>2017-01-26T09:01:24Z</time>
      </trkpt>
      <trkpt lat="44.65106" lon="-0.22184">
        <ele>64.55</ele>
        <time>2017-01-26T09:01:26Z</time>
      </trkpt>
      <trkpt lat="44.65111" lon="-0.2222">
        <ele>64.55</ele>
        <time>2017-01-26T09:01:46Z</time>
      </trkpt>
      <trkpt lat="44.65114" lon="-0.22251">
        <ele>64.55</ele>
        <time>2017-01-26T09:02:04Z</time>
      </trkpt>
      <trkpt lat="44.65128" lon="-0.22266">
        <ele>64.07</ele>
        <time>2017-01-26T09:02:19Z</time>
      </trkpt>
      <trkpt lat="44.65138" lon="-0.22281">
        <ele>63.58</ele>
        <time>2017-01-26T09:02:31Z</time>
      </trkpt>
      <trkpt lat="44.65144" lon="-0.22291">
        <ele>63.58</ele>
        <time>2017-01-26T09:02:38Z</time>
      </trkpt>
      <trkpt lat="44.65147" lon="-0.223">
        <ele>63.58</ele>
        <time>2017-01-26T09:02:44Z</time>
      </trkpt>
      <trkpt lat="44.65154" lon="-0.22307">
        <ele>63.58</ele>
        <time>2017-01-26T09:02:51Z</time>
      </trkpt>
      <trkpt lat="44.65175" lon="-0.22296">
        <ele>63.1</ele>
        <time>2017-01-26T09:03:10Z</time>
      </trkpt>
      <trkpt lat="44.65194" lon="-0.22281">
        <ele>63.58</ele>
        <time>2017-01-26T09:03:28Z</time>
      </trkpt>
      <trkpt lat="44.65208" lon="-0.22271">
        <ele>64.07</ele>
        <time>2017-01-26T09:03:40Z</time>
      </trkpt>
      <trkpt lat="44.6521" lon="-0.22268">
        <ele>63.58</ele>
        <time>2017-01-26T09:03:53Z</time>
      </trkpt>
      <trkpt lat="44.6521" lon="-0.22268">
        <ele>64.07</ele>
        <time>2017-01-26T09:04:19Z</time>
      </trkpt>
      <trkpt lat="44.65216" lon="-0.22263">
        <ele>64.07</ele>
        <time>2017-01-26T09:04:31Z</time>
      </trkpt>
      <trkpt lat="44.65228" lon="-0.22254">
        <ele>64.07</ele>
        <time>2017-01-26T09:04:45Z</time>
      </trkpt>
      <trkpt lat="44.65234" lon="-0.2225">
        <ele>65.51</ele>
        <time>2017-01-26T09:04:58Z</time>
      </trkpt>
      <trkpt lat="44.65237" lon="-0.22249">
        <ele>64.07</ele>
        <time>2017-01-26T09:05:10Z</time>
      </trkpt>
      <trkpt lat="44.6524" lon="-0.22247">
        <ele>65.03</ele>
        <time>2017-01-26T09:05:14Z</time>
      </trkpt>
      <trkpt lat="44.65254" lon="-0.22236">
        <ele>65.03</ele>
        <time>2017-01-26T09:05:28Z</time>
      </trkpt>
      <trkpt lat="44.6526" lon="-0.22233">
        <ele>65.03</ele>
        <time>2017-01-26T09:05:34Z</time>
      </trkpt>
      <trkpt lat="44.65264" lon="-0.22229">
        <ele>64.55</ele>
        <time>2017-01-26T09:05:38Z</time>
      </trkpt>
      <trkpt lat="44.65279" lon="-0.22218">
        <ele>65.03</ele>
        <time>2017-01-26T09:05:54Z</time>
      </trkpt>
      <trkpt lat="44.65289" lon="-0.22211">
        <ele>65.51</ele>
        <time>2017-01-26T09:06:07Z</time>
      </trkpt>
      <trkpt lat="44.65272" lon="-0.22223">
        <ele>65.03</ele>
        <time>2017-01-26T09:06:24Z</time>
      </trkpt>
      <trkpt lat="44.65256" lon="-0.22235">
        <ele>65.03</ele>
        <time>2017-01-26T09:06:40Z</time>
      </trkpt>
      <trkpt lat="44.65243" lon="-0.22246">
        <ele>65.51</ele>
        <time>2017-01-26T09:06:55Z</time>
      </trkpt>
      <trkpt lat="44.65245" lon="-0.22255">
        <ele>65.51</ele>
        <time>2017-01-26T09:07:03Z</time>
      </trkpt>
      <trkpt lat="44.6525" lon="-0.22266">
        <ele>65.51</ele>
        <time>2017-01-26T09:07:12Z</time>
      </trkpt>
      <trkpt lat="44.65258" lon="-0.22287">
        <ele>64.55</ele>
        <time>2017-01-26T09:07:27Z</time>
      </trkpt>
      <trkpt lat="44.65267" lon="-0.22308">
        <ele>64.07</ele>
        <time>2017-01-26T09:07:41Z</time>
      </trkpt>
      <trkpt lat="44.65273" lon="-0.22324">
        <ele>64.07</ele>
        <time>2017-01-26T09:07:53Z</time>
      </trkpt>
      <trkpt lat="44.65282" lon="-0.22343">
        <ele>64.07</ele>
        <time>2017-01-26T09:08:08Z</time>
      </trkpt>
      <trkpt lat="44.65284" lon="-0.2235">
        <ele>64.07</ele>
        <time>2017-01-26T09:08:13Z</time>
      </trkpt>
      <trkpt lat="44.65294" lon="-0.22365">
        <ele>64.07</ele>
        <time>2017-01-26T09:08:27Z</time>
      </trkpt>
      <trkpt lat="44.65308" lon="-0.22353">
        <ele>64.55</ele>
        <time>2017-01-26T09:08:41Z</time>
      </trkpt>
      <trkpt lat="44.65321" lon="-0.22341">
        <ele>65.03</ele>
        <time>2017-01-26T09:08:54Z</time>
      </trkpt>
      <trkpt lat="44.65334" lon="-0.22357">
        <ele>65.03</ele>
        <time>2017-01-26T09:09:10Z</time>
      </trkpt>
      <trkpt lat="44.65346" lon="-0.22379">
        <ele>64.55</ele>
        <time>2017-01-26T09:09:25Z</time>
      </trkpt>
      <trkpt lat="44.65358" lon="-0.22399">
        <ele>64.55</ele>
        <time>2017-01-26T09:09:41Z</time>
      </trkpt>
      <trkpt lat="44.65363" lon="-0.22409">
        <ele>64.55</ele>
        <time>2017-01-26T09:09:52Z</time>
      </trkpt>
      <trkpt lat="44.65366" lon="-0.22409">
        <ele>65.51</ele>
        <time>2017-01-26T09:10:05Z</time>
      </trkpt>
      <trkpt lat="44.65368" lon="-0.22408">
        <ele>60.7</ele>
        <time>2017-01-26T09:10:26Z</time>
      </trkpt>
      <trkpt lat="44.65368" lon="-0.22408">
        <ele>64.55</ele>
        <time>2017-01-26T09:10:27Z</time>
      </trkpt>
      <trkpt lat="44.65369" lon="-0.22411">
        <ele>65.51</ele>
        <time>2017-01-26T09:10:29Z</time>
      </trkpt>
      <trkpt lat="44.6537" lon="-0.22414">
        <ele>65.03</ele>
        <time>2017-01-26T09:10:32Z</time>
      </trkpt>
      <trkpt lat="44.65374" lon="-0.22417">
        <ele>65.03</ele>
        <time>2017-01-26T09:10:36Z</time>
      </trkpt>
      <trkpt lat="44.65377" lon="-0.22424">
        <ele>65.03</ele>
        <time>2017-01-26T09:10:41Z</time>
      </trkpt>
      <trkpt lat="44.65381" lon="-0.22432">
        <ele>65.03</ele>
        <time>2017-01-26T09:10:48Z</time>
      </trkpt>
      <trkpt lat="44.65393" lon="-0.22451">
        <ele>65.03</ele>
        <time>2017-01-26T09:11:04Z</time>
      </trkpt>
      <trkpt lat="44.65403" lon="-0.22469">
        <ele>65.03</ele>
        <time>2017-01-26T09:11:19Z</time>
      </trkpt>
      <trkpt lat="44.65414" lon="-0.22487">
        <ele>64.55</ele>
        <time>2017-01-26T09:11:34Z</time>
      </trkpt>
      <trkpt lat="44.65425" lon="-0.22507">
        <ele>64.07</ele>
        <time>2017-01-26T09:11:50Z</time>
      </trkpt>
      <trkpt lat="44.65438" lon="-0.22522">
        <ele>63.58</ele>
        <time>2017-01-26T09:12:04Z</time>
      </trkpt>
      <trkpt lat="44.65454" lon="-0.22532">
        <ele>63.58</ele>
        <time>2017-01-26T09:12:21Z</time>
      </trkpt>
      <trkpt lat="44.65469" lon="-0.2254">
        <ele>63.58</ele>
        <time>2017-01-26T09:12:36Z</time>
      </trkpt>
      <trkpt lat="44.65474" lon="-0.22541">
        <ele>59.74</ele>
        <time>2017-01-26T09:12:42Z</time>
      </trkpt>
      <trkpt lat="44.65474" lon="-0.22541">
        <ele>71.76</ele>
        <time>2017-01-26T09:12:43Z</time>
      </trkpt>
      <trkpt lat="44.65474" lon="-0.22541">
        <ele>64.55</ele>
        <time>2017-01-26T09:12:44Z</time>
      </trkpt>
      <trkpt lat="44.65471" lon="-0.2254">
        <ele>63.58</ele>
        <time>2017-01-26T09:12:46Z</time>
      </trkpt>
      <trkpt lat="44.6546" lon="-0.22535">
        <ele>63.1</ele>
        <time>2017-01-26T09:12:58Z</time>
      </trkpt>
      <trkpt lat="44.65442" lon="-0.22523">
        <ele>63.1</ele>
        <time>2017-01-26T09:13:14Z</time>
      </trkpt>
      <trkpt lat="44.6544" lon="-0.22517">
        <ele>63.58</ele>
        <time>2017-01-26T09:13:19Z</time>
      </trkpt>
      <trkpt lat="44.65449" lon="-0.22502">
        <ele>67.91</ele>
        <time>2017-01-26T09:13:31Z</time>
      </trkpt>
      <trkpt lat="44.6545" lon="-0.22499">
        <ele>64.55</ele>
        <time>2017-01-26T09:13:34Z</time>
      </trkpt>
      <trkpt lat="44.65468" lon="-0.22479">
        <ele>65.51</ele>
        <time>2017-01-26T09:13:53Z</time>
      </trkpt>
      <trkpt lat="44.65485" lon="-0.22456">
        <ele>66.47</ele>
        <time>2017-01-26T09:14:12Z</time>
      </trkpt>
      <trkpt lat="44.65504" lon="-0.22435">
        <ele>66.95</ele>
        <time>2017-01-26T09:14:31Z</time>
      </trkpt>
      <trkpt lat="44.65519" lon="-0.22416">
        <ele>67.91</ele>
        <time>2017-01-26T09:14:50Z</time>
      </trkpt>
      <trkpt lat="44.65534" lon="-0.22398">
        <ele>68.87</ele>
        <time>2017-01-26T09:15:06Z</time>
      </trkpt>
      <trkpt lat="44.65536" lon="-0.22396">
        <ele>68.87</ele>
        <time>2017-01-26T09:15:08Z</time>
      </trkpt>
      <trkpt lat="44.65549" lon="-0.22378">
        <ele>70.31</ele>
        <time>2017-01-26T09:15:24Z</time>
      </trkpt>
      <trkpt lat="44.65566" lon="-0.22361">
        <ele>71.76</ele>
        <time>2017-01-26T09:15:41Z</time>
      </trkpt>
      <trkpt lat="44.65566" lon="-0.2236">
        <ele>71.76</ele>
        <time>2017-01-26T09:15:50Z</time>
      </trkpt>
      <trkpt lat="44.65569" lon="-0.22357">
        <ele>71.76</ele>
        <time>2017-01-26T09:15:53Z</time>
      </trkpt>
      <trkpt lat="44.65586" lon="-0.22333">
        <ele>73.2</ele>
        <time>2017-01-26T09:16:13Z</time>
      </trkpt>
      <trkpt lat="44.656" lon="-0.22315">
        <ele>75.6</ele>
        <time>2017-01-26T09:16:31Z</time>
      </trkpt>
      <trkpt lat="44.65604" lon="-0.22309">
        <ele>75.6</ele>
        <time>2017-01-26T09:16:36Z</time>
      </trkpt>
      <trkpt lat="44.65607" lon="-0.22305">
        <ele>72.72</ele>
        <time>2017-01-26T09:16:40Z</time>
      </trkpt>
      <trkpt lat="44.65608" lon="-0.22305">
        <ele>80.41</ele>
        <time>2017-01-26T09:16:41Z</time>
      </trkpt>
      <trkpt lat="44.65609" lon="-0.22304">
        <ele>74.16</ele>
        <time>2017-01-26T09:16:42Z</time>
      </trkpt>
      <trkpt lat="44.6562" lon="-0.22287">
        <ele>75.6</ele>
        <time>2017-01-26T09:16:56Z</time>
      </trkpt>
      <trkpt lat="44.65616" lon="-0.22275">
        <ele>75.6</ele>
        <time>2017-01-26T09:17:04Z</time>
      </trkpt>
      <trkpt lat="44.65612" lon="-0.22266">
        <ele>76.08</ele>
        <time>2017-01-26T09:17:11Z</time>
      </trkpt>
      <trkpt lat="44.65602" lon="-0.22242">
        <ele>76.56</ele>
        <time>2017-01-26T09:17:27Z</time>
      </trkpt>
      <trkpt lat="44.65592" lon="-0.22219">
        <ele>77.04</ele>
        <time>2017-01-26T09:17:43Z</time>
      </trkpt>
      <trkpt lat="44.65583" lon="-0.22204">
        <ele>77.52</ele>
        <time>2017-01-26T09:17:54Z</time>
      </trkpt>
      <trkpt lat="44.6557" lon="-0.2218">
        <ele>77.52</ele>
        <time>2017-01-26T09:18:12Z</time>
      </trkpt>
      <trkpt lat="44.65569" lon="-0.22179">
        <ele>73.68</ele>
        <time>2017-01-26T09:18:14Z</time>
      </trkpt>
      <trkpt lat="44.65569" lon="-0.22179">
        <ele>78.97</ele>
        <time>2017-01-26T09:18:15Z</time>
      </trkpt>
      <trkpt lat="44.65568" lon="-0.22178">
        <ele>77.52</ele>
        <time>2017-01-26T09:18:19Z</time>
      </trkpt>
      <trkpt lat="44.65569" lon="-0.22169">
        <ele>78.48</ele>
        <time>2017-01-26T09:18:27Z</time>
      </trkpt>
      <trkpt lat="44.65571" lon="-0.22166">
        <ele>78</ele>
        <time>2017-01-26T09:18:30Z</time>
      </trkpt>
      <trkpt lat="44.65581" lon="-0.22153">
        <ele>78</ele>
        <time>2017-01-26T09:18:41Z</time>
      </trkpt>
      <trkpt lat="44.65599" lon="-0.22134">
        <ele>77.04</ele>
        <time>2017-01-26T09:18:58Z</time>
      </trkpt>
      <trkpt lat="44.65611" lon="-0.22119">
        <ele>75.6</ele>
        <time>2017-01-26T09:19:12Z</time>
      </trkpt>
      <trkpt lat="44.65616" lon="-0.22114">
        <ele>75.12</ele>
        <time>2017-01-26T09:19:16Z</time>
      </trkpt>
      <trkpt lat="44.65636" lon="-0.22095">
        <ele>75.12</ele>
        <time>2017-01-26T09:19:34Z</time>
      </trkpt>
      <trkpt lat="44.6565" lon="-0.22083">
        <ele>73.2</ele>
        <time>2017-01-26T09:19:49Z</time>
      </trkpt>
      <trkpt lat="44.65665" lon="-0.22068">
        <ele>72.72</ele>
        <time>2017-01-26T09:20:03Z</time>
      </trkpt>
      <trkpt lat="44.65673" lon="-0.2206">
        <ele>72.24</ele>
        <time>2017-01-26T09:20:11Z</time>
      </trkpt>
      <trkpt lat="44.65679" lon="-0.22053">
        <ele>67.43</ele>
        <time>2017-01-26T09:20:17Z</time>
      </trkpt>
      <trkpt lat="44.6568" lon="-0.2205">
        <ele>81.85</ele>
        <time>2017-01-26T09:20:19Z</time>
      </trkpt>
      <trkpt lat="44.65681" lon="-0.22049">
        <ele>71.76</ele>
        <time>2017-01-26T09:20:20Z</time>
      </trkpt>
      <trkpt lat="44.65685" lon="-0.22042">
        <ele>70.79</ele>
        <time>2017-01-26T09:20:33Z</time>
      </trkpt>
      <trkpt lat="44.65683" lon="-0.22039">
        <ele>70.79</ele>
        <time>2017-01-26T09:20:43Z</time>
      </trkpt>
      <trkpt lat="44.65683" lon="-0.22042">
        <ele>70.79</ele>
        <time>2017-01-26T09:20:52Z</time>
      </trkpt>
      <trkpt lat="44.65682" lon="-0.22047">
        <ele>71.27</ele>
        <time>2017-01-26T09:20:57Z</time>
      </trkpt>
      <trkpt lat="44.65678" lon="-0.22047">
        <ele>71.76</ele>
        <time>2017-01-26T09:21:07Z</time>
      </trkpt>
      <trkpt lat="44.65677" lon="-0.22043">
        <ele>71.76</ele>
        <time>2017-01-26T09:21:10Z</time>
      </trkpt>
      <trkpt lat="44.65664" lon="-0.22032">
        <ele>71.76</ele>
        <time>2017-01-26T09:21:23Z</time>
      </trkpt>
      <trkpt lat="44.65647" lon="-0.22026">
        <ele>71.76</ele>
        <time>2017-01-26T09:21:37Z</time>
      </trkpt>
      <trkpt lat="44.65634" lon="-0.2202">
        <ele>72.72</ele>
        <time>2017-01-26T09:21:49Z</time>
      </trkpt>
      <trkpt lat="44.65618" lon="-0.22009">
        <ele>75.12</ele>
        <time>2017-01-26T09:22:06Z</time>
      </trkpt>
      <trkpt lat="44.65614" lon="-0.22005">
        <ele>69.83</ele>
        <time>2017-01-26T09:22:12Z</time>
      </trkpt>
      <trkpt lat="44.65613" lon="-0.22005">
        <ele>76.08</ele>
        <time>2017-01-26T09:22:13Z</time>
      </trkpt>
      <trkpt lat="44.65613" lon="-0.22005">
        <ele>70.79</ele>
        <time>2017-01-26T09:22:18Z</time>
      </trkpt>
      <trkpt lat="44.65613" lon="-0.22005">
        <ele>78</ele>
        <time>2017-01-26T09:22:20Z</time>
      </trkpt>
      <trkpt lat="44.65613" lon="-0.22004">
        <ele>73.2</ele>
        <time>2017-01-26T09:22:21Z</time>
      </trkpt>
      <trkpt lat="44.65613" lon="-0.22004">
        <ele>69.35</ele>
        <time>2017-01-26T09:22:22Z</time>
      </trkpt>
      <trkpt lat="44.65613" lon="-0.22005">
        <ele>78</ele>
        <time>2017-01-26T09:22:23Z</time>
      </trkpt>
      <trkpt lat="44.65613" lon="-0.22005">
        <ele>73.68</ele>
        <time>2017-01-26T09:22:24Z</time>
      </trkpt>
      <trkpt lat="44.65605" lon="-0.21998">
        <ele>73.68</ele>
        <time>2017-01-26T09:22:39Z</time>
      </trkpt>
      <trkpt lat="44.65601" lon="-0.21992">
        <ele>74.16</ele>
        <time>2017-01-26T09:22:45Z</time>
      </trkpt>
      <trkpt lat="44.65587" lon="-0.21975">
        <ele>74.16</ele>
        <time>2017-01-26T09:23:02Z</time>
      </trkpt>
      <trkpt lat="44.65585" lon="-0.21972">
        <ele>74.64</ele>
        <time>2017-01-26T09:23:08Z</time>
      </trkpt>
      <trkpt lat="44.65579" lon="-0.21964">
        <ele>74.64</ele>
        <time>2017-01-26T09:23:17Z</time>
      </trkpt>
      <trkpt lat="44.65564" lon="-0.21945">
        <ele>75.6</ele>
        <time>2017-01-26T09:23:34Z</time>
      </trkpt>
      <trkpt lat="44.65549" lon="-0.21924">
        <ele>75.6</ele>
        <time>2017-01-26T09:23:53Z</time>
      </trkpt>
      <trkpt lat="44.65539" lon="-0.2191">
        <ele>76.56</ele>
        <time>2017-01-26T09:24:09Z</time>
      </trkpt>
      <trkpt lat="44.65539" lon="-0.21909">
        <ele>76.08</ele>
        <time>2017-01-26T09:24:14Z</time>
      </trkpt>
      <trkpt lat="44.65536" lon="-0.21904">
        <ele>76.56</ele>
        <time>2017-01-26T09:24:19Z</time>
      </trkpt>
      <trkpt lat="44.6552" lon="-0.21883">
        <ele>76.56</ele>
        <time>2017-01-26T09:24:37Z</time>
      </trkpt>
      <trkpt lat="44.65505" lon="-0.21864">
        <ele>78</ele>
        <time>2017-01-26T09:24:54Z</time>
      </trkpt>
      <trkpt lat="44.65499" lon="-0.2184">
        <ele>78.48</ele>
        <time>2017-01-26T09:25:09Z</time>
      </trkpt>
      <trkpt lat="44.65486" lon="-0.21822">
        <ele>78.97</ele>
        <time>2017-01-26T09:25:25Z</time>
      </trkpt>
      <trkpt lat="44.65471" lon="-0.218">
        <ele>79.93</ele>
        <time>2017-01-26T09:25:42Z</time>
      </trkpt>
      <trkpt lat="44.65456" lon="-0.21779">
        <ele>81.37</ele>
        <time>2017-01-26T09:25:58Z</time>
      </trkpt>
      <trkpt lat="44.65441" lon="-0.21755">
        <ele>82.33</ele>
        <time>2017-01-26T09:26:15Z</time>
      </trkpt>
      <trkpt lat="44.65428" lon="-0.21737">
        <ele>83.77</ele>
        <time>2017-01-26T09:26:29Z</time>
      </trkpt>
      <trkpt lat="44.65413" lon="-0.21713">
        <ele>85.69</ele>
        <time>2017-01-26T09:26:48Z</time>
      </trkpt>
      <trkpt lat="44.65407" lon="-0.21702">
        <ele>86.66</ele>
        <time>2017-01-26T09:27:05Z</time>
      </trkpt>
      <trkpt lat="44.654" lon="-0.21691">
        <ele>87.14</ele>
        <time>2017-01-26T09:27:19Z</time>
      </trkpt>
      <trkpt lat="44.6539" lon="-0.21679">
        <ele>88.58</ele>
        <time>2017-01-26T09:27:32Z</time>
      </trkpt>
      <trkpt lat="44.65376" lon="-0.21659">
        <ele>90.02</ele>
        <time>2017-01-26T09:27:50Z</time>
      </trkpt>
      <trkpt lat="44.65374" lon="-0.21657">
        <ele>90.02</ele>
        <time>2017-01-26T09:27:52Z</time>
      </trkpt>
      <trkpt lat="44.65365" lon="-0.21648">
        <ele>90.98</ele>
        <time>2017-01-26T09:28:01Z</time>
      </trkpt>
      <trkpt lat="44.65351" lon="-0.21626">
        <ele>92.42</ele>
        <time>2017-01-26T09:28:18Z</time>
      </trkpt>
      <trkpt lat="44.65345" lon="-0.21614">
        <ele>93.39</ele>
        <time>2017-01-26T09:28:27Z</time>
      </trkpt>
      <trkpt lat="44.65331" lon="-0.21592">
        <ele>94.83</ele>
        <time>2017-01-26T09:28:44Z</time>
      </trkpt>
      <trkpt lat="44.65328" lon="-0.21576">
        <ele>95.79</ele>
        <time>2017-01-26T09:28:58Z</time>
      </trkpt>
      <trkpt lat="44.65335" lon="-0.21571">
        <ele>96.27</ele>
        <time>2017-01-26T09:29:05Z</time>
      </trkpt>
      <trkpt lat="44.65337" lon="-0.21569">
        <ele>96.27</ele>
        <time>2017-01-26T09:29:08Z</time>
      </trkpt>
      <trkpt lat="44.65353" lon="-0.2155">
        <ele>96.27</ele>
        <time>2017-01-26T09:29:25Z</time>
      </trkpt>
      <trkpt lat="44.65358" lon="-0.21544">
        <ele>95.79</ele>
        <time>2017-01-26T09:29:30Z</time>
      </trkpt>
      <trkpt lat="44.65368" lon="-0.21531">
        <ele>94.83</ele>
        <time>2017-01-26T09:29:41Z</time>
      </trkpt>
      <trkpt lat="44.65386" lon="-0.21507">
        <ele>93.39</ele>
        <time>2017-01-26T09:30:01Z</time>
      </trkpt>
      <trkpt lat="44.65392" lon="-0.21501">
        <ele>92.9</ele>
        <time>2017-01-26T09:30:07Z</time>
      </trkpt>
      <trkpt lat="44.65405" lon="-0.21486">
        <ele>92.42</ele>
        <time>2017-01-26T09:30:19Z</time>
      </trkpt>
      <trkpt lat="44.65411" lon="-0.21479">
        <ele>92.42</ele>
        <time>2017-01-26T09:30:25Z</time>
      </trkpt>
      <trkpt lat="44.65425" lon="-0.21461">
        <ele>91.46</ele>
        <time>2017-01-26T09:30:41Z</time>
      </trkpt>
      <trkpt lat="44.65429" lon="-0.21455">
        <ele>90.98</ele>
        <time>2017-01-26T09:30:47Z</time>
      </trkpt>
      <trkpt lat="44.65437" lon="-0.21446">
        <ele>90.5</ele>
        <time>2017-01-26T09:30:55Z</time>
      </trkpt>
      <trkpt lat="44.65443" lon="-0.21437">
        <ele>89.54</ele>
        <time>2017-01-26T09:31:02Z</time>
      </trkpt>
      <trkpt lat="44.65444" lon="-0.21434">
        <ele>89.06</ele>
        <time>2017-01-26T09:31:04Z</time>
      </trkpt>
      <trkpt lat="44.65453" lon="-0.21417">
        <ele>86.18</ele>
        <time>2017-01-26T09:31:19Z</time>
      </trkpt>
      <trkpt lat="44.65455" lon="-0.21411">
        <ele>85.69</ele>
        <time>2017-01-26T09:31:23Z</time>
      </trkpt>
      <trkpt lat="44.65469" lon="-0.21389">
        <ele>81.85</ele>
        <time>2017-01-26T09:31:40Z</time>
      </trkpt>
      <trkpt lat="44.65472" lon="-0.21385">
        <ele>81.37</ele>
        <time>2017-01-26T09:31:43Z</time>
      </trkpt>
      <trkpt lat="44.65475" lon="-0.21382">
        <ele>80.89</ele>
        <time>2017-01-26T09:31:47Z</time>
      </trkpt>
      <trkpt lat="44.65484" lon="-0.21366">
        <ele>78.48</ele>
        <time>2017-01-26T09:32:01Z</time>
      </trkpt>
      <trkpt lat="44.65495" lon="-0.2135">
        <ele>77.52</ele>
        <time>2017-01-26T09:32:14Z</time>
      </trkpt>
      <trkpt lat="44.65505" lon="-0.2133">
        <ele>76.56</ele>
        <time>2017-01-26T09:32:29Z</time>
      </trkpt>
      <trkpt lat="44.65516" lon="-0.21314">
        <ele>75.6</ele>
        <time>2017-01-26T09:32:42Z</time>
      </trkpt>
      <trkpt lat="44.65527" lon="-0.21293">
        <ele>74.64</ele>
        <time>2017-01-26T09:32:57Z</time>
      </trkpt>
      <trkpt lat="44.6554" lon="-0.2127">
        <ele>73.68</ele>
        <time>2017-01-26T09:33:13Z</time>
      </trkpt>
      <trkpt lat="44.65543" lon="-0.21266">
        <ele>73.68</ele>
        <time>2017-01-26T09:33:16Z</time>
      </trkpt>
      <trkpt lat="44.65552" lon="-0.2125">
        <ele>73.2</ele>
        <time>2017-01-26T09:33:27Z</time>
      </trkpt>
      <trkpt lat="44.65555" lon="-0.21243">
        <ele>72.72</ele>
        <time>2017-01-26T09:33:32Z</time>
      </trkpt>
      <trkpt lat="44.65556" lon="-0.21241">
        <ele>72.72</ele>
        <time>2017-01-26T09:33:34Z</time>
      </trkpt>
      <trkpt lat="44.65563" lon="-0.21229">
        <ele>73.2</ele>
        <time>2017-01-26T09:33:44Z</time>
      </trkpt>
      <trkpt lat="44.65565" lon="-0.21228">
        <ele>73.2</ele>
        <time>2017-01-26T09:33:46Z</time>
      </trkpt>
      <trkpt lat="44.65573" lon="-0.21217">
        <ele>72.72</ele>
        <time>2017-01-26T09:33:56Z</time>
      </trkpt>
      <trkpt lat="44.65588" lon="-0.21193">
        <ele>72.24</ele>
        <time>2017-01-26T09:34:14Z</time>
      </trkpt>
      <trkpt lat="44.65602" lon="-0.21171">
        <ele>72.24</ele>
        <time>2017-01-26T09:34:30Z</time>
      </trkpt>
      <trkpt lat="44.65608" lon="-0.21162">
        <ele>72.24</ele>
        <time>2017-01-26T09:34:38Z</time>
      </trkpt>
      <trkpt lat="44.65613" lon="-0.21153">
        <ele>72.24</ele>
        <time>2017-01-26T09:34:45Z</time>
      </trkpt>
      <trkpt lat="44.65616" lon="-0.21149">
        <ele>72.24</ele>
        <time>2017-01-26T09:34:48Z</time>
      </trkpt>
      <trkpt lat="44.65627" lon="-0.2113">
        <ele>71.27</ele>
        <time>2017-01-26T09:35:02Z</time>
      </trkpt>
      <trkpt lat="44.65634" lon="-0.21111">
        <ele>71.76</ele>
        <time>2017-01-26T09:35:17Z</time>
      </trkpt>
      <trkpt lat="44.65628" lon="-0.21107">
        <ele>71.76</ele>
        <time>2017-01-26T09:35:22Z</time>
      </trkpt>
      <trkpt lat="44.65611" lon="-0.21094">
        <ele>72.72</ele>
        <time>2017-01-26T09:35:39Z</time>
      </trkpt>
      <trkpt lat="44.65597" lon="-0.21084">
        <ele>73.2</ele>
        <time>2017-01-26T09:35:54Z</time>
      </trkpt>
      <trkpt lat="44.65581" lon="-0.21072">
        <ele>74.16</ele>
        <time>2017-01-26T09:36:08Z</time>
      </trkpt>
      <trkpt lat="44.65565" lon="-0.21059">
        <ele>74.64</ele>
        <time>2017-01-26T09:36:24Z</time>
      </trkpt>
      <trkpt lat="44.65564" lon="-0.21058">
        <ele>75.12</ele>
        <time>2017-01-26T09:36:25Z</time>
      </trkpt>
      <trkpt lat="44.6555" lon="-0.21047">
        <ele>76.08</ele>
        <time>2017-01-26T09:36:37Z</time>
      </trkpt>
      <trkpt lat="44.65539" lon="-0.2104">
        <ele>77.04</ele>
        <time>2017-01-26T09:36:48Z</time>
      </trkpt>
      <trkpt lat="44.65528" lon="-0.21031">
        <ele>77.52</ele>
        <time>2017-01-26T09:37:01Z</time>
      </trkpt>
      <trkpt lat="44.65522" lon="-0.21026">
        <ele>78.48</ele>
        <time>2017-01-26T09:37:07Z</time>
      </trkpt>
      <trkpt lat="44.6552" lon="-0.21024">
        <ele>78.48</ele>
        <time>2017-01-26T09:37:09Z</time>
      </trkpt>
      <trkpt lat="44.65514" lon="-0.21019">
        <ele>78.97</ele>
        <time>2017-01-26T09:37:16Z</time>
      </trkpt>
      <trkpt lat="44.65508" lon="-0.21014">
        <ele>79.45</ele>
        <time>2017-01-26T09:37:23Z</time>
      </trkpt>
      <trkpt lat="44.65493" lon="-0.21002">
        <ele>80.89</ele>
        <time>2017-01-26T09:37:37Z</time>
      </trkpt>
      <trkpt lat="44.6549" lon="-0.2099">
        <ele>81.85</ele>
        <time>2017-01-26T09:37:52Z</time>
      </trkpt>
      <trkpt lat="44.65489" lon="-0.20982">
        <ele>81.85</ele>
        <time>2017-01-26T09:38:02Z</time>
      </trkpt>
      <trkpt lat="44.65487" lon="-0.20974">
        <ele>82.33</ele>
        <time>2017-01-26T09:38:07Z</time>
      </trkpt>
      <trkpt lat="44.65485" lon="-0.20948">
        <ele>83.29</ele>
        <time>2017-01-26T09:38:25Z</time>
      </trkpt>
      <trkpt lat="44.65481" lon="-0.20936">
        <ele>83.29</ele>
        <time>2017-01-26T09:38:33Z</time>
      </trkpt>
      <trkpt lat="44.65478" lon="-0.20916">
        <ele>82.81</ele>
        <time>2017-01-26T09:38:45Z</time>
      </trkpt>
      <trkpt lat="44.65475" lon="-0.20896">
        <ele>83.29</ele>
        <time>2017-01-26T09:38:59Z</time>
      </trkpt>
      <trkpt lat="44.65469" lon="-0.2087">
        <ele>83.29</ele>
        <time>2017-01-26T09:39:15Z</time>
      </trkpt>
      <trkpt lat="44.65468" lon="-0.20869">
        <ele>83.29</ele>
        <time>2017-01-26T09:39:16Z</time>
      </trkpt>
      <trkpt lat="44.65464" lon="-0.20848">
        <ele>83.29</ele>
        <time>2017-01-26T09:39:31Z</time>
      </trkpt>
      <trkpt lat="44.65463" lon="-0.20836">
        <ele>83.29</ele>
        <time>2017-01-26T09:39:41Z</time>
      </trkpt>
      <trkpt lat="44.65459" lon="-0.20814">
        <ele>82.81</ele>
        <time>2017-01-26T09:39:56Z</time>
      </trkpt>
      <trkpt lat="44.65459" lon="-0.2081">
        <ele>83.77</ele>
        <time>2017-01-26T09:40:05Z</time>
      </trkpt>
      <trkpt lat="44.65459" lon="-0.20809">
        <ele>83.77</ele>
        <time>2017-01-26T09:40:07Z</time>
      </trkpt>
      <trkpt lat="44.65458" lon="-0.20807">
        <ele>82.81</ele>
        <time>2017-01-26T09:40:10Z</time>
      </trkpt>
      <trkpt lat="44.65451" lon="-0.20801">
        <ele>83.29</ele>
        <time>2017-01-26T09:40:20Z</time>
      </trkpt>
      <trkpt lat="44.65448" lon="-0.20801">
        <ele>83.29</ele>
        <time>2017-01-26T09:40:23Z</time>
      </trkpt>
      <trkpt lat="44.65443" lon="-0.208">
        <ele>83.77</ele>
        <time>2017-01-26T09:40:38Z</time>
      </trkpt>
      <trkpt lat="44.65436" lon="-0.20799">
        <ele>84.25</ele>
        <time>2017-01-26T09:41:01Z</time>
      </trkpt>
      <trkpt lat="44.65435" lon="-0.20799">
        <ele>84.25</ele>
        <time>2017-01-26T09:41:02Z</time>
      </trkpt>
      <trkpt lat="44.65427" lon="-0.208">
        <ele>84.73</ele>
        <time>2017-01-26T09:41:09Z</time>
      </trkpt>
      <trkpt lat="44.65405" lon="-0.208">
        <ele>85.69</ele>
        <time>2017-01-26T09:41:28Z</time>
      </trkpt>
      <trkpt lat="44.65402" lon="-0.20801">
        <ele>85.69</ele>
        <time>2017-01-26T09:41:31Z</time>
      </trkpt>
      <trkpt lat="44.65395" lon="-0.20799">
        <ele>86.18</ele>
        <time>2017-01-26T09:41:38Z</time>
      </trkpt>
      <trkpt lat="44.65386" lon="-0.208">
        <ele>86.66</ele>
        <time>2017-01-26T09:41:46Z</time>
      </trkpt>
      <trkpt lat="44.65366" lon="-0.20797">
        <ele>87.62</ele>
        <time>2017-01-26T09:42:03Z</time>
      </trkpt>
      <trkpt lat="44.65365" lon="-0.20791">
        <ele>87.62</ele>
        <time>2017-01-26T09:42:07Z</time>
      </trkpt>
      <trkpt lat="44.65364" lon="-0.20765">
        <ele>86.66</ele>
        <time>2017-01-26T09:42:23Z</time>
      </trkpt>
      <trkpt lat="44.65365" lon="-0.20751">
        <ele>85.69</ele>
        <time>2017-01-26T09:42:32Z</time>
      </trkpt>
      <trkpt lat="44.65365" lon="-0.20716">
        <ele>84.73</ele>
        <time>2017-01-26T09:42:52Z</time>
      </trkpt>
      <trkpt lat="44.65364" lon="-0.20683">
        <ele>83.29</ele>
        <time>2017-01-26T09:43:10Z</time>
      </trkpt>
      <trkpt lat="44.65364" lon="-0.20652">
        <ele>82.81</ele>
        <time>2017-01-26T09:43:29Z</time>
      </trkpt>
      <trkpt lat="44.65362" lon="-0.20622">
        <ele>82.33</ele>
        <time>2017-01-26T09:43:46Z</time>
      </trkpt>
      <trkpt lat="44.65362" lon="-0.20593">
        <ele>80.89</ele>
        <time>2017-01-26T09:44:02Z</time>
      </trkpt>
      <trkpt lat="44.65359" lon="-0.20587">
        <ele>80.41</ele>
        <time>2017-01-26T09:44:08Z</time>
      </trkpt>
      <trkpt lat="44.65343" lon="-0.20577">
        <ele>78.97</ele>
        <time>2017-01-26T09:44:22Z</time>
      </trkpt>
      <trkpt lat="44.65342" lon="-0.20577">
        <ele>78.48</ele>
        <time>2017-01-26T09:44:23Z</time>
      </trkpt>
      <trkpt lat="44.6534" lon="-0.20576">
        <ele>78.48</ele>
        <time>2017-01-26T09:44:25Z</time>
      </trkpt>
      <trkpt lat="44.65332" lon="-0.20574">
        <ele>78</ele>
        <time>2017-01-26T09:44:33Z</time>
      </trkpt>
      <trkpt lat="44.65333" lon="-0.20573">
        <ele>78.48</ele>
        <time>2017-01-26T09:44:35Z</time>
      </trkpt>
      <trkpt lat="44.65335" lon="-0.20575">
        <ele>78.48</ele>
        <time>2017-01-26T09:44:37Z</time>
      </trkpt>
      <trkpt lat="44.65353" lon="-0.20579">
        <ele>80.41</ele>
        <time>2017-01-26T09:44:53Z</time>
      </trkpt>
      <trkpt lat="44.65356" lon="-0.20573">
        <ele>80.41</ele>
        <time>2017-01-26T09:45:08Z</time>
      </trkpt>
      <trkpt lat="44.65357" lon="-0.2057">
        <ele>79.93</ele>
        <time>2017-01-26T09:45:18Z</time>
      </trkpt>
      <trkpt lat="44.6536" lon="-0.20544">
        <ele>78.48</ele>
        <time>2017-01-26T09:45:35Z</time>
      </trkpt>
      <trkpt lat="44.65362" lon="-0.20521">
        <ele>77.52</ele>
        <time>2017-01-26T09:45:48Z</time>
      </trkpt>
      <trkpt lat="44.65363" lon="-0.20495">
        <ele>76.56</ele>
        <time>2017-01-26T09:46:04Z</time>
      </trkpt>
      <trkpt lat="44.65363" lon="-0.20487">
        <ele>75.6</ele>
        <time>2017-01-26T09:46:09Z</time>
      </trkpt>
      <trkpt lat="44.65355" lon="-0.20485">
        <ele>75.6</ele>
        <time>2017-01-26T09:46:18Z</time>
      </trkpt>
      <trkpt lat="44.65337" lon="-0.20485">
        <ele>75.6</ele>
        <time>2017-01-26T09:46:34Z</time>
      </trkpt>
      <trkpt lat="44.65322" lon="-0.20481">
        <ele>74.64</ele>
        <time>2017-01-26T09:46:49Z</time>
      </trkpt>
      <trkpt lat="44.65313" lon="-0.20475">
        <ele>72.72</ele>
        <time>2017-01-26T09:47:04Z</time>
      </trkpt>
      <trkpt lat="44.65309" lon="-0.20465">
        <ele>72.24</ele>
        <time>2017-01-26T09:47:18Z</time>
      </trkpt>
      <trkpt lat="44.65309" lon="-0.20469">
        <ele>72.72</ele>
        <time>2017-01-26T09:47:29Z</time>
      </trkpt>
      <trkpt lat="44.65301" lon="-0.20476">
        <ele>72.24</ele>
        <time>2017-01-26T09:47:38Z</time>
      </trkpt>
      <trkpt lat="44.65296" lon="-0.20477">
        <ele>70.79</ele>
        <time>2017-01-26T09:47:43Z</time>
      </trkpt>
      <trkpt lat="44.65279" lon="-0.20473">
        <ele>68.39</ele>
        <time>2017-01-26T09:48:00Z</time>
      </trkpt>
      <trkpt lat="44.6527" lon="-0.20469">
        <ele>67.91</ele>
        <time>2017-01-26T09:48:15Z</time>
      </trkpt>
      <trkpt lat="44.65269" lon="-0.20468">
        <ele>67.43</ele>
        <time>2017-01-26T09:48:25Z</time>
      </trkpt>
      <trkpt lat="44.65262" lon="-0.2046">
        <ele>65.99</ele>
        <time>2017-01-26T09:48:34Z</time>
      </trkpt>
      <trkpt lat="44.65262" lon="-0.20442">
        <ele>65.51</ele>
        <time>2017-01-26T09:48:48Z</time>
      </trkpt>
      <trkpt lat="44.65263" lon="-0.20439">
        <ele>65.99</ele>
        <time>2017-01-26T09:48:50Z</time>
      </trkpt>
      <trkpt lat="44.65265" lon="-0.20422">
        <ele>65.03</ele>
        <time>2017-01-26T09:49:02Z</time>
      </trkpt>
      <trkpt lat="44.65267" lon="-0.20408">
        <ele>64.55</ele>
        <time>2017-01-26T09:49:17Z</time>
      </trkpt>
      <trkpt lat="44.65267" lon="-0.20406">
        <ele>64.55</ele>
        <time>2017-01-26T09:49:28Z</time>
      </trkpt>
      <trkpt lat="44.65268" lon="-0.204">
        <ele>64.55</ele>
        <time>2017-01-26T09:49:42Z</time>
      </trkpt>
      <trkpt lat="44.65269" lon="-0.20386">
        <ele>64.07</ele>
        <time>2017-01-26T09:49:54Z</time>
      </trkpt>
      <trkpt lat="44.6527" lon="-0.20383">
        <ele>64.07</ele>
        <time>2017-01-26T09:49:57Z</time>
      </trkpt>
      <trkpt lat="44.65272" lon="-0.20363">
        <ele>63.58</ele>
        <time>2017-01-26T09:50:12Z</time>
      </trkpt>
      <trkpt lat="44.65274" lon="-0.2034">
        <ele>62.62</ele>
        <time>2017-01-26T09:50:28Z</time>
      </trkpt>
      <trkpt lat="44.65276" lon="-0.20321">
        <ele>63.1</ele>
        <time>2017-01-26T09:50:43Z</time>
      </trkpt>
      <trkpt lat="44.65284" lon="-0.20304">
        <ele>63.58</ele>
        <time>2017-01-26T09:50:58Z</time>
      </trkpt>
      <trkpt lat="44.65286" lon="-0.20301">
        <ele>63.1</ele>
        <time>2017-01-26T09:51:01Z</time>
      </trkpt>
      <trkpt lat="44.65294" lon="-0.20286">
        <ele>62.14</ele>
        <time>2017-01-26T09:51:15Z</time>
      </trkpt>
      <trkpt lat="44.653" lon="-0.20275">
        <ele>62.14</ele>
        <time>2017-01-26T09:51:26Z</time>
      </trkpt>
      <trkpt lat="44.65304" lon="-0.2027">
        <ele>61.66</ele>
        <time>2017-01-26T09:51:32Z</time>
      </trkpt>
      <trkpt lat="44.65311" lon="-0.20258">
        <ele>62.14</ele>
        <time>2017-01-26T09:51:46Z</time>
      </trkpt>
      <trkpt lat="44.65314" lon="-0.20254">
        <ele>62.14</ele>
        <time>2017-01-26T09:51:50Z</time>
      </trkpt>
      <trkpt lat="44.65323" lon="-0.20236">
        <ele>61.66</ele>
        <time>2017-01-26T09:52:07Z</time>
      </trkpt>
      <trkpt lat="44.65333" lon="-0.20219">
        <ele>62.14</ele>
        <time>2017-01-26T09:52:24Z</time>
      </trkpt>
      <trkpt lat="44.65342" lon="-0.20203">
        <ele>61.66</ele>
        <time>2017-01-26T09:52:40Z</time>
      </trkpt>
      <trkpt lat="44.65341" lon="-0.20184">
        <ele>61.18</ele>
        <time>2017-01-26T09:52:53Z</time>
      </trkpt>
      <trkpt lat="44.65341" lon="-0.20182">
        <ele>60.7</ele>
        <time>2017-01-26T09:52:55Z</time>
      </trkpt>
      <trkpt lat="44.65338" lon="-0.20162">
        <ele>60.7</ele>
        <time>2017-01-26T09:53:09Z</time>
      </trkpt>
      <trkpt lat="44.65338" lon="-0.2016">
        <ele>60.7</ele>
        <time>2017-01-26T09:53:11Z</time>
      </trkpt>
      <trkpt lat="44.65334" lon="-0.20157">
        <ele>61.18</ele>
        <time>2017-01-26T09:53:15Z</time>
      </trkpt>
      <trkpt lat="44.65318" lon="-0.20162">
        <ele>61.66</ele>
        <time>2017-01-26T09:53:32Z</time>
      </trkpt>
      <trkpt lat="44.65306" lon="-0.20166">
        <ele>61.66</ele>
        <time>2017-01-26T09:53:46Z</time>
      </trkpt>
      <trkpt lat="44.6529" lon="-0.20174">
        <ele>61.66</ele>
        <time>2017-01-26T09:54:02Z</time>
      </trkpt>
      <trkpt lat="44.65286" lon="-0.20176">
        <ele>61.66</ele>
        <time>2017-01-26T09:54:06Z</time>
      </trkpt>
      <trkpt lat="44.65283" lon="-0.20186">
        <ele>62.14</ele>
        <time>2017-01-26T09:54:13Z</time>
      </trkpt>
      <trkpt lat="44.65278" lon="-0.20205">
        <ele>62.14</ele>
        <time>2017-01-26T09:54:29Z</time>
      </trkpt>
      <trkpt lat="44.65273" lon="-0.2021">
        <ele>62.14</ele>
        <time>2017-01-26T09:54:36Z</time>
      </trkpt>
      <trkpt lat="44.6527" lon="-0.2021">
        <ele>61.66</ele>
        <time>2017-01-26T09:54:39Z</time>
      </trkpt>
      <trkpt lat="44.65268" lon="-0.2021">
        <ele>57.82</ele>
        <time>2017-01-26T09:54:45Z</time>
      </trkpt>
      <trkpt lat="44.65268" lon="-0.2021">
        <ele>64.55</ele>
        <time>2017-01-26T09:54:46Z</time>
      </trkpt>
      <trkpt lat="44.65256" lon="-0.20215">
        <ele>62.14</ele>
        <time>2017-01-26T09:54:59Z</time>
      </trkpt>
      <trkpt lat="44.65241" lon="-0.20219">
        <ele>62.62</ele>
        <time>2017-01-26T09:55:15Z</time>
      </trkpt>
      <trkpt lat="44.65228" lon="-0.2022">
        <ele>62.14</ele>
        <time>2017-01-26T09:55:27Z</time>
      </trkpt>
      <trkpt lat="44.65224" lon="-0.2022">
        <ele>62.62</ele>
        <time>2017-01-26T09:55:31Z</time>
      </trkpt>
      <trkpt lat="44.65219" lon="-0.20221">
        <ele>62.62</ele>
        <time>2017-01-26T09:55:36Z</time>
      </trkpt>
      <trkpt lat="44.65203" lon="-0.20221">
        <ele>63.1</ele>
        <time>2017-01-26T09:55:53Z</time>
      </trkpt>
      <trkpt lat="44.65197" lon="-0.2022">
        <ele>64.07</ele>
        <time>2017-01-26T09:55:59Z</time>
      </trkpt>
      <trkpt lat="44.65192" lon="-0.20218">
        <ele>59.74</ele>
        <time>2017-01-26T09:56:05Z</time>
      </trkpt>
      <trkpt lat="44.65191" lon="-0.20218">
        <ele>64.55</ele>
        <time>2017-01-26T09:56:06Z</time>
      </trkpt>
      <trkpt lat="44.6519" lon="-0.20218">
        <ele>71.76</ele>
        <time>2017-01-26T09:56:07Z</time>
      </trkpt>
      <trkpt lat="44.6519" lon="-0.20218">
        <ele>65.51</ele>
        <time>2017-01-26T09:56:08Z</time>
      </trkpt>
      <trkpt lat="44.65189" lon="-0.20218">
        <ele>65.03</ele>
        <time>2017-01-26T09:56:09Z</time>
      </trkpt>
      <trkpt lat="44.65179" lon="-0.20216">
        <ele>65.03</ele>
        <time>2017-01-26T09:56:22Z</time>
      </trkpt>
      <trkpt lat="44.65177" lon="-0.20211">
        <ele>65.03</ele>
        <time>2017-01-26T09:56:28Z</time>
      </trkpt>
      <trkpt lat="44.65176" lon="-0.20203">
        <ele>65.51</ele>
        <time>2017-01-26T09:56:38Z</time>
      </trkpt>
      <trkpt lat="44.65175" lon="-0.20185">
        <ele>65.03</ele>
        <time>2017-01-26T09:56:53Z</time>
      </trkpt>
      <trkpt lat="44.65174" lon="-0.20183">
        <ele>63.58</ele>
        <time>2017-01-26T09:56:55Z</time>
      </trkpt>
      <trkpt lat="44.65172" lon="-0.20179">
        <ele>65.51</ele>
        <time>2017-01-26T09:57:06Z</time>
      </trkpt>
      <trkpt lat="44.65169" lon="-0.20178">
        <ele>65.03</ele>
        <time>2017-01-26T09:57:15Z</time>
      </trkpt>
      <trkpt lat="44.65144" lon="-0.20174">
        <ele>64.55</ele>
        <time>2017-01-26T09:57:36Z</time>
      </trkpt>
      <trkpt lat="44.65126" lon="-0.20172">
        <ele>64.55</ele>
        <time>2017-01-26T09:57:52Z</time>
      </trkpt>
      <trkpt lat="44.65104" lon="-0.20169">
        <ele>65.03</ele>
        <time>2017-01-26T09:58:11Z</time>
      </trkpt>
      <trkpt lat="44.65081" lon="-0.20166">
        <ele>65.51</ele>
        <time>2017-01-26T09:58:30Z</time>
      </trkpt>
      <trkpt lat="44.65063" lon="-0.20165">
        <ele>65.99</ele>
        <time>2017-01-26T09:58:44Z</time>
      </trkpt>
      <trkpt lat="44.65058" lon="-0.20164">
        <ele>65.99</ele>
        <time>2017-01-26T09:58:48Z</time>
      </trkpt>
      <trkpt lat="44.65044" lon="-0.20161">
        <ele>66.47</ele>
        <time>2017-01-26T09:58:59Z</time>
      </trkpt>
      <trkpt lat="44.65025" lon="-0.20158">
        <ele>66.95</ele>
        <time>2017-01-26T09:59:15Z</time>
      </trkpt>
      <trkpt lat="44.65021" lon="-0.20158">
        <ele>65.99</ele>
        <time>2017-01-26T09:59:18Z</time>
      </trkpt>
      <trkpt lat="44.65" lon="-0.20148">
        <ele>67.43</ele>
        <time>2017-01-26T09:59:36Z</time>
      </trkpt>
      <trkpt lat="44.64982" lon="-0.20134">
        <ele>66.95</ele>
        <time>2017-01-26T09:59:53Z</time>
      </trkpt>
      <trkpt lat="44.64964" lon="-0.2012">
        <ele>67.91</ele>
        <time>2017-01-26T10:00:09Z</time>
      </trkpt>
      <trkpt lat="44.64963" lon="-0.20119">
        <ele>64.55</ele>
        <time>2017-01-26T10:00:10Z</time>
      </trkpt>
      <trkpt lat="44.64962" lon="-0.20118">
        <ele>68.39</ele>
        <time>2017-01-26T10:00:11Z</time>
      </trkpt>
      <trkpt lat="44.64957" lon="-0.20114">
        <ele>67.91</ele>
        <time>2017-01-26T10:00:18Z</time>
      </trkpt>
      <trkpt lat="44.64955" lon="-0.20113">
        <ele>67.43</ele>
        <time>2017-01-26T10:00:20Z</time>
      </trkpt>
      <trkpt lat="44.64929" lon="-0.20091">
        <ele>67.43</ele>
        <time>2017-01-26T10:00:43Z</time>
      </trkpt>
      <trkpt lat="44.64909" lon="-0.20076">
        <ele>68.39</ele>
        <time>2017-01-26T10:01:01Z</time>
      </trkpt>
      <trkpt lat="44.64885" lon="-0.20055">
        <ele>68.87</ele>
        <time>2017-01-26T10:01:22Z</time>
      </trkpt>
      <trkpt lat="44.64869" lon="-0.20037">
        <ele>69.83</ele>
        <time>2017-01-26T10:01:39Z</time>
      </trkpt>
      <trkpt lat="44.64855" lon="-0.2002">
        <ele>70.31</ele>
        <time>2017-01-26T10:01:53Z</time>
      </trkpt>
      <trkpt lat="44.6484" lon="-0.19999">
        <ele>70.79</ele>
        <time>2017-01-26T10:02:10Z</time>
      </trkpt>
      <trkpt lat="44.64823" lon="-0.19976">
        <ele>71.27</ele>
        <time>2017-01-26T10:02:29Z</time>
      </trkpt>
      <trkpt lat="44.64807" lon="-0.19952">
        <ele>71.27</ele>
        <time>2017-01-26T10:02:47Z</time>
      </trkpt>
      <trkpt lat="44.64794" lon="-0.19932">
        <ele>71.76</ele>
        <time>2017-01-26T10:03:03Z</time>
      </trkpt>
      <trkpt lat="44.64777" lon="-0.19904">
        <ele>72.24</ele>
        <time>2017-01-26T10:03:23Z</time>
      </trkpt>
      <trkpt lat="44.64763" lon="-0.1988">
        <ele>72.72</ele>
        <time>2017-01-26T10:03:40Z</time>
      </trkpt>
      <trkpt lat="44.64748" lon="-0.19856">
        <ele>73.68</ele>
        <time>2017-01-26T10:03:58Z</time>
      </trkpt>
      <trkpt lat="44.64736" lon="-0.19834">
        <ele>75.12</ele>
        <time>2017-01-26T10:04:15Z</time>
      </trkpt>
      <trkpt lat="44.64736" lon="-0.19833">
        <ele>74.64</ele>
        <time>2017-01-26T10:04:18Z</time>
      </trkpt>
      <trkpt lat="44.64732" lon="-0.19825">
        <ele>74.64</ele>
        <time>2017-01-26T10:04:24Z</time>
      </trkpt>
      <trkpt lat="44.6473" lon="-0.19822">
        <ele>74.64</ele>
        <time>2017-01-26T10:04:26Z</time>
      </trkpt>
      <trkpt lat="44.64723" lon="-0.19792">
        <ele>75.6</ele>
        <time>2017-01-26T10:04:44Z</time>
      </trkpt>
      <trkpt lat="44.64718" lon="-0.19765">
        <ele>76.56</ele>
        <time>2017-01-26T10:05:01Z</time>
      </trkpt>
      <trkpt lat="44.64715" lon="-0.1975">
        <ele>76.08</ele>
        <time>2017-01-26T10:05:10Z</time>
      </trkpt>
      <trkpt lat="44.64711" lon="-0.19725">
        <ele>76.08</ele>
        <time>2017-01-26T10:05:24Z</time>
      </trkpt>
      <trkpt lat="44.64706" lon="-0.19703">
        <ele>75.12</ele>
        <time>2017-01-26T10:05:37Z</time>
      </trkpt>
      <trkpt lat="44.64702" lon="-0.19677">
        <ele>74.64</ele>
        <time>2017-01-26T10:05:51Z</time>
      </trkpt>
      <trkpt lat="44.64701" lon="-0.1967">
        <ele>74.64</ele>
        <time>2017-01-26T10:05:56Z</time>
      </trkpt>
      <trkpt lat="44.64695" lon="-0.19646">
        <ele>74.16</ele>
        <time>2017-01-26T10:06:11Z</time>
      </trkpt>
      <trkpt lat="44.64688" lon="-0.19624">
        <ele>74.16</ele>
        <time>2017-01-26T10:06:25Z</time>
      </trkpt>
      <trkpt lat="44.64679" lon="-0.19596">
        <ele>73.68</ele>
        <time>2017-01-26T10:06:43Z</time>
      </trkpt>
      <trkpt lat="44.64679" lon="-0.19592">
        <ele>73.68</ele>
        <time>2017-01-26T10:06:46Z</time>
      </trkpt>
      <trkpt lat="44.64673" lon="-0.19571">
        <ele>72.72</ele>
        <time>2017-01-26T10:07:01Z</time>
      </trkpt>
      <trkpt lat="44.64664" lon="-0.19545">
        <ele>72.72</ele>
        <time>2017-01-26T10:07:17Z</time>
      </trkpt>
      <trkpt lat="44.64659" lon="-0.19524">
        <ele>71.76</ele>
        <time>2017-01-26T10:07:29Z</time>
      </trkpt>
      <trkpt lat="44.64652" lon="-0.19498">
        <ele>71.76</ele>
        <time>2017-01-26T10:07:44Z</time>
      </trkpt>
      <trkpt lat="44.64647" lon="-0.19479">
        <ele>71.27</ele>
        <time>2017-01-26T10:07:55Z</time>
      </trkpt>
      <trkpt lat="44.64644" lon="-0.19469">
        <ele>70.79</ele>
        <time>2017-01-26T10:08:01Z</time>
      </trkpt>
      <trkpt lat="44.64639" lon="-0.19456">
        <ele>70.79</ele>
        <time>2017-01-26T10:08:09Z</time>
      </trkpt>
      <trkpt lat="44.64633" lon="-0.19436">
        <ele>70.79</ele>
        <time>2017-01-26T10:08:22Z</time>
      </trkpt>
      <trkpt lat="44.64624" lon="-0.19408">
        <ele>69.35</ele>
        <time>2017-01-26T10:08:39Z</time>
      </trkpt>
      <trkpt lat="44.6462" lon="-0.19387">
        <ele>69.35</ele>
        <time>2017-01-26T10:08:52Z</time>
      </trkpt>
      <trkpt lat="44.64619" lon="-0.19378">
        <ele>69.35</ele>
        <time>2017-01-26T10:08:57Z</time>
      </trkpt>
      <trkpt lat="44.64614" lon="-0.19368">
        <ele>69.35</ele>
        <time>2017-01-26T10:09:09Z</time>
      </trkpt>
      <trkpt lat="44.64611" lon="-0.19356">
        <ele>68.87</ele>
        <time>2017-01-26T10:09:21Z</time>
      </trkpt>
      <trkpt lat="44.64605" lon="-0.19329">
        <ele>68.39</ele>
        <time>2017-01-26T10:09:37Z</time>
      </trkpt>
      <trkpt lat="44.64599" lon="-0.19302">
        <ele>67.91</ele>
        <time>2017-01-26T10:09:53Z</time>
      </trkpt>
      <trkpt lat="44.64594" lon="-0.19272">
        <ele>67.43</ele>
        <time>2017-01-26T10:10:12Z</time>
      </trkpt>
      <trkpt lat="44.64589" lon="-0.19248">
        <ele>67.43</ele>
        <time>2017-01-26T10:10:30Z</time>
      </trkpt>
      <trkpt lat="44.64591" lon="-0.19254">
        <ele>67.43</ele>
        <time>2017-01-26T10:10:34Z</time>
      </trkpt>
      <trkpt lat="44.64596" lon="-0.19286">
        <ele>67.91</ele>
        <time>2017-01-26T10:10:52Z</time>
      </trkpt>
      <trkpt lat="44.646" lon="-0.1931">
        <ele>68.39</ele>
        <time>2017-01-26T10:11:07Z</time>
      </trkpt>
      <trkpt lat="44.64589" lon="-0.19328">
        <ele>68.87</ele>
        <time>2017-01-26T10:11:23Z</time>
      </trkpt>
      <trkpt lat="44.64577" lon="-0.19354">
        <ele>70.31</ele>
        <time>2017-01-26T10:11:43Z</time>
      </trkpt>
      <trkpt lat="44.64576" lon="-0.19356">
        <ele>70.31</ele>
        <time>2017-01-26T10:11:45Z</time>
      </trkpt>
      <trkpt lat="44.64574" lon="-0.19359">
        <ele>70.31</ele>
        <time>2017-01-26T10:11:47Z</time>
      </trkpt>
      <trkpt lat="44.64561" lon="-0.19387">
        <ele>71.27</ele>
        <time>2017-01-26T10:12:05Z</time>
      </trkpt>
      <trkpt lat="44.64551" lon="-0.19407">
        <ele>72.24</ele>
        <time>2017-01-26T10:12:19Z</time>
      </trkpt>
      <trkpt lat="44.64536" lon="-0.19425">
        <ele>73.68</ele>
        <time>2017-01-26T10:12:37Z</time>
      </trkpt>
      <trkpt lat="44.64528" lon="-0.19432">
        <ele>74.16</ele>
        <time>2017-01-26T10:12:50Z</time>
      </trkpt>
      <trkpt lat="44.64527" lon="-0.19433">
        <ele>74.16</ele>
        <time>2017-01-26T10:13:05Z</time>
      </trkpt>
      <trkpt lat="44.64527" lon="-0.19434">
        <ele>74.16</ele>
        <time>2017-01-26T10:13:36Z</time>
      </trkpt>
      <trkpt lat="44.64527" lon="-0.19433">
        <ele>74.16</ele>
        <time>2017-01-26T10:14:15Z</time>
      </trkpt>
      <trkpt lat="44.64519" lon="-0.19439">
        <ele>75.12</ele>
        <time>2017-01-26T10:14:29Z</time>
      </trkpt>
      <trkpt lat="44.64516" lon="-0.19442">
        <ele>75.6</ele>
        <time>2017-01-26T10:14:32Z</time>
      </trkpt>
      <trkpt lat="44.64507" lon="-0.19457">
        <ele>77.04</ele>
        <time>2017-01-26T10:14:45Z</time>
      </trkpt>
      <trkpt lat="44.64495" lon="-0.19471">
        <ele>78.48</ele>
        <time>2017-01-26T10:14:59Z</time>
      </trkpt>
      <trkpt lat="44.64489" lon="-0.19477">
        <ele>79.93</ele>
        <time>2017-01-26T10:15:05Z</time>
      </trkpt>
      <trkpt lat="44.64472" lon="-0.19495">
        <ele>81.37</ele>
        <time>2017-01-26T10:15:23Z</time>
      </trkpt>
      <trkpt lat="44.64456" lon="-0.19513">
        <ele>82.81</ele>
        <time>2017-01-26T10:15:40Z</time>
      </trkpt>
      <trkpt lat="44.6444" lon="-0.19528">
        <ele>84.25</ele>
        <time>2017-01-26T10:15:56Z</time>
      </trkpt>
      <trkpt lat="44.64427" lon="-0.19544">
        <ele>85.69</ele>
        <time>2017-01-26T10:16:13Z</time>
      </trkpt>
      <trkpt lat="44.64413" lon="-0.1956">
        <ele>87.62</ele>
        <time>2017-01-26T10:16:29Z</time>
      </trkpt>
      <trkpt lat="44.644" lon="-0.19571">
        <ele>89.06</ele>
        <time>2017-01-26T10:16:43Z</time>
      </trkpt>
      <trkpt lat="44.64385" lon="-0.19584">
        <ele>90.02</ele>
        <time>2017-01-26T10:16:59Z</time>
      </trkpt>
      <trkpt lat="44.64373" lon="-0.19598">
        <ele>91.94</ele>
        <time>2017-01-26T10:17:17Z</time>
      </trkpt>
      <trkpt lat="44.64373" lon="-0.19598">
        <ele>91.46</ele>
        <time>2017-01-26T10:17:23Z</time>
      </trkpt>
      <trkpt lat="44.6437" lon="-0.19595">
        <ele>91.46</ele>
        <time>2017-01-26T10:17:26Z</time>
      </trkpt>
      <trkpt lat="44.64364" lon="-0.19582">
        <ele>91.46</ele>
        <time>2017-01-26T10:17:37Z</time>
      </trkpt>
      <trkpt lat="44.64358" lon="-0.19577">
        <ele>85.21</ele>
        <time>2017-01-26T10:17:44Z</time>
      </trkpt>
      <trkpt lat="44.64357" lon="-0.19577">
        <ele>89.54</ele>
        <time>2017-01-26T10:17:45Z</time>
      </trkpt>
      <trkpt lat="44.64355" lon="-0.19576">
        <ele>90.02</ele>
        <time>2017-01-26T10:17:47Z</time>
      </trkpt>
      <trkpt lat="44.6435" lon="-0.19572">
        <ele>88.58</ele>
        <time>2017-01-26T10:18:03Z</time>
      </trkpt>
      <trkpt lat="44.64344" lon="-0.19568">
        <ele>88.58</ele>
        <time>2017-01-26T10:18:16Z</time>
      </trkpt>
      <trkpt lat="44.64341" lon="-0.19567">
        <ele>88.1</ele>
        <time>2017-01-26T10:18:22Z</time>
      </trkpt>
      <trkpt lat="44.64336" lon="-0.19566">
        <ele>87.14</ele>
        <time>2017-01-26T10:18:26Z</time>
      </trkpt>
      <trkpt lat="44.64332" lon="-0.19564">
        <ele>87.14</ele>
        <time>2017-01-26T10:18:30Z</time>
      </trkpt>
      <trkpt lat="44.64323" lon="-0.19558">
        <ele>87.14</ele>
        <time>2017-01-26T10:18:38Z</time>
      </trkpt>
      <trkpt lat="44.64303" lon="-0.19546">
        <ele>86.18</ele>
        <time>2017-01-26T10:18:57Z</time>
      </trkpt>
      <trkpt lat="44.64289" lon="-0.1954">
        <ele>86.18</ele>
        <time>2017-01-26T10:19:12Z</time>
      </trkpt>
      <trkpt lat="44.64275" lon="-0.19532">
        <ele>86.18</ele>
        <time>2017-01-26T10:19:27Z</time>
      </trkpt>
      <trkpt lat="44.6426" lon="-0.19522">
        <ele>85.69</ele>
        <time>2017-01-26T10:19:41Z</time>
      </trkpt>
      <trkpt lat="44.64246" lon="-0.19516">
        <ele>85.21</ele>
        <time>2017-01-26T10:19:54Z</time>
      </trkpt>
      <trkpt lat="44.64234" lon="-0.19509">
        <ele>85.21</ele>
        <time>2017-01-26T10:20:06Z</time>
      </trkpt>
      <trkpt lat="44.64222" lon="-0.19502">
        <ele>85.69</ele>
        <time>2017-01-26T10:20:21Z</time>
      </trkpt>
      <trkpt lat="44.64208" lon="-0.19495">
        <ele>85.21</ele>
        <time>2017-01-26T10:20:36Z</time>
      </trkpt>
      <trkpt lat="44.64192" lon="-0.19487">
        <ele>85.21</ele>
        <time>2017-01-26T10:20:52Z</time>
      </trkpt>
      <trkpt lat="44.64174" lon="-0.19477">
        <ele>85.21</ele>
        <time>2017-01-26T10:21:10Z</time>
      </trkpt>
      <trkpt lat="44.64156" lon="-0.19463">
        <ele>84.73</ele>
        <time>2017-01-26T10:21:28Z</time>
      </trkpt>
      <trkpt lat="44.6414" lon="-0.19444">
        <ele>84.25</ele>
        <time>2017-01-26T10:21:46Z</time>
      </trkpt>
      <trkpt lat="44.64138" lon="-0.19443">
        <ele>84.25</ele>
        <time>2017-01-26T10:22:01Z</time>
      </trkpt>
      <trkpt lat="44.64131" lon="-0.19434">
        <ele>83.77</ele>
        <time>2017-01-26T10:22:14Z</time>
      </trkpt>
      <trkpt lat="44.64125" lon="-0.19434">
        <ele>83.29</ele>
        <time>2017-01-26T10:22:25Z</time>
      </trkpt>
      <trkpt lat="44.64124" lon="-0.19436">
        <ele>83.29</ele>
        <time>2017-01-26T10:22:28Z</time>
      </trkpt>
      <trkpt lat="44.64113" lon="-0.19445">
        <ele>82.81</ele>
        <time>2017-01-26T10:22:42Z</time>
      </trkpt>
      <trkpt lat="44.6411" lon="-0.19446">
        <ele>82.81</ele>
        <time>2017-01-26T10:22:46Z</time>
      </trkpt>
      <trkpt lat="44.64104" lon="-0.1945">
        <ele>82.33</ele>
        <time>2017-01-26T10:22:55Z</time>
      </trkpt>
      <trkpt lat="44.64095" lon="-0.19456">
        <ele>81.37</ele>
        <time>2017-01-26T10:23:06Z</time>
      </trkpt>
      <trkpt lat="44.64082" lon="-0.19465">
        <ele>80.89</ele>
        <time>2017-01-26T10:23:22Z</time>
      </trkpt>
      <trkpt lat="44.64078" lon="-0.19467">
        <ele>80.41</ele>
        <time>2017-01-26T10:23:27Z</time>
      </trkpt>
      <trkpt lat="44.64075" lon="-0.1947">
        <ele>79.93</ele>
        <time>2017-01-26T10:23:32Z</time>
      </trkpt>
      <trkpt lat="44.64064" lon="-0.19479">
        <ele>79.45</ele>
        <time>2017-01-26T10:23:47Z</time>
      </trkpt>
      <trkpt lat="44.64052" lon="-0.19488">
        <ele>78.48</ele>
        <time>2017-01-26T10:24:01Z</time>
      </trkpt>
      <trkpt lat="44.64046" lon="-0.19493">
        <ele>78</ele>
        <time>2017-01-26T10:24:13Z</time>
      </trkpt>
      <trkpt lat="44.64046" lon="-0.19493">
        <ele>78.48</ele>
        <time>2017-01-26T10:24:36Z</time>
      </trkpt>
      <trkpt lat="44.64043" lon="-0.19498">
        <ele>77.52</ele>
        <time>2017-01-26T10:24:50Z</time>
      </trkpt>
      <trkpt lat="44.64043" lon="-0.19498">
        <ele>76.08</ele>
        <time>2017-01-26T10:25:09Z</time>
      </trkpt>
      <trkpt lat="44.64043" lon="-0.19498">
        <ele>79.45</ele>
        <time>2017-01-26T10:25:10Z</time>
      </trkpt>
      <trkpt lat="44.64043" lon="-0.19498">
        <ele>78</ele>
        <time>2017-01-26T10:25:39Z</time>
      </trkpt>
      <trkpt lat="44.64043" lon="-0.19497">
        <ele>70.31</ele>
        <time>2017-01-26T10:25:47Z</time>
      </trkpt>
      <trkpt lat="44.64043" lon="-0.19497">
        <ele>74.64</ele>
        <time>2017-01-26T10:25:51Z</time>
      </trkpt>
      <trkpt lat="44.64043" lon="-0.19497">
        <ele>79.93</ele>
        <time>2017-01-26T10:25:52Z</time>
      </trkpt>
      <trkpt lat="44.64043" lon="-0.19497">
        <ele>76.56</ele>
        <time>2017-01-26T10:25:54Z</time>
      </trkpt>
      <trkpt lat="44.64043" lon="-0.19498">
        <ele>80.89</ele>
        <time>2017-01-26T10:25:55Z</time>
      </trkpt>
      <trkpt lat="44.64043" lon="-0.19498">
        <ele>77.04</ele>
        <time>2017-01-26T10:25:56Z</time>
      </trkpt>
      <trkpt lat="44.64043" lon="-0.19498">
        <ele>80.41</ele>
        <time>2017-01-26T10:26:01Z</time>
      </trkpt>
      <trkpt lat="44.64043" lon="-0.19498">
        <ele>76.08</ele>
        <time>2017-01-26T10:26:10Z</time>
      </trkpt>
      <trkpt lat="44.64043" lon="-0.19498">
        <ele>81.85</ele>
        <time>2017-01-26T10:26:12Z</time>
      </trkpt>
      <trkpt lat="44.64043" lon="-0.19498">
        <ele>80.89</ele>
        <time>2017-01-26T10:26:13Z</time>
      </trkpt>
      <trkpt lat="44.64043" lon="-0.19498">
        <ele>78</ele>
        <time>2017-01-26T10:26:15Z</time>
      </trkpt>
      <trkpt lat="44.64043" lon="-0.19498">
        <ele>81.85</ele>
        <time>2017-01-26T10:26:23Z</time>
      </trkpt>
      <trkpt lat="44.64043" lon="-0.19498">
        <ele>78</ele>
        <time>2017-01-26T10:26:24Z</time>
      </trkpt>
      <trkpt lat="44.64037" lon="-0.19499">
        <ele>78</ele>
        <time>2017-01-26T10:26:42Z</time>
      </trkpt>
      <trkpt lat="44.64032" lon="-0.195">
        <ele>77.52</ele>
        <time>2017-01-26T10:26:48Z</time>
      </trkpt>
      <trkpt lat="44.64028" lon="-0.19503">
        <ele>77.52</ele>
        <time>2017-01-26T10:26:55Z</time>
      </trkpt>
      <trkpt lat="44.64021" lon="-0.19507">
        <ele>78.48</ele>
        <time>2017-01-26T10:27:03Z</time>
      </trkpt>
      <trkpt lat="44.64019" lon="-0.19509">
        <ele>77.52</ele>
        <time>2017-01-26T10:27:06Z</time>
      </trkpt>
      <trkpt lat="44.64014" lon="-0.19515">
        <ele>77.52</ele>
        <time>2017-01-26T10:27:14Z</time>
      </trkpt>
      <trkpt lat="44.64005" lon="-0.19523">
        <ele>76.56</ele>
        <time>2017-01-26T10:27:29Z</time>
      </trkpt>
      <trkpt lat="44.63998" lon="-0.19533">
        <ele>77.04</ele>
        <time>2017-01-26T10:27:45Z</time>
      </trkpt>
      <trkpt lat="44.63985" lon="-0.19545">
        <ele>76.08</ele>
        <time>2017-01-26T10:28:01Z</time>
      </trkpt>
      <trkpt lat="44.63983" lon="-0.1956">
        <ele>75.6</ele>
        <time>2017-01-26T10:28:16Z</time>
      </trkpt>
      <trkpt lat="44.6399" lon="-0.19574">
        <ele>75.6</ele>
        <time>2017-01-26T10:28:29Z</time>
      </trkpt>
      <trkpt lat="44.63998" lon="-0.19593">
        <ele>75.6</ele>
        <time>2017-01-26T10:28:45Z</time>
      </trkpt>
      <trkpt lat="44.64001" lon="-0.19598">
        <ele>76.08</ele>
        <time>2017-01-26T10:28:49Z</time>
      </trkpt>
      <trkpt lat="44.6401" lon="-0.19617">
        <ele>76.08</ele>
        <time>2017-01-26T10:29:06Z</time>
      </trkpt>
      <trkpt lat="44.64017" lon="-0.19637">
        <ele>76.56</ele>
        <time>2017-01-26T10:29:21Z</time>
      </trkpt>
      <trkpt lat="44.64018" lon="-0.19654">
        <ele>76.56</ele>
        <time>2017-01-26T10:29:35Z</time>
      </trkpt>
      <trkpt lat="44.64008" lon="-0.19661">
        <ele>76.08</ele>
        <time>2017-01-26T10:29:49Z</time>
      </trkpt>
      <trkpt lat="44.63993" lon="-0.19671">
        <ele>75.12</ele>
        <time>2017-01-26T10:30:05Z</time>
      </trkpt>
      <trkpt lat="44.63981" lon="-0.1968">
        <ele>74.16</ele>
        <time>2017-01-26T10:30:19Z</time>
      </trkpt>
      <trkpt lat="44.63979" lon="-0.19682">
        <ele>74.16</ele>
        <time>2017-01-26T10:30:22Z</time>
      </trkpt>
      <trkpt lat="44.63962" lon="-0.19693">
        <ele>72.72</ele>
        <time>2017-01-26T10:30:40Z</time>
      </trkpt>
      <trkpt lat="44.63959" lon="-0.19698">
        <ele>72.24</ele>
        <time>2017-01-26T10:30:54Z</time>
      </trkpt>
      <trkpt lat="44.63948" lon="-0.19705">
        <ele>71.27</ele>
        <time>2017-01-26T10:31:08Z</time>
      </trkpt>
      <trkpt lat="44.63945" lon="-0.1971">
        <ele>71.27</ele>
        <time>2017-01-26T10:31:20Z</time>
      </trkpt>
      <trkpt lat="44.63935" lon="-0.19723">
        <ele>70.31</ele>
        <time>2017-01-26T10:31:34Z</time>
      </trkpt>
      <trkpt lat="44.63928" lon="-0.19732">
        <ele>69.83</ele>
        <time>2017-01-26T10:31:43Z</time>
      </trkpt>
      <trkpt lat="44.63916" lon="-0.19742">
        <ele>69.35</ele>
        <time>2017-01-26T10:31:59Z</time>
      </trkpt>
      <trkpt lat="44.63902" lon="-0.19755">
        <ele>68.39</ele>
        <time>2017-01-26T10:32:17Z</time>
      </trkpt>
      <trkpt lat="44.63901" lon="-0.19756">
        <ele>68.39</ele>
        <time>2017-01-26T10:32:19Z</time>
      </trkpt>
      <trkpt lat="44.63891" lon="-0.1975">
        <ele>67.91</ele>
        <time>2017-01-26T10:32:29Z</time>
      </trkpt>
      <trkpt lat="44.6389" lon="-0.19748">
        <ele>67.43</ele>
        <time>2017-01-26T10:32:31Z</time>
      </trkpt>
      <trkpt lat="44.63885" lon="-0.19741">
        <ele>67.91</ele>
        <time>2017-01-26T10:32:40Z</time>
      </trkpt>
      <trkpt lat="44.63884" lon="-0.19736">
        <ele>67.91</ele>
        <time>2017-01-26T10:32:44Z</time>
      </trkpt>
      <trkpt lat="44.63871" lon="-0.19715">
        <ele>67.91</ele>
        <time>2017-01-26T10:33:01Z</time>
      </trkpt>
      <trkpt lat="44.63861" lon="-0.19702">
        <ele>67.43</ele>
        <time>2017-01-26T10:33:13Z</time>
      </trkpt>
      <trkpt lat="44.63852" lon="-0.19688">
        <ele>66.95</ele>
        <time>2017-01-26T10:33:27Z</time>
      </trkpt>
      <trkpt lat="44.63842" lon="-0.1967">
        <ele>67.43</ele>
        <time>2017-01-26T10:33:41Z</time>
      </trkpt>
      <trkpt lat="44.63831" lon="-0.19655">
        <ele>67.91</ele>
        <time>2017-01-26T10:33:56Z</time>
      </trkpt>
      <trkpt lat="44.63815" lon="-0.1964">
        <ele>68.39</ele>
        <time>2017-01-26T10:34:12Z</time>
      </trkpt>
      <trkpt lat="44.63802" lon="-0.19626">
        <ele>68.39</ele>
        <time>2017-01-26T10:34:28Z</time>
      </trkpt>
      <trkpt lat="44.638" lon="-0.19625">
        <ele>68.87</ele>
        <time>2017-01-26T10:34:30Z</time>
      </trkpt>
      <trkpt lat="44.63784" lon="-0.19608">
        <ele>69.35</ele>
        <time>2017-01-26T10:34:49Z</time>
      </trkpt>
      <trkpt lat="44.63785" lon="-0.19607">
        <ele>69.83</ele>
        <time>2017-01-26T10:35:05Z</time>
      </trkpt>
      <trkpt lat="44.63779" lon="-0.19599">
        <ele>69.83</ele>
        <time>2017-01-26T10:35:21Z</time>
      </trkpt>
      <trkpt lat="44.6378" lon="-0.196">
        <ele>70.31</ele>
        <time>2017-01-26T10:35:34Z</time>
      </trkpt>
      <trkpt lat="44.6378" lon="-0.196">
        <ele>69.83</ele>
        <time>2017-01-26T10:35:51Z</time>
      </trkpt>
      <trkpt lat="44.6378" lon="-0.196">
        <ele>70.31</ele>
        <time>2017-01-26T10:36:15Z</time>
      </trkpt>
      <trkpt lat="44.63778" lon="-0.19598">
        <ele>70.31</ele>
        <time>2017-01-26T10:36:35Z</time>
      </trkpt>
      <trkpt lat="44.63774" lon="-0.19592">
        <ele>70.79</ele>
        <time>2017-01-26T10:36:47Z</time>
      </trkpt>
      <trkpt lat="44.63769" lon="-0.19585">
        <ele>70.79</ele>
        <time>2017-01-26T10:37:00Z</time>
      </trkpt>
      <trkpt lat="44.63759" lon="-0.19566">
        <ele>70.79</ele>
        <time>2017-01-26T10:37:13Z</time>
      </trkpt>
      <trkpt lat="44.63758" lon="-0.19565">
        <ele>70.79</ele>
        <time>2017-01-26T10:37:14Z</time>
      </trkpt>
      <trkpt lat="44.63749" lon="-0.19549">
        <ele>70.79</ele>
        <time>2017-01-26T10:37:27Z</time>
      </trkpt>
      <trkpt lat="44.63736" lon="-0.19533">
        <ele>70.79</ele>
        <time>2017-01-26T10:37:42Z</time>
      </trkpt>
      <trkpt lat="44.63721" lon="-0.19515">
        <ele>70.31</ele>
        <time>2017-01-26T10:37:59Z</time>
      </trkpt>
      <trkpt lat="44.63707" lon="-0.19494">
        <ele>69.83</ele>
        <time>2017-01-26T10:38:16Z</time>
      </trkpt>
      <trkpt lat="44.63692" lon="-0.19473">
        <ele>68.39</ele>
        <time>2017-01-26T10:38:33Z</time>
      </trkpt>
      <trkpt lat="44.6368" lon="-0.19455">
        <ele>67.91</ele>
        <time>2017-01-26T10:38:48Z</time>
      </trkpt>
      <trkpt lat="44.63677" lon="-0.19452">
        <ele>67.43</ele>
        <time>2017-01-26T10:38:51Z</time>
      </trkpt>
      <trkpt lat="44.63673" lon="-0.19446">
        <ele>66.95</ele>
        <time>2017-01-26T10:38:56Z</time>
      </trkpt>
      <trkpt lat="44.6367" lon="-0.19445">
        <ele>67.43</ele>
        <time>2017-01-26T10:39:00Z</time>
      </trkpt>
      <trkpt lat="44.63656" lon="-0.19466">
        <ele>66.95</ele>
        <time>2017-01-26T10:39:18Z</time>
      </trkpt>
      <trkpt lat="44.63642" lon="-0.19484">
        <ele>66.47</ele>
        <time>2017-01-26T10:39:34Z</time>
      </trkpt>
      <trkpt lat="44.63627" lon="-0.19502">
        <ele>66.47</ele>
        <time>2017-01-26T10:39:51Z</time>
      </trkpt>
      <trkpt lat="44.63611" lon="-0.19523">
        <ele>65.99</ele>
        <time>2017-01-26T10:40:08Z</time>
      </trkpt>
      <trkpt lat="44.63597" lon="-0.19541">
        <ele>65.99</ele>
        <time>2017-01-26T10:40:24Z</time>
      </trkpt>
      <trkpt lat="44.63583" lon="-0.19559">
        <ele>65.51</ele>
        <time>2017-01-26T10:40:41Z</time>
      </trkpt>
      <trkpt lat="44.63567" lon="-0.1958">
        <ele>65.03</ele>
        <time>2017-01-26T10:40:58Z</time>
      </trkpt>
      <trkpt lat="44.63552" lon="-0.19601">
        <ele>64.07</ele>
        <time>2017-01-26T10:41:16Z</time>
      </trkpt>
      <trkpt lat="44.63537" lon="-0.19621">
        <ele>63.58</ele>
        <time>2017-01-26T10:41:32Z</time>
      </trkpt>
      <trkpt lat="44.63514" lon="-0.19641">
        <ele>63.1</ele>
        <time>2017-01-26T10:41:53Z</time>
      </trkpt>
      <trkpt lat="44.63498" lon="-0.19652">
        <ele>62.14</ele>
        <time>2017-01-26T10:42:09Z</time>
      </trkpt>
      <trkpt lat="44.63484" lon="-0.1967">
        <ele>61.18</ele>
        <time>2017-01-26T10:42:25Z</time>
      </trkpt>
      <trkpt lat="44.63483" lon="-0.19696">
        <ele>61.18</ele>
        <time>2017-01-26T10:42:41Z</time>
      </trkpt>
      <trkpt lat="44.63484" lon="-0.19697">
        <ele>60.7</ele>
        <time>2017-01-26T10:42:48Z</time>
      </trkpt>
      <trkpt lat="44.63484" lon="-0.19668">
        <ele>60.7</ele>
        <time>2017-01-26T10:43:05Z</time>
      </trkpt>
      <trkpt lat="44.63479" lon="-0.19642">
        <ele>60.22</ele>
        <time>2017-01-26T10:43:20Z</time>
      </trkpt>
      <trkpt lat="44.63466" lon="-0.19611">
        <ele>58.78</ele>
        <time>2017-01-26T10:43:40Z</time>
      </trkpt>
      <trkpt lat="44.63455" lon="-0.19585">
        <ele>56.86</ele>
        <time>2017-01-26T10:43:57Z</time>
      </trkpt>
      <trkpt lat="44.63443" lon="-0.19561">
        <ele>55.89</ele>
        <time>2017-01-26T10:44:15Z</time>
      </trkpt>
      <trkpt lat="44.63432" lon="-0.19535">
        <ele>53.97</ele>
        <time>2017-01-26T10:44:32Z</time>
      </trkpt>
      <trkpt lat="44.63421" lon="-0.19511">
        <ele>53.49</ele>
        <time>2017-01-26T10:44:49Z</time>
      </trkpt>
      <trkpt lat="44.63413" lon="-0.19489">
        <ele>52.53</ele>
        <time>2017-01-26T10:45:05Z</time>
      </trkpt>
      <trkpt lat="44.63411" lon="-0.19482">
        <ele>52.53</ele>
        <time>2017-01-26T10:45:09Z</time>
      </trkpt>
      <trkpt lat="44.63402" lon="-0.19457">
        <ele>52.53</ele>
        <time>2017-01-26T10:45:24Z</time>
      </trkpt>
      <trkpt lat="44.63401" lon="-0.19447">
        <ele>52.53</ele>
        <time>2017-01-26T10:45:36Z</time>
      </trkpt>
      <trkpt lat="44.63394" lon="-0.19428">
        <ele>53.97</ele>
        <time>2017-01-26T10:45:48Z</time>
      </trkpt>
      <trkpt lat="44.63393" lon="-0.19423">
        <ele>53.97</ele>
        <time>2017-01-26T10:45:51Z</time>
      </trkpt>
      <trkpt lat="44.63392" lon="-0.1942">
        <ele>54.45</ele>
        <time>2017-01-26T10:45:53Z</time>
      </trkpt>
      <trkpt lat="44.6339" lon="-0.19411">
        <ele>54.93</ele>
        <time>2017-01-26T10:45:58Z</time>
      </trkpt>
      <trkpt lat="44.63382" lon="-0.19389">
        <ele>57.82</ele>
        <time>2017-01-26T10:46:14Z</time>
      </trkpt>
      <trkpt lat="44.63381" lon="-0.19386">
        <ele>57.82</ele>
        <time>2017-01-26T10:46:16Z</time>
      </trkpt>
      <trkpt lat="44.63379" lon="-0.19378">
        <ele>58.78</ele>
        <time>2017-01-26T10:46:20Z</time>
      </trkpt>
      <trkpt lat="44.63372" lon="-0.19352">
        <ele>61.66</ele>
        <time>2017-01-26T10:46:38Z</time>
      </trkpt>
      <trkpt lat="44.63369" lon="-0.19339">
        <ele>65.03</ele>
        <time>2017-01-26T10:46:51Z</time>
      </trkpt>
      <trkpt lat="44.63367" lon="-0.19333">
        <ele>63.58</ele>
        <time>2017-01-26T10:47:04Z</time>
      </trkpt>
      <trkpt lat="44.63365" lon="-0.19327">
        <ele>66.95</ele>
        <time>2017-01-26T10:47:11Z</time>
      </trkpt>
      <trkpt lat="44.63365" lon="-0.19325">
        <ele>64.07</ele>
        <time>2017-01-26T10:47:12Z</time>
      </trkpt>
      <trkpt lat="44.63358" lon="-0.19319">
        <ele>65.03</ele>
        <time>2017-01-26T10:47:21Z</time>
      </trkpt>
      <trkpt lat="44.63342" lon="-0.19333">
        <ele>66.47</ele>
        <time>2017-01-26T10:47:37Z</time>
      </trkpt>
      <trkpt lat="44.63328" lon="-0.19348">
        <ele>66.95</ele>
        <time>2017-01-26T10:47:49Z</time>
      </trkpt>
      <trkpt lat="44.63317" lon="-0.19357">
        <ele>72.24</ele>
        <time>2017-01-26T10:48:02Z</time>
      </trkpt>
      <trkpt lat="44.63317" lon="-0.19357">
        <ele>67.43</ele>
        <time>2017-01-26T10:48:03Z</time>
      </trkpt>
      <trkpt lat="44.63316" lon="-0.19357">
        <ele>71.76</ele>
        <time>2017-01-26T10:48:08Z</time>
      </trkpt>
      <trkpt lat="44.63316" lon="-0.19358">
        <ele>67.91</ele>
        <time>2017-01-26T10:48:09Z</time>
      </trkpt>
      <trkpt lat="44.63315" lon="-0.19358">
        <ele>71.76</ele>
        <time>2017-01-26T10:48:24Z</time>
      </trkpt>
      <trkpt lat="44.63315" lon="-0.19358">
        <ele>68.39</ele>
        <time>2017-01-26T10:48:25Z</time>
      </trkpt>
      <trkpt lat="44.63315" lon="-0.19358">
        <ele>65.03</ele>
        <time>2017-01-26T10:48:26Z</time>
      </trkpt>
      <trkpt lat="44.63315" lon="-0.19358">
        <ele>65.51</ele>
        <time>2017-01-26T10:48:27Z</time>
      </trkpt>
      <trkpt lat="44.63315" lon="-0.19358">
        <ele>71.76</ele>
        <time>2017-01-26T10:48:28Z</time>
      </trkpt>
      <trkpt lat="44.63315" lon="-0.19358">
        <ele>67.91</ele>
        <time>2017-01-26T10:48:29Z</time>
      </trkpt>
      <trkpt lat="44.63317" lon="-0.19357">
        <ele>67.91</ele>
        <time>2017-01-26T10:48:38Z</time>
      </trkpt>
      <trkpt lat="44.63335" lon="-0.1934">
        <ele>66.47</ele>
        <time>2017-01-26T10:48:54Z</time>
      </trkpt>
      <trkpt lat="44.63349" lon="-0.19326">
        <ele>66.47</ele>
        <time>2017-01-26T10:49:07Z</time>
      </trkpt>
      <trkpt lat="44.63362" lon="-0.19308">
        <ele>65.51</ele>
        <time>2017-01-26T10:49:21Z</time>
      </trkpt>
      <trkpt lat="44.63359" lon="-0.19285">
        <ele>65.51</ele>
        <time>2017-01-26T10:49:35Z</time>
      </trkpt>
      <trkpt lat="44.63352" lon="-0.19262">
        <ele>65.03</ele>
        <time>2017-01-26T10:49:50Z</time>
      </trkpt>
      <trkpt lat="44.63351" lon="-0.19245">
        <ele>64.07</ele>
        <time>2017-01-26T10:50:01Z</time>
      </trkpt>
      <trkpt lat="44.63347" lon="-0.19223">
        <ele>63.1</ele>
        <time>2017-01-26T10:50:12Z</time>
      </trkpt>
      <trkpt lat="44.63344" lon="-0.19198">
        <ele>62.14</ele>
        <time>2017-01-26T10:50:24Z</time>
      </trkpt>
      <trkpt lat="44.63342" lon="-0.19171">
        <ele>60.7</ele>
        <time>2017-01-26T10:50:36Z</time>
      </trkpt>
      <trkpt lat="44.63341" lon="-0.19164">
        <ele>60.22</ele>
        <time>2017-01-26T10:50:40Z</time>
      </trkpt>
      <trkpt lat="44.6334" lon="-0.19139">
        <ele>59.74</ele>
        <time>2017-01-26T10:50:53Z</time>
      </trkpt>
      <trkpt lat="44.6334" lon="-0.19137">
        <ele>59.74</ele>
        <time>2017-01-26T10:50:54Z</time>
      </trkpt>
      <trkpt lat="44.63341" lon="-0.1913">
        <ele>59.74</ele>
        <time>2017-01-26T10:50:58Z</time>
      </trkpt>
      <trkpt lat="44.6336" lon="-0.19101">
        <ele>59.26</ele>
        <time>2017-01-26T10:51:18Z</time>
      </trkpt>
      <trkpt lat="44.63364" lon="-0.19097">
        <ele>58.78</ele>
        <time>2017-01-26T10:51:22Z</time>
      </trkpt>
      <trkpt lat="44.6338" lon="-0.19079">
        <ele>59.74</ele>
        <time>2017-01-26T10:51:39Z</time>
      </trkpt>
      <trkpt lat="44.63394" lon="-0.19062">
        <ele>59.74</ele>
        <time>2017-01-26T10:51:54Z</time>
      </trkpt>
      <trkpt lat="44.63411" lon="-0.19037">
        <ele>60.7</ele>
        <time>2017-01-26T10:52:14Z</time>
      </trkpt>
      <trkpt lat="44.6343" lon="-0.19013">
        <ele>60.7</ele>
        <time>2017-01-26T10:52:31Z</time>
      </trkpt>
      <trkpt lat="44.63438" lon="-0.18991">
        <ele>61.18</ele>
        <time>2017-01-26T10:52:44Z</time>
      </trkpt>
      <trkpt lat="44.63438" lon="-0.18967">
        <ele>62.14</ele>
        <time>2017-01-26T10:52:58Z</time>
      </trkpt>
      <trkpt lat="44.63428" lon="-0.18941">
        <ele>62.62</ele>
        <time>2017-01-26T10:53:16Z</time>
      </trkpt>
      <trkpt lat="44.63417" lon="-0.18913">
        <ele>63.58</ele>
        <time>2017-01-26T10:53:32Z</time>
      </trkpt>
      <trkpt lat="44.63415" lon="-0.1889">
        <ele>65.03</ele>
        <time>2017-01-26T10:53:45Z</time>
      </trkpt>
      <trkpt lat="44.63415" lon="-0.18888">
        <ele>65.03</ele>
        <time>2017-01-26T10:53:46Z</time>
      </trkpt>
      <trkpt lat="44.63419" lon="-0.18859">
        <ele>65.03</ele>
        <time>2017-01-26T10:54:03Z</time>
      </trkpt>
      <trkpt lat="44.63425" lon="-0.18832">
        <ele>68.87</ele>
        <time>2017-01-26T10:54:19Z</time>
      </trkpt>
      <trkpt lat="44.63425" lon="-0.18828">
        <ele>65.99</ele>
        <time>2017-01-26T10:54:21Z</time>
      </trkpt>
      <trkpt lat="44.63426" lon="-0.18817">
        <ele>65.99</ele>
        <time>2017-01-26T10:54:27Z</time>
      </trkpt>
      <trkpt lat="44.63427" lon="-0.18799">
        <ele>66.47</ele>
        <time>2017-01-26T10:54:41Z</time>
      </trkpt>
      <trkpt lat="44.63427" lon="-0.18799">
        <ele>66.47</ele>
        <time>2017-01-26T10:55:03Z</time>
      </trkpt>
      <trkpt lat="44.63428" lon="-0.18799">
        <ele>66.47</ele>
        <time>2017-01-26T10:55:22Z</time>
      </trkpt>
      <trkpt lat="44.63428" lon="-0.18799">
        <ele>66.47</ele>
        <time>2017-01-26T10:55:30Z</time>
      </trkpt>
      <trkpt lat="44.63428" lon="-0.18794">
        <ele>65.99</ele>
        <time>2017-01-26T10:55:34Z</time>
      </trkpt>
      <trkpt lat="44.63433" lon="-0.18767">
        <ele>66.47</ele>
        <time>2017-01-26T10:55:52Z</time>
      </trkpt>
      <trkpt lat="44.63438" lon="-0.18737">
        <ele>66.47</ele>
        <time>2017-01-26T10:56:10Z</time>
      </trkpt>
      <trkpt lat="44.63439" lon="-0.18724">
        <ele>66.95</ele>
        <time>2017-01-26T10:56:17Z</time>
      </trkpt>
      <trkpt lat="44.63439" lon="-0.1871">
        <ele>67.43</ele>
        <time>2017-01-26T10:56:25Z</time>
      </trkpt>
      <trkpt lat="44.63439" lon="-0.18682">
        <ele>65.99</ele>
        <time>2017-01-26T10:56:41Z</time>
      </trkpt>
      <trkpt lat="44.6344" lon="-0.18649">
        <ele>66.47</ele>
        <time>2017-01-26T10:56:59Z</time>
      </trkpt>
      <trkpt lat="44.63441" lon="-0.18615">
        <ele>67.43</ele>
        <time>2017-01-26T10:57:17Z</time>
      </trkpt>
      <trkpt lat="44.63442" lon="-0.18605">
        <ele>66.95</ele>
        <time>2017-01-26T10:57:23Z</time>
      </trkpt>
      <trkpt lat="44.63442" lon="-0.18577">
        <ele>66.95</ele>
        <time>2017-01-26T10:57:38Z</time>
      </trkpt>
      <trkpt lat="44.63443" lon="-0.1855">
        <ele>67.43</ele>
        <time>2017-01-26T10:57:53Z</time>
      </trkpt>
      <trkpt lat="44.63443" lon="-0.18549">
        <ele>66.95</ele>
        <time>2017-01-26T10:57:54Z</time>
      </trkpt>
      <trkpt lat="44.63443" lon="-0.18516">
        <ele>66.95</ele>
        <time>2017-01-26T10:58:12Z</time>
      </trkpt>
      <trkpt lat="44.63445" lon="-0.18486">
        <ele>67.91</ele>
        <time>2017-01-26T10:58:29Z</time>
      </trkpt>
      <trkpt lat="44.63445" lon="-0.18457">
        <ele>67.91</ele>
        <time>2017-01-26T10:58:46Z</time>
      </trkpt>
      <trkpt lat="44.63447" lon="-0.18427">
        <ele>68.39</ele>
        <time>2017-01-26T10:59:03Z</time>
      </trkpt>
      <trkpt lat="44.63451" lon="-0.18401">
        <ele>68.87</ele>
        <time>2017-01-26T10:59:18Z</time>
      </trkpt>
      <trkpt lat="44.63458" lon="-0.1839">
        <ele>69.35</ele>
        <time>2017-01-26T10:59:27Z</time>
      </trkpt>
      <trkpt lat="44.63464" lon="-0.18377">
        <ele>69.35</ele>
        <time>2017-01-26T10:59:36Z</time>
      </trkpt>
      <trkpt lat="44.63468" lon="-0.18371">
        <ele>69.35</ele>
        <time>2017-01-26T10:59:40Z</time>
      </trkpt>
      <trkpt lat="44.63482" lon="-0.18352">
        <ele>69.35</ele>
        <time>2017-01-26T10:59:55Z</time>
      </trkpt>
      <trkpt lat="44.63495" lon="-0.18332">
        <ele>69.83</ele>
        <time>2017-01-26T11:00:10Z</time>
      </trkpt>
      <trkpt lat="44.63507" lon="-0.18312">
        <ele>69.83</ele>
        <time>2017-01-26T11:00:24Z</time>
      </trkpt>
      <trkpt lat="44.63519" lon="-0.18284">
        <ele>69.83</ele>
        <time>2017-01-26T11:00:42Z</time>
      </trkpt>
      <trkpt lat="44.63531" lon="-0.1826">
        <ele>70.79</ele>
        <time>2017-01-26T11:00:58Z</time>
      </trkpt>
      <trkpt lat="44.63541" lon="-0.18239">
        <ele>71.27</ele>
        <time>2017-01-26T11:01:12Z</time>
      </trkpt>
      <trkpt lat="44.63556" lon="-0.18221">
        <ele>71.76</ele>
        <time>2017-01-26T11:01:28Z</time>
      </trkpt>
      <trkpt lat="44.63576" lon="-0.18205">
        <ele>72.24</ele>
        <time>2017-01-26T11:01:47Z</time>
      </trkpt>
      <trkpt lat="44.63591" lon="-0.18197">
        <ele>72.72</ele>
        <time>2017-01-26T11:02:00Z</time>
      </trkpt>
      <trkpt lat="44.63605" lon="-0.18188">
        <ele>73.2</ele>
        <time>2017-01-26T11:02:14Z</time>
      </trkpt>
      <trkpt lat="44.63618" lon="-0.18182">
        <ele>74.16</ele>
        <time>2017-01-26T11:02:25Z</time>
      </trkpt>
      <trkpt lat="44.63632" lon="-0.18177">
        <ele>74.16</ele>
        <time>2017-01-26T11:02:38Z</time>
      </trkpt>
      <trkpt lat="44.63636" lon="-0.18176">
        <ele>74.64</ele>
        <time>2017-01-26T11:02:41Z</time>
      </trkpt>
      <trkpt lat="44.63648" lon="-0.18168">
        <ele>75.12</ele>
        <time>2017-01-26T11:02:51Z</time>
      </trkpt>
      <trkpt lat="44.63663" lon="-0.18157">
        <ele>74.16</ele>
        <time>2017-01-26T11:03:04Z</time>
      </trkpt>
      <trkpt lat="44.63672" lon="-0.18143">
        <ele>75.12</ele>
        <time>2017-01-26T11:03:15Z</time>
      </trkpt>
      <trkpt lat="44.63676" lon="-0.18121">
        <ele>74.16</ele>
        <time>2017-01-26T11:03:28Z</time>
      </trkpt>
      <trkpt lat="44.63678" lon="-0.18117">
        <ele>75.12</ele>
        <time>2017-01-26T11:03:30Z</time>
      </trkpt>
      <trkpt lat="44.63679" lon="-0.18095">
        <ele>74.64</ele>
        <time>2017-01-26T11:03:44Z</time>
      </trkpt>
      <trkpt lat="44.6368" lon="-0.1809">
        <ele>74.16</ele>
        <time>2017-01-26T11:03:48Z</time>
      </trkpt>
      <trkpt lat="44.63678" lon="-0.18076">
        <ele>73.68</ele>
        <time>2017-01-26T11:03:56Z</time>
      </trkpt>
      <trkpt lat="44.63678" lon="-0.1807">
        <ele>73.2</ele>
        <time>2017-01-26T11:03:59Z</time>
      </trkpt>
      <trkpt lat="44.63678" lon="-0.18057">
        <ele>75.6</ele>
        <time>2017-01-26T11:04:07Z</time>
      </trkpt>
      <trkpt lat="44.63677" lon="-0.1804">
        <ele>75.12</ele>
        <time>2017-01-26T11:04:16Z</time>
      </trkpt>
      <trkpt lat="44.63677" lon="-0.18033">
        <ele>74.16</ele>
        <time>2017-01-26T11:04:20Z</time>
      </trkpt>
      <trkpt lat="44.63679" lon="-0.18026">
        <ele>75.6</ele>
        <time>2017-01-26T11:04:24Z</time>
      </trkpt>
      <trkpt lat="44.63679" lon="-0.18024">
        <ele>75.6</ele>
        <time>2017-01-26T11:04:25Z</time>
      </trkpt>
      <trkpt lat="44.63679" lon="-0.18016">
        <ele>75.12</ele>
        <time>2017-01-26T11:04:30Z</time>
      </trkpt>
      <trkpt lat="44.63679" lon="-0.18009">
        <ele>76.08</ele>
        <time>2017-01-26T11:04:34Z</time>
      </trkpt>
      <trkpt lat="44.63677" lon="-0.1799">
        <ele>75.6</ele>
        <time>2017-01-26T11:04:46Z</time>
      </trkpt>
      <trkpt lat="44.63677" lon="-0.17989">
        <ele>75.6</ele>
        <time>2017-01-26T11:04:47Z</time>
      </trkpt>
      <trkpt lat="44.63675" lon="-0.17975">
        <ele>77.52</ele>
        <time>2017-01-26T11:04:55Z</time>
      </trkpt>
      <trkpt lat="44.63676" lon="-0.17969">
        <ele>76.56</ele>
        <time>2017-01-26T11:04:59Z</time>
      </trkpt>
      <trkpt lat="44.63674" lon="-0.17961">
        <ele>75.6</ele>
        <time>2017-01-26T11:05:04Z</time>
      </trkpt>
      <trkpt lat="44.63674" lon="-0.17942">
        <ele>77.04</ele>
        <time>2017-01-26T11:05:14Z</time>
      </trkpt>
      <trkpt lat="44.63673" lon="-0.17913">
        <ele>76.56</ele>
        <time>2017-01-26T11:05:31Z</time>
      </trkpt>
      <trkpt lat="44.63674" lon="-0.17911">
        <ele>77.52</ele>
        <time>2017-01-26T11:05:33Z</time>
      </trkpt>
      <trkpt lat="44.63674" lon="-0.17897">
        <ele>76.56</ele>
        <time>2017-01-26T11:05:42Z</time>
      </trkpt>
      <trkpt lat="44.63673" lon="-0.1789">
        <ele>77.52</ele>
        <time>2017-01-26T11:05:46Z</time>
      </trkpt>
      <trkpt lat="44.63669" lon="-0.17868">
        <ele>77.52</ele>
        <time>2017-01-26T11:05:58Z</time>
      </trkpt>
      <trkpt lat="44.63667" lon="-0.17846">
        <ele>76.56</ele>
        <time>2017-01-26T11:06:11Z</time>
      </trkpt>
      <trkpt lat="44.63667" lon="-0.17841">
        <ele>77.04</ele>
        <time>2017-01-26T11:06:14Z</time>
      </trkpt>
      <trkpt lat="44.63664" lon="-0.17818">
        <ele>77.04</ele>
        <time>2017-01-26T11:06:28Z</time>
      </trkpt>
      <trkpt lat="44.63663" lon="-0.17798">
        <ele>77.04</ele>
        <time>2017-01-26T11:06:41Z</time>
      </trkpt>
      <trkpt lat="44.63668" lon="-0.17768">
        <ele>78</ele>
        <time>2017-01-26T11:06:57Z</time>
      </trkpt>
      <trkpt lat="44.63672" lon="-0.17739">
        <ele>78</ele>
        <time>2017-01-26T11:07:14Z</time>
      </trkpt>
      <trkpt lat="44.63673" lon="-0.17729">
        <ele>78</ele>
        <time>2017-01-26T11:07:20Z</time>
      </trkpt>
      <trkpt lat="44.63677" lon="-0.17701">
        <ele>78.48</ele>
        <time>2017-01-26T11:07:36Z</time>
      </trkpt>
      <trkpt lat="44.63682" lon="-0.17673">
        <ele>78.97</ele>
        <time>2017-01-26T11:07:52Z</time>
      </trkpt>
      <trkpt lat="44.63683" lon="-0.17668">
        <ele>78.97</ele>
        <time>2017-01-26T11:07:55Z</time>
      </trkpt>
      <trkpt lat="44.63683" lon="-0.1766">
        <ele>79.45</ele>
        <time>2017-01-26T11:08:01Z</time>
      </trkpt>
      <trkpt lat="44.6369" lon="-0.17639">
        <ele>79.93</ele>
        <time>2017-01-26T11:08:16Z</time>
      </trkpt>
      <trkpt lat="44.63697" lon="-0.17621">
        <ele>80.89</ele>
        <time>2017-01-26T11:08:31Z</time>
      </trkpt>
      <trkpt lat="44.63696" lon="-0.17619">
        <ele>80.41</ele>
        <time>2017-01-26T11:08:48Z</time>
      </trkpt>
      <trkpt lat="44.63695" lon="-0.17616">
        <ele>80.41</ele>
        <time>2017-01-26T11:09:08Z</time>
      </trkpt>
      <trkpt lat="44.63691" lon="-0.17609">
        <ele>79.93</ele>
        <time>2017-01-26T11:09:23Z</time>
      </trkpt>
      <trkpt lat="44.63691" lon="-0.17609">
        <ele>80.41</ele>
        <time>2017-01-26T11:09:39Z</time>
      </trkpt>
      <trkpt lat="44.637" lon="-0.17607">
        <ele>80.89</ele>
        <time>2017-01-26T11:09:50Z</time>
      </trkpt>
      <trkpt lat="44.63705" lon="-0.17605">
        <ele>81.85</ele>
        <time>2017-01-26T11:10:05Z</time>
      </trkpt>
      <trkpt lat="44.63712" lon="-0.176">
        <ele>81.85</ele>
        <time>2017-01-26T11:10:16Z</time>
      </trkpt>
      <trkpt lat="44.63731" lon="-0.17594">
        <ele>83.77</ele>
        <time>2017-01-26T11:10:33Z</time>
      </trkpt>
      <trkpt lat="44.63741" lon="-0.17591">
        <ele>83.77</ele>
        <time>2017-01-26T11:10:44Z</time>
      </trkpt>
      <trkpt lat="44.63752" lon="-0.1759">
        <ele>84.73</ele>
        <time>2017-01-26T11:10:54Z</time>
      </trkpt>
      <trkpt lat="44.63756" lon="-0.17589">
        <ele>84.73</ele>
        <time>2017-01-26T11:10:58Z</time>
      </trkpt>
      <trkpt lat="44.63775" lon="-0.17577">
        <ele>85.21</ele>
        <time>2017-01-26T11:11:15Z</time>
      </trkpt>
      <trkpt lat="44.63778" lon="-0.17577">
        <ele>85.21</ele>
        <time>2017-01-26T11:11:20Z</time>
      </trkpt>
      <trkpt lat="44.63788" lon="-0.1758">
        <ele>84.25</ele>
        <time>2017-01-26T11:11:34Z</time>
      </trkpt>
      <trkpt lat="44.63793" lon="-0.17582">
        <ele>84.25</ele>
        <time>2017-01-26T11:11:47Z</time>
      </trkpt>
      <trkpt lat="44.63792" lon="-0.17582">
        <ele>84.25</ele>
        <time>2017-01-26T11:12:02Z</time>
      </trkpt>
      <trkpt lat="44.63785" lon="-0.17576">
        <ele>84.73</ele>
        <time>2017-01-26T11:12:15Z</time>
      </trkpt>
      <trkpt lat="44.63783" lon="-0.17566">
        <ele>84.73</ele>
        <time>2017-01-26T11:12:23Z</time>
      </trkpt>
      <trkpt lat="44.63783" lon="-0.17554">
        <ele>83.77</ele>
        <time>2017-01-26T11:12:28Z</time>
      </trkpt>
      <trkpt lat="44.6378" lon="-0.17541">
        <ele>83.29</ele>
        <time>2017-01-26T11:12:35Z</time>
      </trkpt>
      <trkpt lat="44.63775" lon="-0.17523">
        <ele>83.77</ele>
        <time>2017-01-26T11:12:44Z</time>
      </trkpt>
      <trkpt lat="44.63766" lon="-0.17496">
        <ele>83.29</ele>
        <time>2017-01-26T11:13:01Z</time>
      </trkpt>
      <trkpt lat="44.63757" lon="-0.17477">
        <ele>83.77</ele>
        <time>2017-01-26T11:13:15Z</time>
      </trkpt>
      <trkpt lat="44.63755" lon="-0.17467">
        <ele>83.29</ele>
        <time>2017-01-26T11:13:21Z</time>
      </trkpt>
      <trkpt lat="44.63748" lon="-0.17462">
        <ele>82.33</ele>
        <time>2017-01-26T11:13:29Z</time>
      </trkpt>
      <trkpt lat="44.63741" lon="-0.17448">
        <ele>82.81</ele>
        <time>2017-01-26T11:13:41Z</time>
      </trkpt>
      <trkpt lat="44.63736" lon="-0.17445">
        <ele>82.33</ele>
        <time>2017-01-26T11:13:50Z</time>
      </trkpt>
      <trkpt lat="44.63734" lon="-0.17441">
        <ele>81.85</ele>
        <time>2017-01-26T11:13:56Z</time>
      </trkpt>
      <trkpt lat="44.63732" lon="-0.17439">
        <ele>81.37</ele>
        <time>2017-01-26T11:13:58Z</time>
      </trkpt>
      <trkpt lat="44.63724" lon="-0.17437">
        <ele>81.85</ele>
        <time>2017-01-26T11:14:08Z</time>
      </trkpt>
      <trkpt lat="44.63716" lon="-0.17436">
        <ele>81.85</ele>
        <time>2017-01-26T11:14:21Z</time>
      </trkpt>
      <trkpt lat="44.63715" lon="-0.17436">
        <ele>81.37</ele>
        <time>2017-01-26T11:14:37Z</time>
      </trkpt>
      <trkpt lat="44.63714" lon="-0.17436">
        <ele>81.85</ele>
        <time>2017-01-26T11:14:50Z</time>
      </trkpt>
      <trkpt lat="44.63713" lon="-0.17436">
        <ele>81.37</ele>
        <time>2017-01-26T11:15:09Z</time>
      </trkpt>
      <trkpt lat="44.63714" lon="-0.17436">
        <ele>93.87</ele>
        <time>2017-01-26T11:56:11Z</time>
      </trkpt>
      <trkpt lat="44.63717" lon="-0.17437">
        <ele>92.9</ele>
        <time>2017-01-26T11:56:25Z</time>
      </trkpt>
      <trkpt lat="44.63717" lon="-0.17436">
        <ele>89.54</ele>
        <time>2017-01-26T11:56:31Z</time>
      </trkpt>
      <trkpt lat="44.63717" lon="-0.17436">
        <ele>86.18</ele>
        <time>2017-01-26T11:56:35Z</time>
      </trkpt>
      <trkpt lat="44.63716" lon="-0.17436">
        <ele>83.29</ele>
        <time>2017-01-26T11:56:40Z</time>
      </trkpt>
      <trkpt lat="44.63717" lon="-0.17436">
        <ele>81.85</ele>
        <time>2017-01-26T11:56:43Z</time>
      </trkpt>
      <trkpt lat="44.63716" lon="-0.17439">
        <ele>78.97</ele>
        <time>2017-01-26T11:56:49Z</time>
      </trkpt>
      <trkpt lat="44.63717" lon="-0.17438">
        <ele>75.6</ele>
        <time>2017-01-26T11:57:00Z</time>
      </trkpt>
      <trkpt lat="44.63715" lon="-0.17438">
        <ele>74.16</ele>
        <time>2017-01-26T11:57:15Z</time>
      </trkpt>
      <trkpt lat="44.63715" lon="-0.17436">
        <ele>74.16</ele>
        <time>2017-01-26T11:57:42Z</time>
      </trkpt>
      <trkpt lat="44.63719" lon="-0.17435">
        <ele>73.68</ele>
        <time>2017-01-26T11:57:54Z</time>
      </trkpt>
      <trkpt lat="44.63723" lon="-0.17436">
        <ele>73.68</ele>
        <time>2017-01-26T11:58:09Z</time>
      </trkpt>
      <trkpt lat="44.6373" lon="-0.17437">
        <ele>74.16</ele>
        <time>2017-01-26T11:58:19Z</time>
      </trkpt>
      <trkpt lat="44.63733" lon="-0.17438">
        <ele>73.68</ele>
        <time>2017-01-26T11:58:21Z</time>
      </trkpt>
      <trkpt lat="44.63741" lon="-0.17439">
        <ele>74.16</ele>
        <time>2017-01-26T11:58:28Z</time>
      </trkpt>
      <trkpt lat="44.63754" lon="-0.1744">
        <ele>75.6</ele>
        <time>2017-01-26T11:58:41Z</time>
      </trkpt>
      <trkpt lat="44.63757" lon="-0.17437">
        <ele>76.08</ele>
        <time>2017-01-26T11:58:54Z</time>
      </trkpt>
      <trkpt lat="44.63757" lon="-0.17433">
        <ele>75.6</ele>
        <time>2017-01-26T11:59:08Z</time>
      </trkpt>
      <trkpt lat="44.63758" lon="-0.17429">
        <ele>74.64</ele>
        <time>2017-01-26T11:59:16Z</time>
      </trkpt>
      <trkpt lat="44.63766" lon="-0.17404">
        <ele>76.08</ele>
        <time>2017-01-26T11:59:33Z</time>
      </trkpt>
      <trkpt lat="44.63767" lon="-0.17398">
        <ele>76.08</ele>
        <time>2017-01-26T11:59:49Z</time>
      </trkpt>
      <trkpt lat="44.63768" lon="-0.17397">
        <ele>76.08</ele>
        <time>2017-01-26T11:59:53Z</time>
      </trkpt>
      <trkpt lat="44.63769" lon="-0.17393">
        <ele>76.08</ele>
        <time>2017-01-26T11:59:56Z</time>
      </trkpt>
      <trkpt lat="44.63774" lon="-0.17379">
        <ele>77.52</ele>
        <time>2017-01-26T12:00:05Z</time>
      </trkpt>
      <trkpt lat="44.63778" lon="-0.17367">
        <ele>76.56</ele>
        <time>2017-01-26T12:00:13Z</time>
      </trkpt>
      <trkpt lat="44.63784" lon="-0.17341">
        <ele>76.56</ele>
        <time>2017-01-26T12:00:29Z</time>
      </trkpt>
      <trkpt lat="44.63793" lon="-0.17319">
        <ele>77.52</ele>
        <time>2017-01-26T12:00:43Z</time>
      </trkpt>
      <trkpt lat="44.63795" lon="-0.17307">
        <ele>77.04</ele>
        <time>2017-01-26T12:00:53Z</time>
      </trkpt>
      <trkpt lat="44.63798" lon="-0.17293">
        <ele>77.04</ele>
        <time>2017-01-26T12:01:02Z</time>
      </trkpt>
      <trkpt lat="44.63799" lon="-0.1729">
        <ele>77.04</ele>
        <time>2017-01-26T12:01:04Z</time>
      </trkpt>
      <trkpt lat="44.63808" lon="-0.17265">
        <ele>77.52</ele>
        <time>2017-01-26T12:01:19Z</time>
      </trkpt>
      <trkpt lat="44.6381" lon="-0.17247">
        <ele>77.04</ele>
        <time>2017-01-26T12:01:30Z</time>
      </trkpt>
      <trkpt lat="44.63816" lon="-0.17229">
        <ele>77.52</ele>
        <time>2017-01-26T12:01:41Z</time>
      </trkpt>
      <trkpt lat="44.63823" lon="-0.17206">
        <ele>77.04</ele>
        <time>2017-01-26T12:01:55Z</time>
      </trkpt>
      <trkpt lat="44.63829" lon="-0.1718">
        <ele>78</ele>
        <time>2017-01-26T12:02:09Z</time>
      </trkpt>
      <trkpt lat="44.6383" lon="-0.17177">
        <ele>77.52</ele>
        <time>2017-01-26T12:02:11Z</time>
      </trkpt>
      <trkpt lat="44.63833" lon="-0.17169">
        <ele>78</ele>
        <time>2017-01-26T12:02:16Z</time>
      </trkpt>
      <trkpt lat="44.63837" lon="-0.17152">
        <ele>77.04</ele>
        <time>2017-01-26T12:02:26Z</time>
      </trkpt>
      <trkpt lat="44.63837" lon="-0.17146">
        <ele>78</ele>
        <time>2017-01-26T12:02:29Z</time>
      </trkpt>
      <trkpt lat="44.63838" lon="-0.17138">
        <ele>77.52</ele>
        <time>2017-01-26T12:02:33Z</time>
      </trkpt>
      <trkpt lat="44.6384" lon="-0.1713">
        <ele>78.97</ele>
        <time>2017-01-26T12:02:37Z</time>
      </trkpt>
      <trkpt lat="44.63839" lon="-0.17102">
        <ele>78.48</ele>
        <time>2017-01-26T12:02:53Z</time>
      </trkpt>
      <trkpt lat="44.63836" lon="-0.17083">
        <ele>79.93</ele>
        <time>2017-01-26T12:03:02Z</time>
      </trkpt>
      <trkpt lat="44.63831" lon="-0.17059">
        <ele>80.41</ele>
        <time>2017-01-26T12:03:16Z</time>
      </trkpt>
      <trkpt lat="44.63824" lon="-0.17028">
        <ele>80.41</ele>
        <time>2017-01-26T12:03:33Z</time>
      </trkpt>
      <trkpt lat="44.6382" lon="-0.1701">
        <ele>81.37</ele>
        <time>2017-01-26T12:03:42Z</time>
      </trkpt>
      <trkpt lat="44.63813" lon="-0.1698">
        <ele>81.85</ele>
        <time>2017-01-26T12:04:00Z</time>
      </trkpt>
      <trkpt lat="44.63808" lon="-0.16967">
        <ele>83.29</ele>
        <time>2017-01-26T12:04:13Z</time>
      </trkpt>
      <trkpt lat="44.63807" lon="-0.16957">
        <ele>82.81</ele>
        <time>2017-01-26T12:04:20Z</time>
      </trkpt>
      <trkpt lat="44.63806" lon="-0.1695">
        <ele>82.81</ele>
        <time>2017-01-26T12:04:25Z</time>
      </trkpt>
      <trkpt lat="44.63797" lon="-0.16927">
        <ele>82.81</ele>
        <time>2017-01-26T12:04:40Z</time>
      </trkpt>
      <trkpt lat="44.6379" lon="-0.16896">
        <ele>82.33</ele>
        <time>2017-01-26T12:04:58Z</time>
      </trkpt>
      <trkpt lat="44.63781" lon="-0.16864">
        <ele>81.85</ele>
        <time>2017-01-26T12:05:15Z</time>
      </trkpt>
      <trkpt lat="44.63775" lon="-0.16838">
        <ele>81.37</ele>
        <time>2017-01-26T12:05:29Z</time>
      </trkpt>
      <trkpt lat="44.63775" lon="-0.16821">
        <ele>81.37</ele>
        <time>2017-01-26T12:05:38Z</time>
      </trkpt>
      <trkpt lat="44.63784" lon="-0.1681">
        <ele>81.85</ele>
        <time>2017-01-26T12:05:48Z</time>
      </trkpt>
      <trkpt lat="44.63802" lon="-0.16803">
        <ele>82.81</ele>
        <time>2017-01-26T12:06:03Z</time>
      </trkpt>
      <trkpt lat="44.63806" lon="-0.16801">
        <ele>84.25</ele>
        <time>2017-01-26T12:06:06Z</time>
      </trkpt>
      <trkpt lat="44.63826" lon="-0.16796">
        <ele>84.25</ele>
        <time>2017-01-26T12:06:21Z</time>
      </trkpt>
      <trkpt lat="44.63847" lon="-0.1679">
        <ele>85.69</ele>
        <time>2017-01-26T12:06:37Z</time>
      </trkpt>
      <trkpt lat="44.6387" lon="-0.16783">
        <ele>87.14</ele>
        <time>2017-01-26T12:06:54Z</time>
      </trkpt>
      <trkpt lat="44.6389" lon="-0.16775">
        <ele>88.1</ele>
        <time>2017-01-26T12:07:10Z</time>
      </trkpt>
      <trkpt lat="44.63904" lon="-0.16758">
        <ele>88.1</ele>
        <time>2017-01-26T12:07:25Z</time>
      </trkpt>
      <trkpt lat="44.63917" lon="-0.16736">
        <ele>86.66</ele>
        <time>2017-01-26T12:07:40Z</time>
      </trkpt>
      <trkpt lat="44.6393" lon="-0.16709">
        <ele>86.18</ele>
        <time>2017-01-26T12:07:57Z</time>
      </trkpt>
      <trkpt lat="44.63948" lon="-0.16691">
        <ele>86.66</ele>
        <time>2017-01-26T12:08:14Z</time>
      </trkpt>
      <trkpt lat="44.63971" lon="-0.16684">
        <ele>86.18</ele>
        <time>2017-01-26T12:08:32Z</time>
      </trkpt>
      <trkpt lat="44.63993" lon="-0.16676">
        <ele>86.18</ele>
        <time>2017-01-26T12:08:48Z</time>
      </trkpt>
      <trkpt lat="44.64014" lon="-0.16672">
        <ele>86.18</ele>
        <time>2017-01-26T12:09:04Z</time>
      </trkpt>
      <trkpt lat="44.64036" lon="-0.16664">
        <ele>86.66</ele>
        <time>2017-01-26T12:09:21Z</time>
      </trkpt>
      <trkpt lat="44.64058" lon="-0.16659">
        <ele>86.66</ele>
        <time>2017-01-26T12:09:38Z</time>
      </trkpt>
      <trkpt lat="44.64081" lon="-0.16654">
        <ele>86.18</ele>
        <time>2017-01-26T12:09:55Z</time>
      </trkpt>
      <trkpt lat="44.64102" lon="-0.16651">
        <ele>86.66</ele>
        <time>2017-01-26T12:10:12Z</time>
      </trkpt>
      <trkpt lat="44.64121" lon="-0.1665">
        <ele>86.66</ele>
        <time>2017-01-26T12:10:27Z</time>
      </trkpt>
      <trkpt lat="44.6414" lon="-0.16645">
        <ele>86.66</ele>
        <time>2017-01-26T12:10:43Z</time>
      </trkpt>
      <trkpt lat="44.64152" lon="-0.16641">
        <ele>86.66</ele>
        <time>2017-01-26T12:10:52Z</time>
      </trkpt>
      <trkpt lat="44.64168" lon="-0.16631">
        <ele>86.66</ele>
        <time>2017-01-26T12:11:05Z</time>
      </trkpt>
      <trkpt lat="44.64181" lon="-0.16618">
        <ele>86.18</ele>
        <time>2017-01-26T12:11:16Z</time>
      </trkpt>
      <trkpt lat="44.64182" lon="-0.16615">
        <ele>85.69</ele>
        <time>2017-01-26T12:11:18Z</time>
      </trkpt>
      <trkpt lat="44.64193" lon="-0.166">
        <ele>84.73</ele>
        <time>2017-01-26T12:11:30Z</time>
      </trkpt>
      <trkpt lat="44.64194" lon="-0.16599">
        <ele>85.21</ele>
        <time>2017-01-26T12:11:31Z</time>
      </trkpt>
      <trkpt lat="44.64202" lon="-0.16592">
        <ele>85.21</ele>
        <time>2017-01-26T12:11:38Z</time>
      </trkpt>
      <trkpt lat="44.64211" lon="-0.16575">
        <ele>84.73</ele>
        <time>2017-01-26T12:11:49Z</time>
      </trkpt>
      <trkpt lat="44.64214" lon="-0.1657">
        <ele>84.73</ele>
        <time>2017-01-26T12:11:53Z</time>
      </trkpt>
      <trkpt lat="44.64225" lon="-0.16544">
        <ele>85.21</ele>
        <time>2017-01-26T12:12:09Z</time>
      </trkpt>
      <trkpt lat="44.64235" lon="-0.16518">
        <ele>85.21</ele>
        <time>2017-01-26T12:12:25Z</time>
      </trkpt>
      <trkpt lat="44.64241" lon="-0.16493">
        <ele>85.69</ele>
        <time>2017-01-26T12:12:39Z</time>
      </trkpt>
      <trkpt lat="44.64245" lon="-0.16466">
        <ele>86.66</ele>
        <time>2017-01-26T12:12:57Z</time>
      </trkpt>
      <trkpt lat="44.64247" lon="-0.16458">
        <ele>86.66</ele>
        <time>2017-01-26T12:13:01Z</time>
      </trkpt>
      <trkpt lat="44.6425" lon="-0.16431">
        <ele>87.62</ele>
        <time>2017-01-26T12:13:17Z</time>
      </trkpt>
      <trkpt lat="44.6425" lon="-0.16404">
        <ele>87.62</ele>
        <time>2017-01-26T12:13:32Z</time>
      </trkpt>
      <trkpt lat="44.64251" lon="-0.16381">
        <ele>89.06</ele>
        <time>2017-01-26T12:13:46Z</time>
      </trkpt>
      <trkpt lat="44.64248" lon="-0.1637">
        <ele>89.06</ele>
        <time>2017-01-26T12:13:52Z</time>
      </trkpt>
      <trkpt lat="44.6425" lon="-0.16353">
        <ele>90.02</ele>
        <time>2017-01-26T12:14:02Z</time>
      </trkpt>
      <trkpt lat="44.64251" lon="-0.16345">
        <ele>90.5</ele>
        <time>2017-01-26T12:14:07Z</time>
      </trkpt>
      <trkpt lat="44.64251" lon="-0.1634">
        <ele>90.5</ele>
        <time>2017-01-26T12:14:10Z</time>
      </trkpt>
      <trkpt lat="44.64251" lon="-0.16326">
        <ele>90.98</ele>
        <time>2017-01-26T12:14:17Z</time>
      </trkpt>
      <trkpt lat="44.64251" lon="-0.16313">
        <ele>90.02</ele>
        <time>2017-01-26T12:14:24Z</time>
      </trkpt>
      <trkpt lat="44.64242" lon="-0.1629">
        <ele>88.58</ele>
        <time>2017-01-26T12:14:37Z</time>
      </trkpt>
      <trkpt lat="44.64235" lon="-0.16273">
        <ele>89.06</ele>
        <time>2017-01-26T12:14:47Z</time>
      </trkpt>
      <trkpt lat="44.64227" lon="-0.16243">
        <ele>87.62</ele>
        <time>2017-01-26T12:15:04Z</time>
      </trkpt>
      <trkpt lat="44.64226" lon="-0.16239">
        <ele>87.14</ele>
        <time>2017-01-26T12:15:07Z</time>
      </trkpt>
      <trkpt lat="44.64222" lon="-0.16215">
        <ele>87.14</ele>
        <time>2017-01-26T12:15:20Z</time>
      </trkpt>
      <trkpt lat="44.64221" lon="-0.16204">
        <ele>86.18</ele>
        <time>2017-01-26T12:15:28Z</time>
      </trkpt>
      <trkpt lat="44.64214" lon="-0.16186">
        <ele>86.66</ele>
        <time>2017-01-26T12:15:40Z</time>
      </trkpt>
      <trkpt lat="44.6421" lon="-0.16176">
        <ele>86.66</ele>
        <time>2017-01-26T12:15:45Z</time>
      </trkpt>
      <trkpt lat="44.64204" lon="-0.16154">
        <ele>86.18</ele>
        <time>2017-01-26T12:15:59Z</time>
      </trkpt>
      <trkpt lat="44.64196" lon="-0.16134">
        <ele>85.69</ele>
        <time>2017-01-26T12:16:11Z</time>
      </trkpt>
      <trkpt lat="44.64186" lon="-0.1611">
        <ele>84.73</ele>
        <time>2017-01-26T12:16:26Z</time>
      </trkpt>
      <trkpt lat="44.64179" lon="-0.16087">
        <ele>84.73</ele>
        <time>2017-01-26T12:16:41Z</time>
      </trkpt>
      <trkpt lat="44.64182" lon="-0.16075">
        <ele>84.73</ele>
        <time>2017-01-26T12:16:49Z</time>
      </trkpt>
      <trkpt lat="44.64185" lon="-0.16072">
        <ele>84.73</ele>
        <time>2017-01-26T12:16:53Z</time>
      </trkpt>
      <trkpt lat="44.64196" lon="-0.16063">
        <ele>84.25</ele>
        <time>2017-01-26T12:17:06Z</time>
      </trkpt>
      <trkpt lat="44.64197" lon="-0.16062">
        <ele>83.77</ele>
        <time>2017-01-26T12:17:07Z</time>
      </trkpt>
      <trkpt lat="44.642" lon="-0.16061">
        <ele>83.29</ele>
        <time>2017-01-26T12:17:23Z</time>
      </trkpt>
      <trkpt lat="44.64203" lon="-0.16057">
        <ele>82.81</ele>
        <time>2017-01-26T12:17:32Z</time>
      </trkpt>
      <trkpt lat="44.64211" lon="-0.16049">
        <ele>82.81</ele>
        <time>2017-01-26T12:17:44Z</time>
      </trkpt>
      <trkpt lat="44.64212" lon="-0.16048">
        <ele>82.81</ele>
        <time>2017-01-26T12:17:45Z</time>
      </trkpt>
      <trkpt lat="44.6423" lon="-0.16033">
        <ele>81.85</ele>
        <time>2017-01-26T12:18:03Z</time>
      </trkpt>
      <trkpt lat="44.64238" lon="-0.16025">
        <ele>81.85</ele>
        <time>2017-01-26T12:18:12Z</time>
      </trkpt>
      <trkpt lat="44.6425" lon="-0.16015">
        <ele>81.85</ele>
        <time>2017-01-26T12:18:26Z</time>
      </trkpt>
      <trkpt lat="44.64266" lon="-0.15999">
        <ele>81.85</ele>
        <time>2017-01-26T12:18:44Z</time>
      </trkpt>
      <trkpt lat="44.64269" lon="-0.15997">
        <ele>82.33</ele>
        <time>2017-01-26T12:18:47Z</time>
      </trkpt>
      <trkpt lat="44.64282" lon="-0.15988">
        <ele>82.81</ele>
        <time>2017-01-26T12:19:01Z</time>
      </trkpt>
      <trkpt lat="44.64296" lon="-0.15974">
        <ele>82.81</ele>
        <time>2017-01-26T12:19:17Z</time>
      </trkpt>
      <trkpt lat="44.64309" lon="-0.15962">
        <ele>82.81</ele>
        <time>2017-01-26T12:19:33Z</time>
      </trkpt>
      <trkpt lat="44.64322" lon="-0.15952">
        <ele>82.33</ele>
        <time>2017-01-26T12:19:47Z</time>
      </trkpt>
      <trkpt lat="44.64336" lon="-0.15939">
        <ele>81.37</ele>
        <time>2017-01-26T12:20:03Z</time>
      </trkpt>
      <trkpt lat="44.64337" lon="-0.15931">
        <ele>80.41</ele>
        <time>2017-01-26T12:20:11Z</time>
      </trkpt>
      <trkpt lat="44.64334" lon="-0.15925">
        <ele>79.93</ele>
        <time>2017-01-26T12:20:15Z</time>
      </trkpt>
      <trkpt lat="44.6433" lon="-0.15912">
        <ele>80.89</ele>
        <time>2017-01-26T12:20:24Z</time>
      </trkpt>
      <trkpt lat="44.64316" lon="-0.15895">
        <ele>80.89</ele>
        <time>2017-01-26T12:20:40Z</time>
      </trkpt>
      <trkpt lat="44.64312" lon="-0.15892">
        <ele>80.41</ele>
        <time>2017-01-26T12:20:44Z</time>
      </trkpt>
      <trkpt lat="44.64296" lon="-0.15876">
        <ele>80.41</ele>
        <time>2017-01-26T12:20:59Z</time>
      </trkpt>
      <trkpt lat="44.6428" lon="-0.15857">
        <ele>80.41</ele>
        <time>2017-01-26T12:21:16Z</time>
      </trkpt>
      <trkpt lat="44.64275" lon="-0.15848">
        <ele>79.45</ele>
        <time>2017-01-26T12:21:23Z</time>
      </trkpt>
      <trkpt lat="44.64265" lon="-0.15827">
        <ele>78.48</ele>
        <time>2017-01-26T12:21:36Z</time>
      </trkpt>
      <trkpt lat="44.64255" lon="-0.15813">
        <ele>78.48</ele>
        <time>2017-01-26T12:21:47Z</time>
      </trkpt>
      <trkpt lat="44.64247" lon="-0.15795">
        <ele>77.52</ele>
        <time>2017-01-26T12:21:59Z</time>
      </trkpt>
      <trkpt lat="44.64232" lon="-0.15769">
        <ele>76.08</ele>
        <time>2017-01-26T12:22:16Z</time>
      </trkpt>
      <trkpt lat="44.64219" lon="-0.15746">
        <ele>76.08</ele>
        <time>2017-01-26T12:22:29Z</time>
      </trkpt>
      <trkpt lat="44.64211" lon="-0.15732">
        <ele>75.6</ele>
        <time>2017-01-26T12:22:41Z</time>
      </trkpt>
      <trkpt lat="44.6421" lon="-0.15731">
        <ele>75.12</ele>
        <time>2017-01-26T12:22:42Z</time>
      </trkpt>
      <trkpt lat="44.64201" lon="-0.15714">
        <ele>74.64</ele>
        <time>2017-01-26T12:22:55Z</time>
      </trkpt>
      <trkpt lat="44.64194" lon="-0.15694">
        <ele>72.72</ele>
        <time>2017-01-26T12:23:10Z</time>
      </trkpt>
      <trkpt lat="44.64185" lon="-0.15678">
        <ele>71.27</ele>
        <time>2017-01-26T12:23:25Z</time>
      </trkpt>
      <trkpt lat="44.64175" lon="-0.15659">
        <ele>70.79</ele>
        <time>2017-01-26T12:23:39Z</time>
      </trkpt>
      <trkpt lat="44.64158" lon="-0.15632">
        <ele>71.76</ele>
        <time>2017-01-26T12:23:55Z</time>
      </trkpt>
      <trkpt lat="44.6415" lon="-0.15619">
        <ele>72.72</ele>
        <time>2017-01-26T12:24:06Z</time>
      </trkpt>
      <trkpt lat="44.64135" lon="-0.15596">
        <ele>73.2</ele>
        <time>2017-01-26T12:24:23Z</time>
      </trkpt>
      <trkpt lat="44.64125" lon="-0.15578">
        <ele>74.16</ele>
        <time>2017-01-26T12:24:36Z</time>
      </trkpt>
      <trkpt lat="44.64113" lon="-0.15559">
        <ele>75.12</ele>
        <time>2017-01-26T12:24:49Z</time>
      </trkpt>
      <trkpt lat="44.64098" lon="-0.15537">
        <ele>75.6</ele>
        <time>2017-01-26T12:25:04Z</time>
      </trkpt>
      <trkpt lat="44.64083" lon="-0.15516">
        <ele>76.56</ele>
        <time>2017-01-26T12:25:21Z</time>
      </trkpt>
      <trkpt lat="44.64082" lon="-0.15512">
        <ele>76.56</ele>
        <time>2017-01-26T12:25:23Z</time>
      </trkpt>
      <trkpt lat="44.6407" lon="-0.15488">
        <ele>77.04</ele>
        <time>2017-01-26T12:25:38Z</time>
      </trkpt>
      <trkpt lat="44.64057" lon="-0.15464">
        <ele>77.04</ele>
        <time>2017-01-26T12:25:54Z</time>
      </trkpt>
      <trkpt lat="44.64046" lon="-0.1544">
        <ele>77.04</ele>
        <time>2017-01-26T12:26:10Z</time>
      </trkpt>
      <trkpt lat="44.64035" lon="-0.15419">
        <ele>77.52</ele>
        <time>2017-01-26T12:26:24Z</time>
      </trkpt>
      <trkpt lat="44.64023" lon="-0.15393">
        <ele>77.52</ele>
        <time>2017-01-26T12:26:40Z</time>
      </trkpt>
      <trkpt lat="44.64012" lon="-0.15372">
        <ele>77.04</ele>
        <time>2017-01-26T12:26:55Z</time>
      </trkpt>
      <trkpt lat="44.64007" lon="-0.15364">
        <ele>77.04</ele>
        <time>2017-01-26T12:27:00Z</time>
      </trkpt>
      <trkpt lat="44.63994" lon="-0.15336">
        <ele>77.04</ele>
        <time>2017-01-26T12:27:18Z</time>
      </trkpt>
      <trkpt lat="44.6398" lon="-0.15312">
        <ele>76.56</ele>
        <time>2017-01-26T12:27:34Z</time>
      </trkpt>
      <trkpt lat="44.63971" lon="-0.15297">
        <ele>75.6</ele>
        <time>2017-01-26T12:27:44Z</time>
      </trkpt>
      <trkpt lat="44.6396" lon="-0.15273">
        <ele>75.12</ele>
        <time>2017-01-26T12:28:00Z</time>
      </trkpt>
      <trkpt lat="44.63955" lon="-0.15261">
        <ele>75.12</ele>
        <time>2017-01-26T12:28:08Z</time>
      </trkpt>
      <trkpt lat="44.63944" lon="-0.15239">
        <ele>74.16</ele>
        <time>2017-01-26T12:28:22Z</time>
      </trkpt>
      <trkpt lat="44.63935" lon="-0.15227">
        <ele>73.2</ele>
        <time>2017-01-26T12:28:31Z</time>
      </trkpt>
      <trkpt lat="44.63928" lon="-0.15224">
        <ele>73.2</ele>
        <time>2017-01-26T12:28:36Z</time>
      </trkpt>
      <trkpt lat="44.6391" lon="-0.15244">
        <ele>74.16</ele>
        <time>2017-01-26T12:28:52Z</time>
      </trkpt>
      <trkpt lat="44.63894" lon="-0.15258">
        <ele>75.12</ele>
        <time>2017-01-26T12:29:06Z</time>
      </trkpt>
      <trkpt lat="44.63889" lon="-0.15261">
        <ele>79.45</ele>
        <time>2017-01-26T12:29:10Z</time>
      </trkpt>
      <trkpt lat="44.63888" lon="-0.15262">
        <ele>74.64</ele>
        <time>2017-01-26T12:29:11Z</time>
      </trkpt>
      <trkpt lat="44.63884" lon="-0.15264">
        <ele>74.64</ele>
        <time>2017-01-26T12:29:15Z</time>
      </trkpt>
      <trkpt lat="44.63877" lon="-0.15267">
        <ele>74.16</ele>
        <time>2017-01-26T12:29:20Z</time>
      </trkpt>
      <trkpt lat="44.63857" lon="-0.15278">
        <ele>74.16</ele>
        <time>2017-01-26T12:29:35Z</time>
      </trkpt>
      <trkpt lat="44.63843" lon="-0.15286">
        <ele>74.16</ele>
        <time>2017-01-26T12:29:47Z</time>
      </trkpt>
      <trkpt lat="44.63824" lon="-0.15296">
        <ele>72.24</ele>
        <time>2017-01-26T12:30:03Z</time>
      </trkpt>
      <trkpt lat="44.63806" lon="-0.15306">
        <ele>71.27</ele>
        <time>2017-01-26T12:30:18Z</time>
      </trkpt>
      <trkpt lat="44.63785" lon="-0.15311">
        <ele>70.31</ele>
        <time>2017-01-26T12:30:34Z</time>
      </trkpt>
      <trkpt lat="44.63782" lon="-0.15311">
        <ele>70.79</ele>
        <time>2017-01-26T12:30:37Z</time>
      </trkpt>
      <trkpt lat="44.63762" lon="-0.15321">
        <ele>69.35</ele>
        <time>2017-01-26T12:30:53Z</time>
      </trkpt>
      <trkpt lat="44.63743" lon="-0.15332">
        <ele>67.43</ele>
        <time>2017-01-26T12:31:07Z</time>
      </trkpt>
      <trkpt lat="44.63725" lon="-0.15341">
        <ele>65.51</ele>
        <time>2017-01-26T12:31:20Z</time>
      </trkpt>
      <trkpt lat="44.63718" lon="-0.15345">
        <ele>65.03</ele>
        <time>2017-01-26T12:31:26Z</time>
      </trkpt>
      <trkpt lat="44.63712" lon="-0.15349">
        <ele>64.55</ele>
        <time>2017-01-26T12:31:31Z</time>
      </trkpt>
      <trkpt lat="44.63689" lon="-0.15363">
        <ele>62.62</ele>
        <time>2017-01-26T12:31:49Z</time>
      </trkpt>
      <trkpt lat="44.63669" lon="-0.15374">
        <ele>61.66</ele>
        <time>2017-01-26T12:32:04Z</time>
      </trkpt>
      <trkpt lat="44.63651" lon="-0.15383">
        <ele>62.62</ele>
        <time>2017-01-26T12:32:18Z</time>
      </trkpt>
      <trkpt lat="44.63648" lon="-0.15387">
        <ele>62.62</ele>
        <time>2017-01-26T12:32:29Z</time>
      </trkpt>
      <trkpt lat="44.63647" lon="-0.15386">
        <ele>62.62</ele>
        <time>2017-01-26T12:32:31Z</time>
      </trkpt>
      <trkpt lat="44.6364" lon="-0.15386">
        <ele>63.1</ele>
        <time>2017-01-26T12:32:39Z</time>
      </trkpt>
      <trkpt lat="44.63623" lon="-0.15372">
        <ele>64.07</ele>
        <time>2017-01-26T12:32:52Z</time>
      </trkpt>
      <trkpt lat="44.63611" lon="-0.15355">
        <ele>65.03</ele>
        <time>2017-01-26T12:33:03Z</time>
      </trkpt>
      <trkpt lat="44.63597" lon="-0.1534">
        <ele>65.99</ele>
        <time>2017-01-26T12:33:16Z</time>
      </trkpt>
      <trkpt lat="44.6358" lon="-0.15322">
        <ele>66.95</ele>
        <time>2017-01-26T12:33:31Z</time>
      </trkpt>
      <trkpt lat="44.63566" lon="-0.15308">
        <ele>65.99</ele>
        <time>2017-01-26T12:33:44Z</time>
      </trkpt>
      <trkpt lat="44.6356" lon="-0.15303">
        <ele>66.95</ele>
        <time>2017-01-26T12:33:49Z</time>
      </trkpt>
      <trkpt lat="44.63556" lon="-0.15299">
        <ele>66.95</ele>
        <time>2017-01-26T12:33:53Z</time>
      </trkpt>
      <trkpt lat="44.63544" lon="-0.15289">
        <ele>63.1</ele>
        <time>2017-01-26T12:34:03Z</time>
      </trkpt>
      <trkpt lat="44.63543" lon="-0.15288">
        <ele>73.68</ele>
        <time>2017-01-26T12:34:04Z</time>
      </trkpt>
      <trkpt lat="44.63542" lon="-0.15287">
        <ele>67.91</ele>
        <time>2017-01-26T12:34:05Z</time>
      </trkpt>
      <trkpt lat="44.63539" lon="-0.15285">
        <ele>66.95</ele>
        <time>2017-01-26T12:34:08Z</time>
      </trkpt>
      <trkpt lat="44.63525" lon="-0.15272">
        <ele>66.95</ele>
        <time>2017-01-26T12:34:21Z</time>
      </trkpt>
      <trkpt lat="44.6351" lon="-0.15263">
        <ele>66.95</ele>
        <time>2017-01-26T12:34:32Z</time>
      </trkpt>
      <trkpt lat="44.63505" lon="-0.15264">
        <ele>67.43</ele>
        <time>2017-01-26T12:34:36Z</time>
      </trkpt>
      <trkpt lat="44.63501" lon="-0.15266">
        <ele>66.95</ele>
        <time>2017-01-26T12:34:39Z</time>
      </trkpt>
      <trkpt lat="44.63491" lon="-0.15272">
        <ele>67.43</ele>
        <time>2017-01-26T12:34:46Z</time>
      </trkpt>
      <trkpt lat="44.63474" lon="-0.15286">
        <ele>68.39</ele>
        <time>2017-01-26T12:35:01Z</time>
      </trkpt>
      <trkpt lat="44.63457" lon="-0.15297">
        <ele>67.91</ele>
        <time>2017-01-26T12:35:15Z</time>
      </trkpt>
      <trkpt lat="44.63441" lon="-0.15309">
        <ele>68.39</ele>
        <time>2017-01-26T12:35:28Z</time>
      </trkpt>
      <trkpt lat="44.6343" lon="-0.15319">
        <ele>69.35</ele>
        <time>2017-01-26T12:35:39Z</time>
      </trkpt>
      <trkpt lat="44.63419" lon="-0.15329">
        <ele>70.31</ele>
        <time>2017-01-26T12:35:50Z</time>
      </trkpt>
      <trkpt lat="44.63404" lon="-0.15342">
        <ele>72.72</ele>
        <time>2017-01-26T12:36:04Z</time>
      </trkpt>
      <trkpt lat="44.63402" lon="-0.15344">
        <ele>73.2</ele>
        <time>2017-01-26T12:36:06Z</time>
      </trkpt>
      <trkpt lat="44.634" lon="-0.15345">
        <ele>73.2</ele>
        <time>2017-01-26T12:36:08Z</time>
      </trkpt>
      <trkpt lat="44.63396" lon="-0.15353">
        <ele>74.16</ele>
        <time>2017-01-26T12:36:13Z</time>
      </trkpt>
      <trkpt lat="44.63381" lon="-0.15365">
        <ele>76.08</ele>
        <time>2017-01-26T12:36:27Z</time>
      </trkpt>
      <trkpt lat="44.63373" lon="-0.15371">
        <ele>77.04</ele>
        <time>2017-01-26T12:36:35Z</time>
      </trkpt>
      <trkpt lat="44.63362" lon="-0.15378">
        <ele>78.97</ele>
        <time>2017-01-26T12:36:45Z</time>
      </trkpt>
      <trkpt lat="44.6336" lon="-0.1538">
        <ele>79.45</ele>
        <time>2017-01-26T12:36:47Z</time>
      </trkpt>
      <trkpt lat="44.63346" lon="-0.15394">
        <ele>80.41</ele>
        <time>2017-01-26T12:37:03Z</time>
      </trkpt>
      <trkpt lat="44.63332" lon="-0.15405">
        <ele>80.89</ele>
        <time>2017-01-26T12:37:18Z</time>
      </trkpt>
      <trkpt lat="44.63317" lon="-0.15416">
        <ele>80.41</ele>
        <time>2017-01-26T12:37:32Z</time>
      </trkpt>
      <trkpt lat="44.63302" lon="-0.15426">
        <ele>80.41</ele>
        <time>2017-01-26T12:37:45Z</time>
      </trkpt>
      <trkpt lat="44.63295" lon="-0.15428">
        <ele>79.93</ele>
        <time>2017-01-26T12:37:50Z</time>
      </trkpt>
      <trkpt lat="44.6329" lon="-0.15433">
        <ele>78.97</ele>
        <time>2017-01-26T12:37:57Z</time>
      </trkpt>
      <trkpt lat="44.63284" lon="-0.15439">
        <ele>78.97</ele>
        <time>2017-01-26T12:38:11Z</time>
      </trkpt>
      <trkpt lat="44.6328" lon="-0.15443">
        <ele>78.48</ele>
        <time>2017-01-26T12:38:23Z</time>
      </trkpt>
      <trkpt lat="44.63278" lon="-0.15447">
        <ele>78</ele>
        <time>2017-01-26T12:38:37Z</time>
      </trkpt>
      <trkpt lat="44.63276" lon="-0.15451">
        <ele>77.52</ele>
        <time>2017-01-26T12:38:41Z</time>
      </trkpt>
      <trkpt lat="44.63261" lon="-0.15469">
        <ele>75.6</ele>
        <time>2017-01-26T12:38:57Z</time>
      </trkpt>
      <trkpt lat="44.63251" lon="-0.15486">
        <ele>74.16</ele>
        <time>2017-01-26T12:39:11Z</time>
      </trkpt>
      <trkpt lat="44.63249" lon="-0.15491">
        <ele>73.68</ele>
        <time>2017-01-26T12:39:14Z</time>
      </trkpt>
      <trkpt lat="44.63245" lon="-0.15497">
        <ele>73.2</ele>
        <time>2017-01-26T12:39:18Z</time>
      </trkpt>
      <trkpt lat="44.63228" lon="-0.15523">
        <ele>71.76</ele>
        <time>2017-01-26T12:39:37Z</time>
      </trkpt>
      <trkpt lat="44.63226" lon="-0.15527">
        <ele>71.27</ele>
        <time>2017-01-26T12:39:40Z</time>
      </trkpt>
      <trkpt lat="44.63225" lon="-0.1553">
        <ele>71.27</ele>
        <time>2017-01-26T12:39:42Z</time>
      </trkpt>
      <trkpt lat="44.6321" lon="-0.15551">
        <ele>70.31</ele>
        <time>2017-01-26T12:40:00Z</time>
      </trkpt>
      <trkpt lat="44.63199" lon="-0.15571">
        <ele>69.35</ele>
        <time>2017-01-26T12:40:16Z</time>
      </trkpt>
      <trkpt lat="44.63183" lon="-0.15595">
        <ele>67.91</ele>
        <time>2017-01-26T12:40:34Z</time>
      </trkpt>
      <trkpt lat="44.6317" lon="-0.15622">
        <ele>66.95</ele>
        <time>2017-01-26T12:40:52Z</time>
      </trkpt>
      <trkpt lat="44.63156" lon="-0.1565">
        <ele>65.99</ele>
        <time>2017-01-26T12:41:12Z</time>
      </trkpt>
      <trkpt lat="44.63144" lon="-0.1568">
        <ele>65.99</ele>
        <time>2017-01-26T12:41:32Z</time>
      </trkpt>
      <trkpt lat="44.63129" lon="-0.15712">
        <ele>65.99</ele>
        <time>2017-01-26T12:41:53Z</time>
      </trkpt>
      <trkpt lat="44.63119" lon="-0.15733">
        <ele>65.99</ele>
        <time>2017-01-26T12:42:06Z</time>
      </trkpt>
      <trkpt lat="44.63114" lon="-0.15742">
        <ele>65.99</ele>
        <time>2017-01-26T12:42:13Z</time>
      </trkpt>
      <trkpt lat="44.631" lon="-0.15767">
        <ele>65.99</ele>
        <time>2017-01-26T12:42:31Z</time>
      </trkpt>
      <trkpt lat="44.63082" lon="-0.15795">
        <ele>66.47</ele>
        <time>2017-01-26T12:42:51Z</time>
      </trkpt>
      <trkpt lat="44.63062" lon="-0.15818">
        <ele>66.47</ele>
        <time>2017-01-26T12:43:10Z</time>
      </trkpt>
      <trkpt lat="44.63042" lon="-0.15838">
        <ele>65.99</ele>
        <time>2017-01-26T12:43:30Z</time>
      </trkpt>
      <trkpt lat="44.63023" lon="-0.15858">
        <ele>65.99</ele>
        <time>2017-01-26T12:43:47Z</time>
      </trkpt>
      <trkpt lat="44.62997" lon="-0.15875">
        <ele>65.51</ele>
        <time>2017-01-26T12:44:08Z</time>
      </trkpt>
      <trkpt lat="44.6297" lon="-0.15882">
        <ele>64.55</ele>
        <time>2017-01-26T12:44:27Z</time>
      </trkpt>
      <trkpt lat="44.62945" lon="-0.15888">
        <ele>63.58</ele>
        <time>2017-01-26T12:44:45Z</time>
      </trkpt>
      <trkpt lat="44.6292" lon="-0.15894">
        <ele>64.07</ele>
        <time>2017-01-26T12:45:02Z</time>
      </trkpt>
      <trkpt lat="44.62893" lon="-0.15908">
        <ele>64.07</ele>
        <time>2017-01-26T12:45:22Z</time>
      </trkpt>
      <trkpt lat="44.62876" lon="-0.15921">
        <ele>64.55</ele>
        <time>2017-01-26T12:45:37Z</time>
      </trkpt>
      <trkpt lat="44.62852" lon="-0.15939">
        <ele>64.07</ele>
        <time>2017-01-26T12:45:56Z</time>
      </trkpt>
      <trkpt lat="44.62828" lon="-0.15956">
        <ele>64.07</ele>
        <time>2017-01-26T12:46:14Z</time>
      </trkpt>
      <trkpt lat="44.62807" lon="-0.15973">
        <ele>65.03</ele>
        <time>2017-01-26T12:46:32Z</time>
      </trkpt>
      <trkpt lat="44.62786" lon="-0.15989">
        <ele>65.99</ele>
        <time>2017-01-26T12:46:49Z</time>
      </trkpt>
      <trkpt lat="44.62763" lon="-0.16007">
        <ele>66.47</ele>
        <time>2017-01-26T12:47:08Z</time>
      </trkpt>
      <trkpt lat="44.62742" lon="-0.16023">
        <ele>66.95</ele>
        <time>2017-01-26T12:47:26Z</time>
      </trkpt>
      <trkpt lat="44.62722" lon="-0.16036">
        <ele>67.91</ele>
        <time>2017-01-26T12:47:43Z</time>
      </trkpt>
      <trkpt lat="44.62708" lon="-0.16047">
        <ele>68.39</ele>
        <time>2017-01-26T12:47:56Z</time>
      </trkpt>
      <trkpt lat="44.62695" lon="-0.1606">
        <ele>69.35</ele>
        <time>2017-01-26T12:48:09Z</time>
      </trkpt>
      <trkpt lat="44.62673" lon="-0.16074">
        <ele>70.31</ele>
        <time>2017-01-26T12:48:26Z</time>
      </trkpt>
      <trkpt lat="44.62651" lon="-0.16084">
        <ele>70.79</ele>
        <time>2017-01-26T12:48:43Z</time>
      </trkpt>
      <trkpt lat="44.6263" lon="-0.1609">
        <ele>72.24</ele>
        <time>2017-01-26T12:48:59Z</time>
      </trkpt>
      <trkpt lat="44.62617" lon="-0.16095">
        <ele>73.2</ele>
        <time>2017-01-26T12:49:09Z</time>
      </trkpt>
      <trkpt lat="44.62612" lon="-0.16096">
        <ele>73.2</ele>
        <time>2017-01-26T12:49:13Z</time>
      </trkpt>
      <trkpt lat="44.62604" lon="-0.16101">
        <ele>74.16</ele>
        <time>2017-01-26T12:49:22Z</time>
      </trkpt>
      <trkpt lat="44.62599" lon="-0.16103">
        <ele>74.16</ele>
        <time>2017-01-26T12:49:26Z</time>
      </trkpt>
      <trkpt lat="44.62578" lon="-0.16113">
        <ele>75.12</ele>
        <time>2017-01-26T12:49:43Z</time>
      </trkpt>
      <trkpt lat="44.6256" lon="-0.16124">
        <ele>76.08</ele>
        <time>2017-01-26T12:49:58Z</time>
      </trkpt>
      <trkpt lat="44.62541" lon="-0.16137">
        <ele>76.08</ele>
        <time>2017-01-26T12:50:13Z</time>
      </trkpt>
      <trkpt lat="44.62519" lon="-0.16151">
        <ele>76.08</ele>
        <time>2017-01-26T12:50:29Z</time>
      </trkpt>
      <trkpt lat="44.62502" lon="-0.16166">
        <ele>76.56</ele>
        <time>2017-01-26T12:50:44Z</time>
      </trkpt>
      <trkpt lat="44.62481" lon="-0.16184">
        <ele>78</ele>
        <time>2017-01-26T12:51:01Z</time>
      </trkpt>
      <trkpt lat="44.62461" lon="-0.16204">
        <ele>78</ele>
        <time>2017-01-26T12:51:19Z</time>
      </trkpt>
      <trkpt lat="44.62438" lon="-0.16223">
        <ele>78</ele>
        <time>2017-01-26T12:51:37Z</time>
      </trkpt>
      <trkpt lat="44.62417" lon="-0.16241">
        <ele>78.97</ele>
        <time>2017-01-26T12:51:55Z</time>
      </trkpt>
      <trkpt lat="44.62402" lon="-0.16252">
        <ele>79.93</ele>
        <time>2017-01-26T12:52:09Z</time>
      </trkpt>
      <trkpt lat="44.624" lon="-0.16253">
        <ele>79.93</ele>
        <time>2017-01-26T12:52:11Z</time>
      </trkpt>
      <trkpt lat="44.62383" lon="-0.16265">
        <ele>80.89</ele>
        <time>2017-01-26T12:52:25Z</time>
      </trkpt>
      <trkpt lat="44.62367" lon="-0.16274">
        <ele>82.81</ele>
        <time>2017-01-26T12:52:41Z</time>
      </trkpt>
      <trkpt lat="44.62352" lon="-0.16288">
        <ele>84.73</ele>
        <time>2017-01-26T12:52:55Z</time>
      </trkpt>
      <trkpt lat="44.62339" lon="-0.16304">
        <ele>87.14</ele>
        <time>2017-01-26T12:53:11Z</time>
      </trkpt>
      <trkpt lat="44.6233" lon="-0.16317">
        <ele>88.1</ele>
        <time>2017-01-26T12:53:22Z</time>
      </trkpt>
      <trkpt lat="44.62315" lon="-0.16341">
        <ele>89.54</ele>
        <time>2017-01-26T12:53:39Z</time>
      </trkpt>
      <trkpt lat="44.6231" lon="-0.16353">
        <ele>90.02</ele>
        <time>2017-01-26T12:53:47Z</time>
      </trkpt>
      <trkpt lat="44.62307" lon="-0.1636">
        <ele>90.98</ele>
        <time>2017-01-26T12:53:52Z</time>
      </trkpt>
      <trkpt lat="44.62306" lon="-0.16365">
        <ele>90.98</ele>
        <time>2017-01-26T12:54:07Z</time>
      </trkpt>
      <trkpt lat="44.62304" lon="-0.16368">
        <ele>90.98</ele>
        <time>2017-01-26T12:54:15Z</time>
      </trkpt>
      <trkpt lat="44.62292" lon="-0.1639">
        <ele>90.5</ele>
        <time>2017-01-26T12:54:29Z</time>
      </trkpt>
      <trkpt lat="44.62279" lon="-0.16416">
        <ele>90.98</ele>
        <time>2017-01-26T12:54:46Z</time>
      </trkpt>
      <trkpt lat="44.62265" lon="-0.16441">
        <ele>90.98</ele>
        <time>2017-01-26T12:55:03Z</time>
      </trkpt>
      <trkpt lat="44.62256" lon="-0.16461">
        <ele>91.94</ele>
        <time>2017-01-26T12:55:20Z</time>
      </trkpt>
      <trkpt lat="44.62253" lon="-0.16465">
        <ele>91.94</ele>
        <time>2017-01-26T12:55:29Z</time>
      </trkpt>
      <trkpt lat="44.6225" lon="-0.16472">
        <ele>92.42</ele>
        <time>2017-01-26T12:55:33Z</time>
      </trkpt>
      <trkpt lat="44.62235" lon="-0.16501">
        <ele>93.87</ele>
        <time>2017-01-26T12:55:53Z</time>
      </trkpt>
      <trkpt lat="44.62221" lon="-0.16527">
        <ele>96.27</ele>
        <time>2017-01-26T12:56:13Z</time>
      </trkpt>
      <trkpt lat="44.62221" lon="-0.16534">
        <ele>95.79</ele>
        <time>2017-01-26T12:56:20Z</time>
      </trkpt>
      <trkpt lat="44.6222" lon="-0.16537">
        <ele>95.79</ele>
        <time>2017-01-26T12:56:23Z</time>
      </trkpt>
      <trkpt lat="44.62217" lon="-0.16546">
        <ele>96.27</ele>
        <time>2017-01-26T12:56:29Z</time>
      </trkpt>
      <trkpt lat="44.6222" lon="-0.16554">
        <ele>96.75</ele>
        <time>2017-01-26T12:56:36Z</time>
      </trkpt>
      <trkpt lat="44.62238" lon="-0.16563">
        <ele>97.23</ele>
        <time>2017-01-26T12:56:53Z</time>
      </trkpt>
      <trkpt lat="44.62259" lon="-0.16572">
        <ele>97.71</ele>
        <time>2017-01-26T12:57:11Z</time>
      </trkpt>
      <trkpt lat="44.62276" lon="-0.16581">
        <ele>98.19</ele>
        <time>2017-01-26T12:57:27Z</time>
      </trkpt>
      <trkpt lat="44.62281" lon="-0.16581">
        <ele>97.71</ele>
        <time>2017-01-26T12:57:31Z</time>
      </trkpt>
      <trkpt lat="44.62297" lon="-0.16591">
        <ele>98.19</ele>
        <time>2017-01-26T12:57:47Z</time>
      </trkpt>
      <trkpt lat="44.62305" lon="-0.16594">
        <ele>98.67</ele>
        <time>2017-01-26T12:58:00Z</time>
      </trkpt>
      <trkpt lat="44.6231" lon="-0.16591">
        <ele>98.67</ele>
        <time>2017-01-26T12:58:11Z</time>
      </trkpt>
      <trkpt lat="44.62312" lon="-0.16588">
        <ele>98.19</ele>
        <time>2017-01-26T12:58:16Z</time>
      </trkpt>
      <trkpt lat="44.62314" lon="-0.16567">
        <ele>97.23</ele>
        <time>2017-01-26T12:58:42Z</time>
      </trkpt>
      <trkpt lat="44.62316" lon="-0.16556">
        <ele>96.27</ele>
        <time>2017-01-26T12:58:50Z</time>
      </trkpt>
      <trkpt lat="44.62318" lon="-0.16549">
        <ele>95.31</ele>
        <time>2017-01-26T12:58:55Z</time>
      </trkpt>
      <trkpt lat="44.62322" lon="-0.16545">
        <ele>94.83</ele>
        <time>2017-01-26T12:59:00Z</time>
      </trkpt>
      <trkpt lat="44.62329" lon="-0.16545">
        <ele>95.31</ele>
        <time>2017-01-26T12:59:06Z</time>
      </trkpt>
      <trkpt lat="44.62333" lon="-0.16544">
        <ele>95.31</ele>
        <time>2017-01-26T12:59:21Z</time>
      </trkpt>
      <trkpt lat="44.62343" lon="-0.16546">
        <ele>95.31</ele>
        <time>2017-01-26T12:59:31Z</time>
      </trkpt>
      <trkpt lat="44.62359" lon="-0.16547">
        <ele>95.79</ele>
        <time>2017-01-26T12:59:48Z</time>
      </trkpt>
      <trkpt lat="44.62365" lon="-0.16552">
        <ele>95.79</ele>
        <time>2017-01-26T12:59:58Z</time>
      </trkpt>
      <trkpt lat="44.62365" lon="-0.16554">
        <ele>95.79</ele>
        <time>2017-01-26T12:59:59Z</time>
      </trkpt>
      <trkpt lat="44.62365" lon="-0.16571">
        <ele>96.75</ele>
        <time>2017-01-26T13:00:11Z</time>
      </trkpt>
      <trkpt lat="44.62365" lon="-0.16592">
        <ele>97.23</ele>
        <time>2017-01-26T13:00:25Z</time>
      </trkpt>
      <trkpt lat="44.62367" lon="-0.16606">
        <ele>97.71</ele>
        <time>2017-01-26T13:00:35Z</time>
      </trkpt>
      <trkpt lat="44.6237" lon="-0.16629">
        <ele>98.19</ele>
        <time>2017-01-26T13:00:51Z</time>
      </trkpt>
      <trkpt lat="44.62374" lon="-0.16635">
        <ele>99.15</ele>
        <time>2017-01-26T13:01:02Z</time>
      </trkpt>
      <trkpt lat="44.62373" lon="-0.16635">
        <ele>98.67</ele>
        <time>2017-01-26T13:01:23Z</time>
      </trkpt>
      <trkpt lat="44.62373" lon="-0.16635">
        <ele>98.19</ele>
        <time>2017-01-26T13:01:58Z</time>
      </trkpt>
      <trkpt lat="44.62373" lon="-0.16635">
        <ele>98.19</ele>
        <time>2017-01-26T13:02:10Z</time>
      </trkpt>
      <trkpt lat="44.62382" lon="-0.16632">
        <ele>97.71</ele>
        <time>2017-01-26T13:02:19Z</time>
      </trkpt>
      <trkpt lat="44.62384" lon="-0.16633">
        <ele>96.75</ele>
        <time>2017-01-26T13:02:31Z</time>
      </trkpt>
      <trkpt lat="44.6239" lon="-0.16636">
        <ele>97.71</ele>
        <time>2017-01-26T13:02:42Z</time>
      </trkpt>
      <trkpt lat="44.62392" lon="-0.1664">
        <ele>97.71</ele>
        <time>2017-01-26T13:02:49Z</time>
      </trkpt>
      <trkpt lat="44.62395" lon="-0.16658">
        <ele>97.23</ele>
        <time>2017-01-26T13:03:03Z</time>
      </trkpt>
      <trkpt lat="44.624" lon="-0.16679">
        <ele>95.79</ele>
        <time>2017-01-26T13:03:19Z</time>
      </trkpt>
      <trkpt lat="44.62399" lon="-0.16682">
        <ele>95.31</ele>
        <time>2017-01-26T13:03:26Z</time>
      </trkpt>
      <trkpt lat="44.624" lon="-0.16684">
        <ele>95.79</ele>
        <time>2017-01-26T13:03:28Z</time>
      </trkpt>
      <trkpt lat="44.62403" lon="-0.16698">
        <ele>94.83</ele>
        <time>2017-01-26T13:03:39Z</time>
      </trkpt>
      <trkpt lat="44.62408" lon="-0.16722">
        <ele>92.9</ele>
        <time>2017-01-26T13:03:55Z</time>
      </trkpt>
      <trkpt lat="44.6241" lon="-0.16728">
        <ele>92.42</ele>
        <time>2017-01-26T13:03:59Z</time>
      </trkpt>
      <trkpt lat="44.62414" lon="-0.16753">
        <ele>90.5</ele>
        <time>2017-01-26T13:04:15Z</time>
      </trkpt>
      <trkpt lat="44.62416" lon="-0.16778">
        <ele>89.06</ele>
        <time>2017-01-26T13:04:31Z</time>
      </trkpt>
      <trkpt lat="44.62418" lon="-0.16803">
        <ele>86.66</ele>
        <time>2017-01-26T13:04:46Z</time>
      </trkpt>
      <trkpt lat="44.62418" lon="-0.16813">
        <ele>85.69</ele>
        <time>2017-01-26T13:04:53Z</time>
      </trkpt>
      <trkpt lat="44.62417" lon="-0.16824">
        <ele>84.73</ele>
        <time>2017-01-26T13:04:59Z</time>
      </trkpt>
      <trkpt lat="44.6242" lon="-0.1685">
        <ele>83.77</ele>
        <time>2017-01-26T13:05:16Z</time>
      </trkpt>
      <trkpt lat="44.62421" lon="-0.16856">
        <ele>82.33</ele>
        <time>2017-01-26T13:05:20Z</time>
      </trkpt>
      <trkpt lat="44.62423" lon="-0.16888">
        <ele>79.93</ele>
        <time>2017-01-26T13:05:40Z</time>
      </trkpt>
      <trkpt lat="44.62426" lon="-0.16915">
        <ele>78.48</ele>
        <time>2017-01-26T13:05:58Z</time>
      </trkpt>
      <trkpt lat="44.62431" lon="-0.16936">
        <ele>78</ele>
        <time>2017-01-26T13:06:13Z</time>
      </trkpt>
      <trkpt lat="44.62435" lon="-0.1696">
        <ele>77.52</ele>
        <time>2017-01-26T13:06:28Z</time>
      </trkpt>
      <trkpt lat="44.62441" lon="-0.16987">
        <ele>77.04</ele>
        <time>2017-01-26T13:06:46Z</time>
      </trkpt>
      <trkpt lat="44.62447" lon="-0.17016">
        <ele>76.56</ele>
        <time>2017-01-26T13:07:05Z</time>
      </trkpt>
      <trkpt lat="44.62454" lon="-0.17041">
        <ele>76.08</ele>
        <time>2017-01-26T13:07:21Z</time>
      </trkpt>
      <trkpt lat="44.6246" lon="-0.17066">
        <ele>76.08</ele>
        <time>2017-01-26T13:07:36Z</time>
      </trkpt>
      <trkpt lat="44.62465" lon="-0.17084">
        <ele>75.6</ele>
        <time>2017-01-26T13:07:49Z</time>
      </trkpt>
      <trkpt lat="44.62474" lon="-0.17109">
        <ele>75.6</ele>
        <time>2017-01-26T13:08:06Z</time>
      </trkpt>
      <trkpt lat="44.62481" lon="-0.17137">
        <ele>75.6</ele>
        <time>2017-01-26T13:08:24Z</time>
      </trkpt>
      <trkpt lat="44.62488" lon="-0.17163">
        <ele>75.12</ele>
        <time>2017-01-26T13:08:42Z</time>
      </trkpt>
      <trkpt lat="44.62498" lon="-0.1719">
        <ele>75.12</ele>
        <time>2017-01-26T13:08:59Z</time>
      </trkpt>
      <trkpt lat="44.62506" lon="-0.17216">
        <ele>75.12</ele>
        <time>2017-01-26T13:09:16Z</time>
      </trkpt>
      <trkpt lat="44.62513" lon="-0.17246">
        <ele>75.12</ele>
        <time>2017-01-26T13:09:34Z</time>
      </trkpt>
      <trkpt lat="44.62516" lon="-0.17274">
        <ele>74.64</ele>
        <time>2017-01-26T13:09:52Z</time>
      </trkpt>
      <trkpt lat="44.62521" lon="-0.17295">
        <ele>75.12</ele>
        <time>2017-01-26T13:10:06Z</time>
      </trkpt>
      <trkpt lat="44.62527" lon="-0.17302">
        <ele>75.12</ele>
        <time>2017-01-26T13:10:13Z</time>
      </trkpt>
      <trkpt lat="44.62531" lon="-0.1733">
        <ele>75.12</ele>
        <time>2017-01-26T13:10:30Z</time>
      </trkpt>
      <trkpt lat="44.62532" lon="-0.17359">
        <ele>75.12</ele>
        <time>2017-01-26T13:10:47Z</time>
      </trkpt>
      <trkpt lat="44.62534" lon="-0.17382">
        <ele>75.6</ele>
        <time>2017-01-26T13:11:02Z</time>
      </trkpt>
      <trkpt lat="44.62534" lon="-0.17388">
        <ele>75.12</ele>
        <time>2017-01-26T13:11:06Z</time>
      </trkpt>
      <trkpt lat="44.6254" lon="-0.17411">
        <ele>75.12</ele>
        <time>2017-01-26T13:11:21Z</time>
      </trkpt>
      <trkpt lat="44.62546" lon="-0.1743">
        <ele>74.16</ele>
        <time>2017-01-26T13:11:36Z</time>
      </trkpt>
      <trkpt lat="44.62548" lon="-0.17434">
        <ele>74.16</ele>
        <time>2017-01-26T13:11:48Z</time>
      </trkpt>
      <trkpt lat="44.62548" lon="-0.17434">
        <ele>74.16</ele>
        <time>2017-01-26T13:12:09Z</time>
      </trkpt>
      <trkpt lat="44.62548" lon="-0.17434">
        <ele>74.16</ele>
        <time>2017-01-26T13:12:22Z</time>
      </trkpt>
      <trkpt lat="44.62548" lon="-0.17435">
        <ele>74.16</ele>
        <time>2017-01-26T13:12:37Z</time>
      </trkpt>
      <trkpt lat="44.62548" lon="-0.17435">
        <ele>74.16</ele>
        <time>2017-01-26T13:12:40Z</time>
      </trkpt>
      <trkpt lat="44.6255" lon="-0.17441">
        <ele>74.16</ele>
        <time>2017-01-26T13:12:52Z</time>
      </trkpt>
      <trkpt lat="44.62551" lon="-0.17442">
        <ele>74.16</ele>
        <time>2017-01-26T13:12:54Z</time>
      </trkpt>
      <trkpt lat="44.62558" lon="-0.17443">
        <ele>74.16</ele>
        <time>2017-01-26T13:13:08Z</time>
      </trkpt>
      <trkpt lat="44.62556" lon="-0.17445">
        <ele>73.68</ele>
        <time>2017-01-26T13:13:21Z</time>
      </trkpt>
      <trkpt lat="44.62555" lon="-0.17446">
        <ele>74.16</ele>
        <time>2017-01-26T13:13:22Z</time>
      </trkpt>
      <trkpt lat="44.62554" lon="-0.17449">
        <ele>73.2</ele>
        <time>2017-01-26T13:13:24Z</time>
      </trkpt>
      <trkpt lat="44.62548" lon="-0.17468">
        <ele>73.2</ele>
        <time>2017-01-26T13:13:36Z</time>
      </trkpt>
      <trkpt lat="44.62544" lon="-0.17485">
        <ele>72.72</ele>
        <time>2017-01-26T13:13:48Z</time>
      </trkpt>
      <trkpt lat="44.62538" lon="-0.17505">
        <ele>72.24</ele>
        <time>2017-01-26T13:14:01Z</time>
      </trkpt>
      <trkpt lat="44.6253" lon="-0.17525">
        <ele>71.76</ele>
        <time>2017-01-26T13:14:14Z</time>
      </trkpt>
      <trkpt lat="44.62526" lon="-0.17543">
        <ele>70.31</ele>
        <time>2017-01-26T13:14:26Z</time>
      </trkpt>
      <trkpt lat="44.62519" lon="-0.17569">
        <ele>69.35</ele>
        <time>2017-01-26T13:14:42Z</time>
      </trkpt>
      <trkpt lat="44.62512" lon="-0.17592">
        <ele>68.39</ele>
        <time>2017-01-26T13:14:57Z</time>
      </trkpt>
      <trkpt lat="44.62505" lon="-0.17623">
        <ele>66.95</ele>
        <time>2017-01-26T13:15:14Z</time>
      </trkpt>
      <trkpt lat="44.62499" lon="-0.17645">
        <ele>65.99</ele>
        <time>2017-01-26T13:15:28Z</time>
      </trkpt>
      <trkpt lat="44.62492" lon="-0.17674">
        <ele>65.03</ele>
        <time>2017-01-26T13:15:45Z</time>
      </trkpt>
      <trkpt lat="44.62485" lon="-0.17703">
        <ele>63.58</ele>
        <time>2017-01-26T13:16:02Z</time>
      </trkpt>
      <trkpt lat="44.62478" lon="-0.17729">
        <ele>62.14</ele>
        <time>2017-01-26T13:16:17Z</time>
      </trkpt>
      <trkpt lat="44.62472" lon="-0.17752">
        <ele>62.14</ele>
        <time>2017-01-26T13:16:31Z</time>
      </trkpt>
      <trkpt lat="44.62468" lon="-0.17782">
        <ele>62.14</ele>
        <time>2017-01-26T13:16:48Z</time>
      </trkpt>
      <trkpt lat="44.62466" lon="-0.17811">
        <ele>61.66</ele>
        <time>2017-01-26T13:17:04Z</time>
      </trkpt>
      <trkpt lat="44.62466" lon="-0.17842">
        <ele>61.18</ele>
        <time>2017-01-26T13:17:22Z</time>
      </trkpt>
      <trkpt lat="44.62469" lon="-0.17867">
        <ele>61.18</ele>
        <time>2017-01-26T13:17:37Z</time>
      </trkpt>
      <trkpt lat="44.62469" lon="-0.17868">
        <ele>61.18</ele>
        <time>2017-01-26T13:17:38Z</time>
      </trkpt>
      <trkpt lat="44.62469" lon="-0.17875">
        <ele>61.18</ele>
        <time>2017-01-26T13:17:42Z</time>
      </trkpt>
      <trkpt lat="44.6247" lon="-0.17907">
        <ele>60.7</ele>
        <time>2017-01-26T13:18:00Z</time>
      </trkpt>
      <trkpt lat="44.62472" lon="-0.17935">
        <ele>61.18</ele>
        <time>2017-01-26T13:18:15Z</time>
      </trkpt>
      <trkpt lat="44.62474" lon="-0.17964">
        <ele>60.7</ele>
        <time>2017-01-26T13:18:33Z</time>
      </trkpt>
      <trkpt lat="44.62474" lon="-0.17984">
        <ele>60.7</ele>
        <time>2017-01-26T13:18:46Z</time>
      </trkpt>
      <trkpt lat="44.62476" lon="-0.18014">
        <ele>61.18</ele>
        <time>2017-01-26T13:19:05Z</time>
      </trkpt>
      <trkpt lat="44.62477" lon="-0.18044">
        <ele>60.7</ele>
        <time>2017-01-26T13:19:24Z</time>
      </trkpt>
      <trkpt lat="44.62478" lon="-0.18068">
        <ele>60.7</ele>
        <time>2017-01-26T13:19:39Z</time>
      </trkpt>
      <trkpt lat="44.62482" lon="-0.181">
        <ele>59.74</ele>
        <time>2017-01-26T13:19:58Z</time>
      </trkpt>
      <trkpt lat="44.62482" lon="-0.18129">
        <ele>59.26</ele>
        <time>2017-01-26T13:20:14Z</time>
      </trkpt>
      <trkpt lat="44.62482" lon="-0.18147">
        <ele>58.78</ele>
        <time>2017-01-26T13:20:24Z</time>
      </trkpt>
      <trkpt lat="44.62482" lon="-0.18154">
        <ele>58.3</ele>
        <time>2017-01-26T13:20:28Z</time>
      </trkpt>
      <trkpt lat="44.62484" lon="-0.18184">
        <ele>57.34</ele>
        <time>2017-01-26T13:20:46Z</time>
      </trkpt>
      <trkpt lat="44.6249" lon="-0.18211">
        <ele>56.86</ele>
        <time>2017-01-26T13:21:02Z</time>
      </trkpt>
      <trkpt lat="44.62494" lon="-0.18242">
        <ele>55.41</ele>
        <time>2017-01-26T13:21:20Z</time>
      </trkpt>
      <trkpt lat="44.62497" lon="-0.18271">
        <ele>54.93</ele>
        <time>2017-01-26T13:21:38Z</time>
      </trkpt>
      <trkpt lat="44.62499" lon="-0.18299">
        <ele>53.97</ele>
        <time>2017-01-26T13:21:55Z</time>
      </trkpt>
      <trkpt lat="44.62497" lon="-0.18321">
        <ele>53.01</ele>
        <time>2017-01-26T13:22:09Z</time>
      </trkpt>
      <trkpt lat="44.62491" lon="-0.18345">
        <ele>52.05</ele>
        <time>2017-01-26T13:22:25Z</time>
      </trkpt>
      <trkpt lat="44.62483" lon="-0.18368">
        <ele>53.01</ele>
        <time>2017-01-26T13:22:41Z</time>
      </trkpt>
      <trkpt lat="44.62477" lon="-0.1838">
        <ele>53.49</ele>
        <time>2017-01-26T13:22:53Z</time>
      </trkpt>
      <trkpt lat="44.62475" lon="-0.18394">
        <ele>53.97</ele>
        <time>2017-01-26T13:23:07Z</time>
      </trkpt>
      <trkpt lat="44.62462" lon="-0.18421">
        <ele>54.45</ele>
        <time>2017-01-26T13:23:22Z</time>
      </trkpt>
      <trkpt lat="44.62461" lon="-0.1843">
        <ele>54.45</ele>
        <time>2017-01-26T13:23:25Z</time>
      </trkpt>
      <trkpt lat="44.62461" lon="-0.18435">
        <ele>54.45</ele>
        <time>2017-01-26T13:23:27Z</time>
      </trkpt>
      <trkpt lat="44.62466" lon="-0.1846">
        <ele>54.93</ele>
        <time>2017-01-26T13:23:42Z</time>
      </trkpt>
      <trkpt lat="44.62474" lon="-0.18478">
        <ele>55.89</ele>
        <time>2017-01-26T13:23:55Z</time>
      </trkpt>
      <trkpt lat="44.62478" lon="-0.18488">
        <ele>56.37</ele>
        <time>2017-01-26T13:24:01Z</time>
      </trkpt>
      <trkpt lat="44.62487" lon="-0.18509">
        <ele>57.34</ele>
        <time>2017-01-26T13:24:17Z</time>
      </trkpt>
      <trkpt lat="44.6249" lon="-0.1853">
        <ele>58.3</ele>
        <time>2017-01-26T13:24:31Z</time>
      </trkpt>
      <trkpt lat="44.62496" lon="-0.18555">
        <ele>58.78</ele>
        <time>2017-01-26T13:24:47Z</time>
      </trkpt>
      <trkpt lat="44.62501" lon="-0.18586">
        <ele>59.74</ele>
        <time>2017-01-26T13:25:04Z</time>
      </trkpt>
      <trkpt lat="44.62507" lon="-0.18607">
        <ele>60.7</ele>
        <time>2017-01-26T13:25:19Z</time>
      </trkpt>
      <trkpt lat="44.62512" lon="-0.18627">
        <ele>61.18</ele>
        <time>2017-01-26T13:25:34Z</time>
      </trkpt>
      <trkpt lat="44.62518" lon="-0.18642">
        <ele>62.62</ele>
        <time>2017-01-26T13:25:49Z</time>
      </trkpt>
      <trkpt lat="44.62523" lon="-0.18667">
        <ele>64.07</ele>
        <time>2017-01-26T13:26:04Z</time>
      </trkpt>
      <trkpt lat="44.62524" lon="-0.18668">
        <ele>64.07</ele>
        <time>2017-01-26T13:26:05Z</time>
      </trkpt>
      <trkpt lat="44.62525" lon="-0.18688">
        <ele>65.03</ele>
        <time>2017-01-26T13:26:19Z</time>
      </trkpt>
      <trkpt lat="44.62529" lon="-0.18703">
        <ele>66.47</ele>
        <time>2017-01-26T13:26:32Z</time>
      </trkpt>
      <trkpt lat="44.62536" lon="-0.18719">
        <ele>67.43</ele>
        <time>2017-01-26T13:26:46Z</time>
      </trkpt>
      <trkpt lat="44.62537" lon="-0.18732">
        <ele>67.91</ele>
        <time>2017-01-26T13:27:00Z</time>
      </trkpt>
      <trkpt lat="44.62545" lon="-0.18757">
        <ele>69.35</ele>
        <time>2017-01-26T13:27:15Z</time>
      </trkpt>
      <trkpt lat="44.62547" lon="-0.18761">
        <ele>69.83</ele>
        <time>2017-01-26T13:27:31Z</time>
      </trkpt>
      <trkpt lat="44.62551" lon="-0.18773">
        <ele>70.79</ele>
        <time>2017-01-26T13:27:43Z</time>
      </trkpt>
      <trkpt lat="44.62553" lon="-0.18795">
        <ele>72.24</ele>
        <time>2017-01-26T13:27:58Z</time>
      </trkpt>
      <trkpt lat="44.62554" lon="-0.188">
        <ele>73.2</ele>
        <time>2017-01-26T13:28:04Z</time>
      </trkpt>
      <trkpt lat="44.62564" lon="-0.18819">
        <ele>75.12</ele>
        <time>2017-01-26T13:28:20Z</time>
      </trkpt>
      <trkpt lat="44.62568" lon="-0.1883">
        <ele>76.08</ele>
        <time>2017-01-26T13:28:28Z</time>
      </trkpt>
      <trkpt lat="44.62569" lon="-0.18837">
        <ele>76.56</ele>
        <time>2017-01-26T13:28:32Z</time>
      </trkpt>
      <trkpt lat="44.62573" lon="-0.18862">
        <ele>78.97</ele>
        <time>2017-01-26T13:28:48Z</time>
      </trkpt>
      <trkpt lat="44.62579" lon="-0.18882">
        <ele>80.41</ele>
        <time>2017-01-26T13:29:02Z</time>
      </trkpt>
      <trkpt lat="44.62584" lon="-0.18896">
        <ele>81.85</ele>
        <time>2017-01-26T13:29:15Z</time>
      </trkpt>
      <trkpt lat="44.62589" lon="-0.18915">
        <ele>83.29</ele>
        <time>2017-01-26T13:29:29Z</time>
      </trkpt>
      <trkpt lat="44.62595" lon="-0.18936">
        <ele>85.21</ele>
        <time>2017-01-26T13:29:43Z</time>
      </trkpt>
      <trkpt lat="44.62597" lon="-0.1894">
        <ele>85.21</ele>
        <time>2017-01-26T13:29:47Z</time>
      </trkpt>
      <trkpt lat="44.62606" lon="-0.18938">
        <ele>85.69</ele>
        <time>2017-01-26T13:30:01Z</time>
      </trkpt>
      <trkpt lat="44.62613" lon="-0.18933">
        <ele>85.21</ele>
        <time>2017-01-26T13:30:16Z</time>
      </trkpt>
      <trkpt lat="44.6262" lon="-0.18928">
        <ele>84.73</ele>
        <time>2017-01-26T13:30:30Z</time>
      </trkpt>
      <trkpt lat="44.62624" lon="-0.18925">
        <ele>84.25</ele>
        <time>2017-01-26T13:30:41Z</time>
      </trkpt>
      <trkpt lat="44.62647" lon="-0.18909">
        <ele>83.29</ele>
        <time>2017-01-26T13:30:59Z</time>
      </trkpt>
      <trkpt lat="44.62668" lon="-0.18894">
        <ele>81.37</ele>
        <time>2017-01-26T13:31:16Z</time>
      </trkpt>
      <trkpt lat="44.6268" lon="-0.18884">
        <ele>80.89</ele>
        <time>2017-01-26T13:31:27Z</time>
      </trkpt>
      <trkpt lat="44.62692" lon="-0.18871">
        <ele>80.41</ele>
        <time>2017-01-26T13:31:39Z</time>
      </trkpt>
      <trkpt lat="44.62713" lon="-0.18856">
        <ele>80.41</ele>
        <time>2017-01-26T13:31:58Z</time>
      </trkpt>
      <trkpt lat="44.62724" lon="-0.18847">
        <ele>80.41</ele>
        <time>2017-01-26T13:32:10Z</time>
      </trkpt>
      <trkpt lat="44.62727" lon="-0.18845">
        <ele>80.89</ele>
        <time>2017-01-26T13:32:17Z</time>
      </trkpt>
      <trkpt lat="44.62731" lon="-0.18842">
        <ele>78.97</ele>
        <time>2017-01-26T13:32:25Z</time>
      </trkpt>
      <trkpt lat="44.6274" lon="-0.1883">
        <ele>80.89</ele>
        <time>2017-01-26T13:32:37Z</time>
      </trkpt>
      <trkpt lat="44.62749" lon="-0.1882">
        <ele>80.89</ele>
        <time>2017-01-26T13:32:48Z</time>
      </trkpt>
      <trkpt lat="44.62751" lon="-0.18817">
        <ele>80.41</ele>
        <time>2017-01-26T13:32:52Z</time>
      </trkpt>
      <trkpt lat="44.62757" lon="-0.18819">
        <ele>80.41</ele>
        <time>2017-01-26T13:32:57Z</time>
      </trkpt>
      <trkpt lat="44.62764" lon="-0.18833">
        <ele>77.04</ele>
        <time>2017-01-26T13:33:08Z</time>
      </trkpt>
      <trkpt lat="44.62765" lon="-0.18835">
        <ele>81.85</ele>
        <time>2017-01-26T13:33:09Z</time>
      </trkpt>
      <trkpt lat="44.62773" lon="-0.18857">
        <ele>80.89</ele>
        <time>2017-01-26T13:33:25Z</time>
      </trkpt>
      <trkpt lat="44.62784" lon="-0.18887">
        <ele>81.37</ele>
        <time>2017-01-26T13:33:44Z</time>
      </trkpt>
      <trkpt lat="44.62794" lon="-0.18914">
        <ele>81.85</ele>
        <time>2017-01-26T13:34:02Z</time>
      </trkpt>
      <trkpt lat="44.62802" lon="-0.18937">
        <ele>82.33</ele>
        <time>2017-01-26T13:34:18Z</time>
      </trkpt>
      <trkpt lat="44.62812" lon="-0.18963">
        <ele>82.81</ele>
        <time>2017-01-26T13:34:35Z</time>
      </trkpt>
      <trkpt lat="44.62826" lon="-0.18995">
        <ele>82.33</ele>
        <time>2017-01-26T13:34:56Z</time>
      </trkpt>
      <trkpt lat="44.62837" lon="-0.19029">
        <ele>80.89</ele>
        <time>2017-01-26T13:35:17Z</time>
      </trkpt>
      <trkpt lat="44.62844" lon="-0.19054">
        <ele>79.45</ele>
        <time>2017-01-26T13:35:33Z</time>
      </trkpt>
      <trkpt lat="44.62845" lon="-0.19057">
        <ele>79.45</ele>
        <time>2017-01-26T13:35:35Z</time>
      </trkpt>
      <trkpt lat="44.62855" lon="-0.19085">
        <ele>78</ele>
        <time>2017-01-26T13:35:53Z</time>
      </trkpt>
      <trkpt lat="44.62864" lon="-0.19108">
        <ele>76.56</ele>
        <time>2017-01-26T13:36:09Z</time>
      </trkpt>
      <trkpt lat="44.62867" lon="-0.19117">
        <ele>76.08</ele>
        <time>2017-01-26T13:36:15Z</time>
      </trkpt>
      <trkpt lat="44.62874" lon="-0.19136">
        <ele>75.12</ele>
        <time>2017-01-26T13:36:28Z</time>
      </trkpt>
      <trkpt lat="44.62883" lon="-0.19162">
        <ele>73.68</ele>
        <time>2017-01-26T13:36:45Z</time>
      </trkpt>
      <trkpt lat="44.62884" lon="-0.19167">
        <ele>73.2</ele>
        <time>2017-01-26T13:36:48Z</time>
      </trkpt>
      <trkpt lat="44.62892" lon="-0.19198">
        <ele>71.76</ele>
        <time>2017-01-26T13:37:07Z</time>
      </trkpt>
      <trkpt lat="44.62894" lon="-0.19204">
        <ele>71.27</ele>
        <time>2017-01-26T13:37:20Z</time>
      </trkpt>
      <trkpt lat="44.62894" lon="-0.19203">
        <ele>71.76</ele>
        <time>2017-01-26T13:37:24Z</time>
      </trkpt>
      <trkpt lat="44.629" lon="-0.19227">
        <ele>70.31</ele>
        <time>2017-01-26T13:37:41Z</time>
      </trkpt>
      <trkpt lat="44.62911" lon="-0.1926">
        <ele>68.87</ele>
        <time>2017-01-26T13:38:01Z</time>
      </trkpt>
      <trkpt lat="44.6292" lon="-0.19291">
        <ele>67.91</ele>
        <time>2017-01-26T13:38:21Z</time>
      </trkpt>
      <trkpt lat="44.62932" lon="-0.19323">
        <ele>66.95</ele>
        <time>2017-01-26T13:38:40Z</time>
      </trkpt>
      <trkpt lat="44.62941" lon="-0.19352">
        <ele>66.95</ele>
        <time>2017-01-26T13:38:57Z</time>
      </trkpt>
      <trkpt lat="44.62952" lon="-0.19381">
        <ele>65.99</ele>
        <time>2017-01-26T13:39:15Z</time>
      </trkpt>
      <trkpt lat="44.62965" lon="-0.19415">
        <ele>65.03</ele>
        <time>2017-01-26T13:39:33Z</time>
      </trkpt>
      <trkpt lat="44.62967" lon="-0.19446">
        <ele>64.55</ele>
        <time>2017-01-26T13:39:51Z</time>
      </trkpt>
      <trkpt lat="44.62976" lon="-0.19477">
        <ele>63.58</ele>
        <time>2017-01-26T13:40:09Z</time>
      </trkpt>
      <trkpt lat="44.62982" lon="-0.19499">
        <ele>63.1</ele>
        <time>2017-01-26T13:40:24Z</time>
      </trkpt>
      <trkpt lat="44.62984" lon="-0.19501">
        <ele>63.1</ele>
        <time>2017-01-26T13:40:41Z</time>
      </trkpt>
      <trkpt lat="44.62984" lon="-0.19501">
        <ele>63.1</ele>
        <time>2017-01-26T13:41:02Z</time>
      </trkpt>
      <trkpt lat="44.62983" lon="-0.19501">
        <ele>63.1</ele>
        <time>2017-01-26T13:41:30Z</time>
      </trkpt>
      <trkpt lat="44.62985" lon="-0.19513">
        <ele>63.1</ele>
        <time>2017-01-26T13:41:53Z</time>
      </trkpt>
      <trkpt lat="44.62992" lon="-0.19539">
        <ele>62.62</ele>
        <time>2017-01-26T13:42:08Z</time>
      </trkpt>
      <trkpt lat="44.63004" lon="-0.1955">
        <ele>62.14</ele>
        <time>2017-01-26T13:42:21Z</time>
      </trkpt>
      <trkpt lat="44.63024" lon="-0.19545">
        <ele>62.14</ele>
        <time>2017-01-26T13:42:39Z</time>
      </trkpt>
      <trkpt lat="44.63042" lon="-0.1954">
        <ele>62.14</ele>
        <time>2017-01-26T13:42:53Z</time>
      </trkpt>
      <trkpt lat="44.63044" lon="-0.1954">
        <ele>62.14</ele>
        <time>2017-01-26T13:42:54Z</time>
      </trkpt>
      <trkpt lat="44.63061" lon="-0.19537">
        <ele>62.14</ele>
        <time>2017-01-26T13:43:08Z</time>
      </trkpt>
      <trkpt lat="44.63083" lon="-0.19532">
        <ele>60.7</ele>
        <time>2017-01-26T13:43:24Z</time>
      </trkpt>
      <trkpt lat="44.631" lon="-0.1953">
        <ele>58.78</ele>
        <time>2017-01-26T13:43:39Z</time>
      </trkpt>
      <trkpt lat="44.63121" lon="-0.19526">
        <ele>57.82</ele>
        <time>2017-01-26T13:43:56Z</time>
      </trkpt>
      <trkpt lat="44.63145" lon="-0.19525">
        <ele>60.22</ele>
        <time>2017-01-26T13:44:13Z</time>
      </trkpt>
      <trkpt lat="44.63166" lon="-0.19521">
        <ele>60.7</ele>
        <time>2017-01-26T13:44:28Z</time>
      </trkpt>
      <trkpt lat="44.63182" lon="-0.19517">
        <ele>61.18</ele>
        <time>2017-01-26T13:44:42Z</time>
      </trkpt>
      <trkpt lat="44.63189" lon="-0.19514">
        <ele>61.18</ele>
        <time>2017-01-26T13:44:49Z</time>
      </trkpt>
      <trkpt lat="44.63201" lon="-0.19498">
        <ele>61.66</ele>
        <time>2017-01-26T13:45:04Z</time>
      </trkpt>
      <trkpt lat="44.63202" lon="-0.19496">
        <ele>62.14</ele>
        <time>2017-01-26T13:45:06Z</time>
      </trkpt>
      <trkpt lat="44.6321" lon="-0.19484">
        <ele>62.14</ele>
        <time>2017-01-26T13:45:15Z</time>
      </trkpt>
      <trkpt lat="44.63222" lon="-0.1947">
        <ele>63.1</ele>
        <time>2017-01-26T13:45:28Z</time>
      </trkpt>
      <trkpt lat="44.63224" lon="-0.19466">
        <ele>63.58</ele>
        <time>2017-01-26T13:45:31Z</time>
      </trkpt>
      <trkpt lat="44.6323" lon="-0.1946">
        <ele>63.58</ele>
        <time>2017-01-26T13:45:37Z</time>
      </trkpt>
      <trkpt lat="44.63233" lon="-0.19457">
        <ele>64.07</ele>
        <time>2017-01-26T13:45:40Z</time>
      </trkpt>
      <trkpt lat="44.63238" lon="-0.19451">
        <ele>64.55</ele>
        <time>2017-01-26T13:45:46Z</time>
      </trkpt>
      <trkpt lat="44.6325" lon="-0.1944">
        <ele>65.03</ele>
        <time>2017-01-26T13:45:56Z</time>
      </trkpt>
      <trkpt lat="44.6326" lon="-0.19425">
        <ele>66.47</ele>
        <time>2017-01-26T13:46:08Z</time>
      </trkpt>
      <trkpt lat="44.63277" lon="-0.19409">
        <ele>66.47</ele>
        <time>2017-01-26T13:46:24Z</time>
      </trkpt>
      <trkpt lat="44.63292" lon="-0.1939">
        <ele>66.47</ele>
        <time>2017-01-26T13:46:40Z</time>
      </trkpt>
      <trkpt lat="44.63295" lon="-0.19386">
        <ele>66.95</ele>
        <time>2017-01-26T13:46:43Z</time>
      </trkpt>
      <trkpt lat="44.63308" lon="-0.19363">
        <ele>66.47</ele>
        <time>2017-01-26T13:47:01Z</time>
      </trkpt>
      <trkpt lat="44.63324" lon="-0.19347">
        <ele>65.03</ele>
        <time>2017-01-26T13:47:17Z</time>
      </trkpt>
      <trkpt lat="44.63327" lon="-0.19343">
        <ele>65.03</ele>
        <time>2017-01-26T13:47:20Z</time>
      </trkpt>
      <trkpt lat="44.63332" lon="-0.19338">
        <ele>65.03</ele>
        <time>2017-01-26T13:47:25Z</time>
      </trkpt>
      <trkpt lat="44.63349" lon="-0.19322">
        <ele>64.55</ele>
        <time>2017-01-26T13:47:41Z</time>
      </trkpt>
      <trkpt lat="44.63353" lon="-0.19317">
        <ele>63.58</ele>
        <time>2017-01-26T13:47:46Z</time>
      </trkpt>
      <trkpt lat="44.6336" lon="-0.19319">
        <ele>63.1</ele>
        <time>2017-01-26T13:47:52Z</time>
      </trkpt>
      <trkpt lat="44.63362" lon="-0.19321">
        <ele>63.1</ele>
        <time>2017-01-26T13:47:54Z</time>
      </trkpt>
      <trkpt lat="44.63369" lon="-0.19348">
        <ele>61.18</ele>
        <time>2017-01-26T13:48:09Z</time>
      </trkpt>
      <trkpt lat="44.63374" lon="-0.19367">
        <ele>59.26</ele>
        <time>2017-01-26T13:48:22Z</time>
      </trkpt>
      <trkpt lat="44.63374" lon="-0.1937">
        <ele>58.78</ele>
        <time>2017-01-26T13:48:24Z</time>
      </trkpt>
      <trkpt lat="44.63378" lon="-0.19385">
        <ele>57.34</ele>
        <time>2017-01-26T13:48:39Z</time>
      </trkpt>
      <trkpt lat="44.63382" lon="-0.19395">
        <ele>56.37</ele>
        <time>2017-01-26T13:48:57Z</time>
      </trkpt>
      <trkpt lat="44.63387" lon="-0.1941">
        <ele>54.45</ele>
        <time>2017-01-26T13:49:15Z</time>
      </trkpt>
      <trkpt lat="44.63392" lon="-0.19431">
        <ele>52.53</ele>
        <time>2017-01-26T13:49:31Z</time>
      </trkpt>
      <trkpt lat="44.63397" lon="-0.19451">
        <ele>51.57</ele>
        <time>2017-01-26T13:49:45Z</time>
      </trkpt>
      <trkpt lat="44.63401" lon="-0.19469">
        <ele>51.09</ele>
        <time>2017-01-26T13:49:58Z</time>
      </trkpt>
      <trkpt lat="44.63404" lon="-0.19475">
        <ele>51.09</ele>
        <time>2017-01-26T13:50:02Z</time>
      </trkpt>
      <trkpt lat="44.63406" lon="-0.19487">
        <ele>51.09</ele>
        <time>2017-01-26T13:50:10Z</time>
      </trkpt>
      <trkpt lat="44.63412" lon="-0.19505">
        <ele>51.57</ele>
        <time>2017-01-26T13:50:24Z</time>
      </trkpt>
      <trkpt lat="44.63421" lon="-0.19523">
        <ele>52.05</ele>
        <time>2017-01-26T13:50:39Z</time>
      </trkpt>
      <trkpt lat="44.6343" lon="-0.19539">
        <ele>53.01</ele>
        <time>2017-01-26T13:50:53Z</time>
      </trkpt>
      <trkpt lat="44.63433" lon="-0.19546">
        <ele>53.01</ele>
        <time>2017-01-26T13:50:57Z</time>
      </trkpt>
      <trkpt lat="44.63438" lon="-0.19558">
        <ele>56.37</ele>
        <time>2017-01-26T13:51:06Z</time>
      </trkpt>
      <trkpt lat="44.63439" lon="-0.1956">
        <ele>54.45</ele>
        <time>2017-01-26T13:51:07Z</time>
      </trkpt>
      <trkpt lat="44.63449" lon="-0.19583">
        <ele>55.41</ele>
        <time>2017-01-26T13:51:24Z</time>
      </trkpt>
      <trkpt lat="44.6346" lon="-0.19602">
        <ele>56.37</ele>
        <time>2017-01-26T13:51:39Z</time>
      </trkpt>
      <trkpt lat="44.63467" lon="-0.19618">
        <ele>57.34</ele>
        <time>2017-01-26T13:51:53Z</time>
      </trkpt>
      <trkpt lat="44.63476" lon="-0.19638">
        <ele>58.3</ele>
        <time>2017-01-26T13:52:07Z</time>
      </trkpt>
      <trkpt lat="44.63476" lon="-0.19643">
        <ele>58.78</ele>
        <time>2017-01-26T13:52:10Z</time>
      </trkpt>
      <trkpt lat="44.63478" lon="-0.1965">
        <ele>59.26</ele>
        <time>2017-01-26T13:52:27Z</time>
      </trkpt>
      <trkpt lat="44.63479" lon="-0.1965">
        <ele>58.78</ele>
        <time>2017-01-26T13:52:43Z</time>
      </trkpt>
      <trkpt lat="44.6348" lon="-0.1965">
        <ele>58.78</ele>
        <time>2017-01-26T13:53:09Z</time>
      </trkpt>
      <trkpt lat="44.6348" lon="-0.1965">
        <ele>62.14</ele>
        <time>2017-01-26T13:53:18Z</time>
      </trkpt>
      <trkpt lat="44.6348" lon="-0.1965">
        <ele>58.78</ele>
        <time>2017-01-26T13:53:19Z</time>
      </trkpt>
      <trkpt lat="44.6348" lon="-0.19651">
        <ele>56.37</ele>
        <time>2017-01-26T13:53:37Z</time>
      </trkpt>
      <trkpt lat="44.6348" lon="-0.19651">
        <ele>60.22</ele>
        <time>2017-01-26T13:53:38Z</time>
      </trkpt>
      <trkpt lat="44.63479" lon="-0.19651">
        <ele>58.3</ele>
        <time>2017-01-26T13:54:03Z</time>
      </trkpt>
      <trkpt lat="44.63479" lon="-0.19651">
        <ele>58.78</ele>
        <time>2017-01-26T13:54:29Z</time>
      </trkpt>
      <trkpt lat="44.6348" lon="-0.19651">
        <ele>58.3</ele>
        <time>2017-01-26T13:54:50Z</time>
      </trkpt>
      <trkpt lat="44.63482" lon="-0.19658">
        <ele>58.78</ele>
        <time>2017-01-26T13:55:04Z</time>
      </trkpt>
      <trkpt lat="44.63483" lon="-0.19663">
        <ele>59.26</ele>
        <time>2017-01-26T13:55:27Z</time>
      </trkpt>
      <trkpt lat="44.63483" lon="-0.19664">
        <ele>59.26</ele>
        <time>2017-01-26T13:55:28Z</time>
      </trkpt>
      <trkpt lat="44.63483" lon="-0.19671">
        <ele>59.74</ele>
        <time>2017-01-26T13:55:32Z</time>
      </trkpt>
      <trkpt lat="44.6348" lon="-0.19686">
        <ele>59.26</ele>
        <time>2017-01-26T13:55:41Z</time>
      </trkpt>
      <trkpt lat="44.63483" lon="-0.19717">
        <ele>58.78</ele>
        <time>2017-01-26T13:55:58Z</time>
      </trkpt>
      <trkpt lat="44.63489" lon="-0.19748">
        <ele>59.26</ele>
        <time>2017-01-26T13:56:16Z</time>
      </trkpt>
      <trkpt lat="44.63494" lon="-0.19775">
        <ele>59.26</ele>
        <time>2017-01-26T13:56:32Z</time>
      </trkpt>
      <trkpt lat="44.63501" lon="-0.19788">
        <ele>59.26</ele>
        <time>2017-01-26T13:56:43Z</time>
      </trkpt>
      <trkpt lat="44.63507" lon="-0.19793">
        <ele>59.74</ele>
        <time>2017-01-26T13:56:48Z</time>
      </trkpt>
      <trkpt lat="44.63525" lon="-0.19816">
        <ele>58.3</ele>
        <time>2017-01-26T13:57:07Z</time>
      </trkpt>
      <trkpt lat="44.63533" lon="-0.19828">
        <ele>58.3</ele>
        <time>2017-01-26T13:57:17Z</time>
      </trkpt>
      <trkpt lat="44.63537" lon="-0.19832">
        <ele>58.3</ele>
        <time>2017-01-26T13:57:21Z</time>
      </trkpt>
      <trkpt lat="44.6354" lon="-0.19841">
        <ele>57.34</ele>
        <time>2017-01-26T13:57:27Z</time>
      </trkpt>
      <trkpt lat="44.63536" lon="-0.1985">
        <ele>56.86</ele>
        <time>2017-01-26T13:57:33Z</time>
      </trkpt>
      <trkpt lat="44.63525" lon="-0.19872">
        <ele>55.41</ele>
        <time>2017-01-26T13:57:48Z</time>
      </trkpt>
      <trkpt lat="44.63523" lon="-0.19875">
        <ele>55.41</ele>
        <time>2017-01-26T13:57:50Z</time>
      </trkpt>
      <trkpt lat="44.63521" lon="-0.19876">
        <ele>55.41</ele>
        <time>2017-01-26T13:57:52Z</time>
      </trkpt>
      <trkpt lat="44.63518" lon="-0.19881">
        <ele>55.41</ele>
        <time>2017-01-26T13:57:56Z</time>
      </trkpt>
      <trkpt lat="44.63508" lon="-0.19893">
        <ele>54.45</ele>
        <time>2017-01-26T13:58:08Z</time>
      </trkpt>
      <trkpt lat="44.63495" lon="-0.19925">
        <ele>53.97</ele>
        <time>2017-01-26T13:58:27Z</time>
      </trkpt>
      <trkpt lat="44.63494" lon="-0.19927">
        <ele>53.97</ele>
        <time>2017-01-26T13:58:28Z</time>
      </trkpt>
      <trkpt lat="44.63495" lon="-0.1993">
        <ele>53.97</ele>
        <time>2017-01-26T13:58:30Z</time>
      </trkpt>
      <trkpt lat="44.6351" lon="-0.19944">
        <ele>53.97</ele>
        <time>2017-01-26T13:58:46Z</time>
      </trkpt>
      <trkpt lat="44.63523" lon="-0.19957">
        <ele>53.97</ele>
        <time>2017-01-26T13:59:00Z</time>
      </trkpt>
      <trkpt lat="44.6354" lon="-0.1997">
        <ele>53.49</ele>
        <time>2017-01-26T13:59:16Z</time>
      </trkpt>
      <trkpt lat="44.63564" lon="-0.19991">
        <ele>53.97</ele>
        <time>2017-01-26T13:59:36Z</time>
      </trkpt>
      <trkpt lat="44.63589" lon="-0.20012">
        <ele>53.49</ele>
        <time>2017-01-26T13:59:58Z</time>
      </trkpt>
      <trkpt lat="44.63608" lon="-0.20032">
        <ele>54.45</ele>
        <time>2017-01-26T14:00:17Z</time>
      </trkpt>
      <trkpt lat="44.6363" lon="-0.2005">
        <ele>54.93</ele>
        <time>2017-01-26T14:00:35Z</time>
      </trkpt>
      <trkpt lat="44.6365" lon="-0.20062">
        <ele>54.45</ele>
        <time>2017-01-26T14:00:52Z</time>
      </trkpt>
      <trkpt lat="44.63673" lon="-0.20076">
        <ele>54.93</ele>
        <time>2017-01-26T14:01:11Z</time>
      </trkpt>
      <trkpt lat="44.6369" lon="-0.20088">
        <ele>54.93</ele>
        <time>2017-01-26T14:01:24Z</time>
      </trkpt>
      <trkpt lat="44.63711" lon="-0.20101">
        <ele>55.41</ele>
        <time>2017-01-26T14:01:42Z</time>
      </trkpt>
      <trkpt lat="44.63714" lon="-0.20103">
        <ele>55.89</ele>
        <time>2017-01-26T14:01:45Z</time>
      </trkpt>
      <trkpt lat="44.63734" lon="-0.20122">
        <ele>55.89</ele>
        <time>2017-01-26T14:02:03Z</time>
      </trkpt>
      <trkpt lat="44.6375" lon="-0.20139">
        <ele>55.89</ele>
        <time>2017-01-26T14:02:19Z</time>
      </trkpt>
      <trkpt lat="44.63768" lon="-0.20155">
        <ele>55.89</ele>
        <time>2017-01-26T14:02:35Z</time>
      </trkpt>
      <trkpt lat="44.63772" lon="-0.20159">
        <ele>56.37</ele>
        <time>2017-01-26T14:02:46Z</time>
      </trkpt>
      <trkpt lat="44.63771" lon="-0.20159">
        <ele>55.41</ele>
        <time>2017-01-26T14:02:54Z</time>
      </trkpt>
      <trkpt lat="44.63757" lon="-0.20147">
        <ele>54.93</ele>
        <time>2017-01-26T14:03:10Z</time>
      </trkpt>
      <trkpt lat="44.63752" lon="-0.20142">
        <ele>54.93</ele>
        <time>2017-01-26T14:03:25Z</time>
      </trkpt>
      <trkpt lat="44.63758" lon="-0.20133">
        <ele>55.89</ele>
        <time>2017-01-26T14:03:38Z</time>
      </trkpt>
      <trkpt lat="44.63759" lon="-0.20133">
        <ele>55.89</ele>
        <time>2017-01-26T14:03:40Z</time>
      </trkpt>
      <trkpt lat="44.63761" lon="-0.20129">
        <ele>56.37</ele>
        <time>2017-01-26T14:03:48Z</time>
      </trkpt>
      <trkpt lat="44.6376" lon="-0.20131">
        <ele>56.37</ele>
        <time>2017-01-26T14:03:50Z</time>
      </trkpt>
      <trkpt lat="44.63756" lon="-0.20137">
        <ele>55.89</ele>
        <time>2017-01-26T14:03:55Z</time>
      </trkpt>
      <trkpt lat="44.63736" lon="-0.20125">
        <ele>54.93</ele>
        <time>2017-01-26T14:04:14Z</time>
      </trkpt>
      <trkpt lat="44.63718" lon="-0.20108">
        <ele>54.93</ele>
        <time>2017-01-26T14:04:31Z</time>
      </trkpt>
      <trkpt lat="44.63706" lon="-0.20101">
        <ele>54.93</ele>
        <time>2017-01-26T14:04:43Z</time>
      </trkpt>
      <trkpt lat="44.63696" lon="-0.20121">
        <ele>54.45</ele>
        <time>2017-01-26T14:04:59Z</time>
      </trkpt>
      <trkpt lat="44.63687" lon="-0.20139">
        <ele>54.45</ele>
        <time>2017-01-26T14:05:14Z</time>
      </trkpt>
      <trkpt lat="44.63679" lon="-0.20161">
        <ele>53.97</ele>
        <time>2017-01-26T14:05:29Z</time>
      </trkpt>
      <trkpt lat="44.63673" lon="-0.2018">
        <ele>54.93</ele>
        <time>2017-01-26T14:05:44Z</time>
      </trkpt>
      <trkpt lat="44.63675" lon="-0.20185">
        <ele>54.93</ele>
        <time>2017-01-26T14:05:54Z</time>
      </trkpt>
      <trkpt lat="44.63684" lon="-0.20193">
        <ele>54.93</ele>
        <time>2017-01-26T14:06:07Z</time>
      </trkpt>
      <trkpt lat="44.63687" lon="-0.20196">
        <ele>54.45</ele>
        <time>2017-01-26T14:06:22Z</time>
      </trkpt>
      <trkpt lat="44.637" lon="-0.20207">
        <ele>55.41</ele>
        <time>2017-01-26T14:06:36Z</time>
      </trkpt>
      <trkpt lat="44.63713" lon="-0.20217">
        <ele>56.37</ele>
        <time>2017-01-26T14:06:52Z</time>
      </trkpt>
      <trkpt lat="44.63722" lon="-0.20225">
        <ele>56.86</ele>
        <time>2017-01-26T14:07:06Z</time>
      </trkpt>
      <trkpt lat="44.63734" lon="-0.20235">
        <ele>56.86</ele>
        <time>2017-01-26T14:07:20Z</time>
      </trkpt>
      <trkpt lat="44.63751" lon="-0.2025">
        <ele>57.34</ele>
        <time>2017-01-26T14:07:39Z</time>
      </trkpt>
      <trkpt lat="44.63767" lon="-0.20264">
        <ele>58.3</ele>
        <time>2017-01-26T14:07:56Z</time>
      </trkpt>
      <trkpt lat="44.63783" lon="-0.20276">
        <ele>58.3</ele>
        <time>2017-01-26T14:08:11Z</time>
      </trkpt>
      <trkpt lat="44.63797" lon="-0.20288">
        <ele>58.78</ele>
        <time>2017-01-26T14:08:27Z</time>
      </trkpt>
      <trkpt lat="44.63817" lon="-0.20302">
        <ele>58.78</ele>
        <time>2017-01-26T14:08:44Z</time>
      </trkpt>
      <trkpt lat="44.63831" lon="-0.20315">
        <ele>58.3</ele>
        <time>2017-01-26T14:08:59Z</time>
      </trkpt>
      <trkpt lat="44.63847" lon="-0.20327">
        <ele>58.78</ele>
        <time>2017-01-26T14:09:16Z</time>
      </trkpt>
      <trkpt lat="44.63861" lon="-0.20339">
        <ele>58.78</ele>
        <time>2017-01-26T14:09:31Z</time>
      </trkpt>
      <trkpt lat="44.6387" lon="-0.20348">
        <ele>59.26</ele>
        <time>2017-01-26T14:09:41Z</time>
      </trkpt>
      <trkpt lat="44.63882" lon="-0.20356">
        <ele>59.26</ele>
        <time>2017-01-26T14:09:52Z</time>
      </trkpt>
      <trkpt lat="44.63895" lon="-0.20367">
        <ele>59.74</ele>
        <time>2017-01-26T14:10:06Z</time>
      </trkpt>
      <trkpt lat="44.63907" lon="-0.20378">
        <ele>59.74</ele>
        <time>2017-01-26T14:10:18Z</time>
      </trkpt>
      <trkpt lat="44.63922" lon="-0.20391">
        <ele>60.22</ele>
        <time>2017-01-26T14:10:34Z</time>
      </trkpt>
      <trkpt lat="44.63935" lon="-0.20405">
        <ele>60.7</ele>
        <time>2017-01-26T14:10:48Z</time>
      </trkpt>
      <trkpt lat="44.63946" lon="-0.20426">
        <ele>61.18</ele>
        <time>2017-01-26T14:11:04Z</time>
      </trkpt>
      <trkpt lat="44.63961" lon="-0.20446">
        <ele>61.66</ele>
        <time>2017-01-26T14:11:22Z</time>
      </trkpt>
      <trkpt lat="44.63973" lon="-0.20463">
        <ele>61.66</ele>
        <time>2017-01-26T14:11:38Z</time>
      </trkpt>
      <trkpt lat="44.63978" lon="-0.20471">
        <ele>61.66</ele>
        <time>2017-01-26T14:11:51Z</time>
      </trkpt>
      <trkpt lat="44.63978" lon="-0.2047">
        <ele>61.18</ele>
        <time>2017-01-26T14:12:09Z</time>
      </trkpt>
      <trkpt lat="44.63978" lon="-0.2047">
        <ele>61.18</ele>
        <time>2017-01-26T14:12:22Z</time>
      </trkpt>
      <trkpt lat="44.63978" lon="-0.20475">
        <ele>61.66</ele>
        <time>2017-01-26T14:12:34Z</time>
      </trkpt>
      <trkpt lat="44.63979" lon="-0.20476">
        <ele>61.18</ele>
        <time>2017-01-26T14:12:46Z</time>
      </trkpt>
      <trkpt lat="44.6398" lon="-0.20477">
        <ele>61.18</ele>
        <time>2017-01-26T14:12:47Z</time>
      </trkpt>
      <trkpt lat="44.63998" lon="-0.20496">
        <ele>61.66</ele>
        <time>2017-01-26T14:13:06Z</time>
      </trkpt>
      <trkpt lat="44.64001" lon="-0.205">
        <ele>62.14</ele>
        <time>2017-01-26T14:13:10Z</time>
      </trkpt>
      <trkpt lat="44.6401" lon="-0.20514">
        <ele>62.14</ele>
        <time>2017-01-26T14:13:21Z</time>
      </trkpt>
      <trkpt lat="44.64023" lon="-0.20535">
        <ele>62.62</ele>
        <time>2017-01-26T14:13:38Z</time>
      </trkpt>
      <trkpt lat="44.64034" lon="-0.20552">
        <ele>62.62</ele>
        <time>2017-01-26T14:13:53Z</time>
      </trkpt>
      <trkpt lat="44.64035" lon="-0.20554">
        <ele>62.62</ele>
        <time>2017-01-26T14:13:55Z</time>
      </trkpt>
      <trkpt lat="44.64042" lon="-0.20573">
        <ele>63.58</ele>
        <time>2017-01-26T14:14:09Z</time>
      </trkpt>
      <trkpt lat="44.64033" lon="-0.20573">
        <ele>64.07</ele>
        <time>2017-01-26T14:14:20Z</time>
      </trkpt>
      <trkpt lat="44.64034" lon="-0.20573">
        <ele>64.07</ele>
        <time>2017-01-26T14:14:24Z</time>
      </trkpt>
      <trkpt lat="44.64049" lon="-0.20578">
        <ele>63.58</ele>
        <time>2017-01-26T14:14:37Z</time>
      </trkpt>
      <trkpt lat="44.64051" lon="-0.2059">
        <ele>63.1</ele>
        <time>2017-01-26T14:14:44Z</time>
      </trkpt>
      <trkpt lat="44.64051" lon="-0.20594">
        <ele>66.95</ele>
        <time>2017-01-26T14:14:46Z</time>
      </trkpt>
      <trkpt lat="44.64051" lon="-0.20595">
        <ele>61.66</ele>
        <time>2017-01-26T14:14:47Z</time>
      </trkpt>
      <trkpt lat="44.6405" lon="-0.20597">
        <ele>66.95</ele>
        <time>2017-01-26T14:14:48Z</time>
      </trkpt>
      <trkpt lat="44.64047" lon="-0.20615">
        <ele>63.58</ele>
        <time>2017-01-26T14:14:58Z</time>
      </trkpt>
      <trkpt lat="44.64043" lon="-0.20637">
        <ele>64.07</ele>
        <time>2017-01-26T14:15:11Z</time>
      </trkpt>
      <trkpt lat="44.64043" lon="-0.20648">
        <ele>64.07</ele>
        <time>2017-01-26T14:15:16Z</time>
      </trkpt>
      <trkpt lat="44.64037" lon="-0.20681">
        <ele>65.51</ele>
        <time>2017-01-26T14:15:34Z</time>
      </trkpt>
      <trkpt lat="44.64033" lon="-0.20709">
        <ele>65.99</ele>
        <time>2017-01-26T14:15:51Z</time>
      </trkpt>
      <trkpt lat="44.64031" lon="-0.20728">
        <ele>66.95</ele>
        <time>2017-01-26T14:16:03Z</time>
      </trkpt>
      <trkpt lat="44.64025" lon="-0.20752">
        <ele>68.87</ele>
        <time>2017-01-26T14:16:21Z</time>
      </trkpt>
      <trkpt lat="44.64013" lon="-0.20781">
        <ele>70.31</ele>
        <time>2017-01-26T14:16:40Z</time>
      </trkpt>
      <trkpt lat="44.64004" lon="-0.20798">
        <ele>71.27</ele>
        <time>2017-01-26T14:16:53Z</time>
      </trkpt>
      <trkpt lat="44.64003" lon="-0.20801">
        <ele>66.47</ele>
        <time>2017-01-26T14:16:55Z</time>
      </trkpt>
      <trkpt lat="44.64002" lon="-0.20802">
        <ele>74.64</ele>
        <time>2017-01-26T14:16:56Z</time>
      </trkpt>
      <trkpt lat="44.64" lon="-0.20806">
        <ele>71.76</ele>
        <time>2017-01-26T14:16:59Z</time>
      </trkpt>
      <trkpt lat="44.63989" lon="-0.2083">
        <ele>73.2</ele>
        <time>2017-01-26T14:17:15Z</time>
      </trkpt>
      <trkpt lat="44.63978" lon="-0.20849">
        <ele>74.64</ele>
        <time>2017-01-26T14:17:29Z</time>
      </trkpt>
      <trkpt lat="44.63973" lon="-0.20859">
        <ele>76.08</ele>
        <time>2017-01-26T14:17:39Z</time>
      </trkpt>
      <trkpt lat="44.63971" lon="-0.2086">
        <ele>76.08</ele>
        <time>2017-01-26T14:17:53Z</time>
      </trkpt>
      <trkpt lat="44.6397" lon="-0.20864">
        <ele>77.04</ele>
        <time>2017-01-26T14:18:08Z</time>
      </trkpt>
      <trkpt lat="44.63962" lon="-0.20879">
        <ele>78</ele>
        <time>2017-01-26T14:18:22Z</time>
      </trkpt>
      <trkpt lat="44.63951" lon="-0.20901">
        <ele>80.89</ele>
        <time>2017-01-26T14:18:37Z</time>
      </trkpt>
      <trkpt lat="44.6394" lon="-0.20922">
        <ele>84.25</ele>
        <time>2017-01-26T14:18:53Z</time>
      </trkpt>
      <trkpt lat="44.63935" lon="-0.20931">
        <ele>85.69</ele>
        <time>2017-01-26T14:19:02Z</time>
      </trkpt>
      <trkpt lat="44.63926" lon="-0.20943">
        <ele>88.1</ele>
        <time>2017-01-26T14:19:14Z</time>
      </trkpt>
      <trkpt lat="44.63917" lon="-0.20965">
        <ele>90.98</ele>
        <time>2017-01-26T14:19:31Z</time>
      </trkpt>
      <trkpt lat="44.63911" lon="-0.20977">
        <ele>92.42</ele>
        <time>2017-01-26T14:19:45Z</time>
      </trkpt>
      <trkpt lat="44.63908" lon="-0.20982">
        <ele>92.42</ele>
        <time>2017-01-26T14:19:59Z</time>
      </trkpt>
      <trkpt lat="44.63908" lon="-0.20982">
        <ele>93.87</ele>
        <time>2017-01-26T14:20:08Z</time>
      </trkpt>
      <trkpt lat="44.63908" lon="-0.20983">
        <ele>92.42</ele>
        <time>2017-01-26T14:20:24Z</time>
      </trkpt>
      <trkpt lat="44.63907" lon="-0.20986">
        <ele>94.35</ele>
        <time>2017-01-26T14:20:37Z</time>
      </trkpt>
      <trkpt lat="44.639" lon="-0.20996">
        <ele>95.79</ele>
        <time>2017-01-26T14:20:51Z</time>
      </trkpt>
      <trkpt lat="44.63897" lon="-0.20999">
        <ele>96.27</ele>
        <time>2017-01-26T14:20:57Z</time>
      </trkpt>
      <trkpt lat="44.63879" lon="-0.20997">
        <ele>95.31</ele>
        <time>2017-01-26T14:21:15Z</time>
      </trkpt>
      <trkpt lat="44.63868" lon="-0.20994">
        <ele>96.27</ele>
        <time>2017-01-26T14:21:31Z</time>
      </trkpt>
      <trkpt lat="44.63857" lon="-0.20998">
        <ele>98.19</ele>
        <time>2017-01-26T14:21:43Z</time>
      </trkpt>
      <trkpt lat="44.63854" lon="-0.21024">
        <ele>99.15</ele>
        <time>2017-01-26T14:21:58Z</time>
      </trkpt>
      <trkpt lat="44.63852" lon="-0.21048">
        <ele>100.6</ele>
        <time>2017-01-26T14:22:13Z</time>
      </trkpt>
      <trkpt lat="44.63852" lon="-0.21057">
        <ele>101.56</ele>
        <time>2017-01-26T14:22:19Z</time>
      </trkpt>
      <trkpt lat="44.63852" lon="-0.21063">
        <ele>101.56</ele>
        <time>2017-01-26T14:22:23Z</time>
      </trkpt>
      <trkpt lat="44.63856" lon="-0.21095">
        <ele>101.56</ele>
        <time>2017-01-26T14:22:41Z</time>
      </trkpt>
      <trkpt lat="44.63858" lon="-0.21098">
        <ele>101.08</ele>
        <time>2017-01-26T14:22:54Z</time>
      </trkpt>
      <trkpt lat="44.63859" lon="-0.21099">
        <ele>101.08</ele>
        <time>2017-01-26T14:23:08Z</time>
      </trkpt>
      <trkpt lat="44.63859" lon="-0.21099">
        <ele>101.08</ele>
        <time>2017-01-26T14:23:27Z</time>
      </trkpt>
      <trkpt lat="44.63852" lon="-0.21103">
        <ele>101.08</ele>
        <time>2017-01-26T14:23:41Z</time>
      </trkpt>
      <trkpt lat="44.63852" lon="-0.21102">
        <ele>100.6</ele>
        <time>2017-01-26T14:24:00Z</time>
      </trkpt>
      <trkpt lat="44.63873" lon="-0.21108">
        <ele>101.56</ele>
        <time>2017-01-26T14:24:16Z</time>
      </trkpt>
      <trkpt lat="44.63871" lon="-0.21112">
        <ele>102.52</ele>
        <time>2017-01-26T14:24:22Z</time>
      </trkpt>
      <trkpt lat="44.63869" lon="-0.21113">
        <ele>102.04</ele>
        <time>2017-01-26T14:24:33Z</time>
      </trkpt>
      <trkpt lat="44.63882" lon="-0.21117">
        <ele>102.52</ele>
        <time>2017-01-26T14:24:50Z</time>
      </trkpt>
      <trkpt lat="44.63886" lon="-0.21127">
        <ele>103.48</ele>
        <time>2017-01-26T14:25:04Z</time>
      </trkpt>
      <trkpt lat="44.63883" lon="-0.21135">
        <ele>103.48</ele>
        <time>2017-01-26T14:25:23Z</time>
      </trkpt>
      <trkpt lat="44.63877" lon="-0.21144">
        <ele>103</ele>
        <time>2017-01-26T14:25:36Z</time>
      </trkpt>
      <trkpt lat="44.63875" lon="-0.21147">
        <ele>103</ele>
        <time>2017-01-26T14:25:41Z</time>
      </trkpt>
      <trkpt lat="44.63867" lon="-0.21168">
        <ele>101.56</ele>
        <time>2017-01-26T14:25:57Z</time>
      </trkpt>
      <trkpt lat="44.63859" lon="-0.21189">
        <ele>100.11</ele>
        <time>2017-01-26T14:26:13Z</time>
      </trkpt>
      <trkpt lat="44.63859" lon="-0.2119">
        <ele>100.11</ele>
        <time>2017-01-26T14:26:14Z</time>
      </trkpt>
      <trkpt lat="44.63857" lon="-0.21194">
        <ele>100.6</ele>
        <time>2017-01-26T14:26:18Z</time>
      </trkpt>
      <trkpt lat="44.6385" lon="-0.21216">
        <ele>97.71</ele>
        <time>2017-01-26T14:26:35Z</time>
      </trkpt>
      <trkpt lat="44.63845" lon="-0.21233">
        <ele>95.79</ele>
        <time>2017-01-26T14:26:50Z</time>
      </trkpt>
      <trkpt lat="44.63844" lon="-0.21239">
        <ele>93.87</ele>
        <time>2017-01-26T14:27:05Z</time>
      </trkpt>
      <trkpt lat="44.63844" lon="-0.2124">
        <ele>93.39</ele>
        <time>2017-01-26T14:27:15Z</time>
      </trkpt>
      <trkpt lat="44.63843" lon="-0.21242">
        <ele>93.39</ele>
        <time>2017-01-26T14:27:24Z</time>
      </trkpt>
      <trkpt lat="44.63845" lon="-0.21238">
        <ele>94.83</ele>
        <time>2017-01-26T14:27:36Z</time>
      </trkpt>
      <trkpt lat="44.6384" lon="-0.21226">
        <ele>94.83</ele>
        <time>2017-01-26T14:27:50Z</time>
      </trkpt>
      <trkpt lat="44.63837" lon="-0.21224">
        <ele>94.83</ele>
        <time>2017-01-26T14:27:54Z</time>
      </trkpt>
      <trkpt lat="44.63825" lon="-0.21212">
        <ele>96.27</ele>
        <time>2017-01-26T14:28:09Z</time>
      </trkpt>
      <trkpt lat="44.63819" lon="-0.21205">
        <ele>96.27</ele>
        <time>2017-01-26T14:28:16Z</time>
      </trkpt>
      <trkpt lat="44.63816" lon="-0.21202">
        <ele>96.27</ele>
        <time>2017-01-26T14:28:20Z</time>
      </trkpt>
      <trkpt lat="44.63802" lon="-0.21187">
        <ele>94.35</ele>
        <time>2017-01-26T14:28:35Z</time>
      </trkpt>
      <trkpt lat="44.6379" lon="-0.21172">
        <ele>95.31</ele>
        <time>2017-01-26T14:28:51Z</time>
      </trkpt>
      <trkpt lat="44.63785" lon="-0.21165">
        <ele>94.35</ele>
        <time>2017-01-26T14:28:56Z</time>
      </trkpt>
      <trkpt lat="44.63774" lon="-0.21161">
        <ele>93.39</ele>
        <time>2017-01-26T14:29:11Z</time>
      </trkpt>
      <trkpt lat="44.63779" lon="-0.21175">
        <ele>92.42</ele>
        <time>2017-01-26T14:29:24Z</time>
      </trkpt>
      <trkpt lat="44.63782" lon="-0.2118">
        <ele>92.42</ele>
        <time>2017-01-26T14:29:40Z</time>
      </trkpt>
      <trkpt lat="44.63783" lon="-0.21181">
        <ele>92.42</ele>
        <time>2017-01-26T14:29:41Z</time>
      </trkpt>
      <trkpt lat="44.63787" lon="-0.21187">
        <ele>92.42</ele>
        <time>2017-01-26T14:29:53Z</time>
      </trkpt>
      <trkpt lat="44.63789" lon="-0.21189">
        <ele>91.94</ele>
        <time>2017-01-26T14:30:09Z</time>
      </trkpt>
      <trkpt lat="44.63799" lon="-0.21203">
        <ele>91.94</ele>
        <time>2017-01-26T14:30:22Z</time>
      </trkpt>
      <trkpt lat="44.63814" lon="-0.21221">
        <ele>91.94</ele>
        <time>2017-01-26T14:30:40Z</time>
      </trkpt>
      <trkpt lat="44.63815" lon="-0.21222">
        <ele>91.46</ele>
        <time>2017-01-26T14:30:41Z</time>
      </trkpt>
      <trkpt lat="44.63821" lon="-0.21234">
        <ele>91.46</ele>
        <time>2017-01-26T14:30:51Z</time>
      </trkpt>
      <trkpt lat="44.63835" lon="-0.21255">
        <ele>90.98</ele>
        <time>2017-01-26T14:31:08Z</time>
      </trkpt>
      <trkpt lat="44.6384" lon="-0.21262">
        <ele>90.98</ele>
        <time>2017-01-26T14:31:16Z</time>
      </trkpt>
      <trkpt lat="44.63854" lon="-0.2127">
        <ele>90.98</ele>
        <time>2017-01-26T14:31:28Z</time>
      </trkpt>
      <trkpt lat="44.6387" lon="-0.21281">
        <ele>90.5</ele>
        <time>2017-01-26T14:31:43Z</time>
      </trkpt>
      <trkpt lat="44.63886" lon="-0.2129">
        <ele>90.5</ele>
        <time>2017-01-26T14:31:59Z</time>
      </trkpt>
      <trkpt lat="44.63889" lon="-0.21293">
        <ele>90.02</ele>
        <time>2017-01-26T14:32:02Z</time>
      </trkpt>
      <trkpt lat="44.63893" lon="-0.21296">
        <ele>90.02</ele>
        <time>2017-01-26T14:32:06Z</time>
      </trkpt>
      <trkpt lat="44.63894" lon="-0.21299">
        <ele>89.54</ele>
        <time>2017-01-26T14:32:08Z</time>
      </trkpt>
      <trkpt lat="44.63892" lon="-0.21308">
        <ele>87.14</ele>
        <time>2017-01-26T14:32:15Z</time>
      </trkpt>
      <trkpt lat="44.63892" lon="-0.21309">
        <ele>90.5</ele>
        <time>2017-01-26T14:32:16Z</time>
      </trkpt>
      <trkpt lat="44.63891" lon="-0.21311">
        <ele>87.62</ele>
        <time>2017-01-26T14:32:17Z</time>
      </trkpt>
      <trkpt lat="44.6389" lon="-0.21315">
        <ele>87.62</ele>
        <time>2017-01-26T14:32:21Z</time>
      </trkpt>
      <trkpt lat="44.63887" lon="-0.21324">
        <ele>86.66</ele>
        <time>2017-01-26T14:32:26Z</time>
      </trkpt>
      <trkpt lat="44.63884" lon="-0.21335">
        <ele>85.21</ele>
        <time>2017-01-26T14:32:40Z</time>
      </trkpt>
      <trkpt lat="44.63878" lon="-0.21357">
        <ele>84.25</ele>
        <time>2017-01-26T14:32:55Z</time>
      </trkpt>
      <trkpt lat="44.63872" lon="-0.21374">
        <ele>84.25</ele>
        <time>2017-01-26T14:33:08Z</time>
      </trkpt>
      <trkpt lat="44.63867" lon="-0.21389">
        <ele>82.33</ele>
        <time>2017-01-26T14:33:19Z</time>
      </trkpt>
      <trkpt lat="44.63867" lon="-0.2139">
        <ele>86.18</ele>
        <time>2017-01-26T14:33:20Z</time>
      </trkpt>
      <trkpt lat="44.63865" lon="-0.21395">
        <ele>83.29</ele>
        <time>2017-01-26T14:33:23Z</time>
      </trkpt>
      <trkpt lat="44.63859" lon="-0.21414">
        <ele>82.81</ele>
        <time>2017-01-26T14:33:38Z</time>
      </trkpt>
      <trkpt lat="44.63852" lon="-0.2143">
        <ele>82.81</ele>
        <time>2017-01-26T14:33:52Z</time>
      </trkpt>
      <trkpt lat="44.63846" lon="-0.21445">
        <ele>83.29</ele>
        <time>2017-01-26T14:34:03Z</time>
      </trkpt>
      <trkpt lat="44.63837" lon="-0.21465">
        <ele>84.25</ele>
        <time>2017-01-26T14:34:18Z</time>
      </trkpt>
      <trkpt lat="44.63828" lon="-0.21485">
        <ele>83.29</ele>
        <time>2017-01-26T14:34:33Z</time>
      </trkpt>
      <trkpt lat="44.63826" lon="-0.21491">
        <ele>82.81</ele>
        <time>2017-01-26T14:34:37Z</time>
      </trkpt>
      <trkpt lat="44.63817" lon="-0.21515">
        <ele>82.33</ele>
        <time>2017-01-26T14:34:54Z</time>
      </trkpt>
      <trkpt lat="44.63808" lon="-0.21532">
        <ele>78.97</ele>
        <time>2017-01-26T14:35:07Z</time>
      </trkpt>
      <trkpt lat="44.638" lon="-0.21556">
        <ele>78.48</ele>
        <time>2017-01-26T14:35:24Z</time>
      </trkpt>
      <trkpt lat="44.63792" lon="-0.21578">
        <ele>77.04</ele>
        <time>2017-01-26T14:35:39Z</time>
      </trkpt>
      <trkpt lat="44.63782" lon="-0.21598">
        <ele>75.6</ele>
        <time>2017-01-26T14:35:54Z</time>
      </trkpt>
      <trkpt lat="44.63775" lon="-0.21619">
        <ele>73.68</ele>
        <time>2017-01-26T14:36:10Z</time>
      </trkpt>
      <trkpt lat="44.63767" lon="-0.21646">
        <ele>72.24</ele>
        <time>2017-01-26T14:36:28Z</time>
      </trkpt>
      <trkpt lat="44.63758" lon="-0.21668">
        <ele>71.76</ele>
        <time>2017-01-26T14:36:43Z</time>
      </trkpt>
      <trkpt lat="44.63755" lon="-0.21679">
        <ele>68.39</ele>
        <time>2017-01-26T14:36:50Z</time>
      </trkpt>
      <trkpt lat="44.63754" lon="-0.2168">
        <ele>73.68</ele>
        <time>2017-01-26T14:36:51Z</time>
      </trkpt>
      <trkpt lat="44.63753" lon="-0.21684">
        <ele>70.31</ele>
        <time>2017-01-26T14:36:54Z</time>
      </trkpt>
      <trkpt lat="44.63745" lon="-0.21705">
        <ele>69.35</ele>
        <time>2017-01-26T14:37:09Z</time>
      </trkpt>
      <trkpt lat="44.63743" lon="-0.2171">
        <ele>68.87</ele>
        <time>2017-01-26T14:37:13Z</time>
      </trkpt>
      <trkpt lat="44.63736" lon="-0.21734">
        <ele>67.91</ele>
        <time>2017-01-26T14:37:29Z</time>
      </trkpt>
      <trkpt lat="44.63736" lon="-0.21735">
        <ele>67.91</ele>
        <time>2017-01-26T14:37:30Z</time>
      </trkpt>
      <trkpt lat="44.63733" lon="-0.21749">
        <ele>66.95</ele>
        <time>2017-01-26T14:37:40Z</time>
      </trkpt>
      <trkpt lat="44.63724" lon="-0.21776">
        <ele>65.51</ele>
        <time>2017-01-26T14:37:59Z</time>
      </trkpt>
      <trkpt lat="44.63713" lon="-0.21801">
        <ele>64.55</ele>
        <time>2017-01-26T14:38:17Z</time>
      </trkpt>
      <trkpt lat="44.63703" lon="-0.21828">
        <ele>64.07</ele>
        <time>2017-01-26T14:38:37Z</time>
      </trkpt>
      <trkpt lat="44.63698" lon="-0.2184">
        <ele>63.58</ele>
        <time>2017-01-26T14:38:46Z</time>
      </trkpt>
      <trkpt lat="44.63689" lon="-0.21859">
        <ele>62.62</ele>
        <time>2017-01-26T14:39:01Z</time>
      </trkpt>
      <trkpt lat="44.63681" lon="-0.21878">
        <ele>61.66</ele>
        <time>2017-01-26T14:39:16Z</time>
      </trkpt>
      <trkpt lat="44.63673" lon="-0.21898">
        <ele>61.18</ele>
        <time>2017-01-26T14:39:32Z</time>
      </trkpt>
      <trkpt lat="44.6367" lon="-0.21907">
        <ele>60.7</ele>
        <time>2017-01-26T14:39:44Z</time>
      </trkpt>
      <trkpt lat="44.63667" lon="-0.21913">
        <ele>60.7</ele>
        <time>2017-01-26T14:39:48Z</time>
      </trkpt>
      <trkpt lat="44.63659" lon="-0.21934">
        <ele>60.7</ele>
        <time>2017-01-26T14:40:05Z</time>
      </trkpt>
      <trkpt lat="44.63651" lon="-0.21953">
        <ele>60.22</ele>
        <time>2017-01-26T14:40:20Z</time>
      </trkpt>
      <trkpt lat="44.63645" lon="-0.21969">
        <ele>59.74</ele>
        <time>2017-01-26T14:40:33Z</time>
      </trkpt>
      <trkpt lat="44.63646" lon="-0.2197">
        <ele>59.74</ele>
        <time>2017-01-26T14:40:35Z</time>
      </trkpt>
      <trkpt lat="44.6366" lon="-0.21977">
        <ele>60.22</ele>
        <time>2017-01-26T14:40:49Z</time>
      </trkpt>
      <trkpt lat="44.63679" lon="-0.21993">
        <ele>59.74</ele>
        <time>2017-01-26T14:41:07Z</time>
      </trkpt>
      <trkpt lat="44.63696" lon="-0.22009">
        <ele>60.22</ele>
        <time>2017-01-26T14:41:24Z</time>
      </trkpt>
      <trkpt lat="44.63706" lon="-0.22021">
        <ele>60.22</ele>
        <time>2017-01-26T14:41:35Z</time>
      </trkpt>
      <trkpt lat="44.6372" lon="-0.22033">
        <ele>60.7</ele>
        <time>2017-01-26T14:41:48Z</time>
      </trkpt>
      <trkpt lat="44.63738" lon="-0.22049">
        <ele>61.18</ele>
        <time>2017-01-26T14:42:06Z</time>
      </trkpt>
      <trkpt lat="44.63754" lon="-0.22064">
        <ele>61.66</ele>
        <time>2017-01-26T14:42:22Z</time>
      </trkpt>
      <trkpt lat="44.6377" lon="-0.22079">
        <ele>62.14</ele>
        <time>2017-01-26T14:42:37Z</time>
      </trkpt>
      <trkpt lat="44.63789" lon="-0.22091">
        <ele>62.14</ele>
        <time>2017-01-26T14:42:53Z</time>
      </trkpt>
      <trkpt lat="44.63808" lon="-0.22084">
        <ele>63.1</ele>
        <time>2017-01-26T14:43:10Z</time>
      </trkpt>
      <trkpt lat="44.63824" lon="-0.22073">
        <ele>63.1</ele>
        <time>2017-01-26T14:43:27Z</time>
      </trkpt>
      <trkpt lat="44.63823" lon="-0.22073">
        <ele>68.39</ele>
        <time>2017-01-26T14:43:33Z</time>
      </trkpt>
      <trkpt lat="44.63823" lon="-0.22072">
        <ele>64.07</ele>
        <time>2017-01-26T14:43:34Z</time>
      </trkpt>
      <trkpt lat="44.63823" lon="-0.22073">
        <ele>60.7</ele>
        <time>2017-01-26T14:43:36Z</time>
      </trkpt>
      <trkpt lat="44.63823" lon="-0.22072">
        <ele>65.51</ele>
        <time>2017-01-26T14:43:38Z</time>
      </trkpt>
      <trkpt lat="44.63831" lon="-0.22064">
        <ele>64.07</ele>
        <time>2017-01-26T14:43:49Z</time>
      </trkpt>
      <trkpt lat="44.63845" lon="-0.22054">
        <ele>59.26</ele>
        <time>2017-01-26T14:44:01Z</time>
      </trkpt>
      <trkpt lat="44.63846" lon="-0.22053">
        <ele>69.35</ele>
        <time>2017-01-26T14:44:02Z</time>
      </trkpt>
      <trkpt lat="44.63847" lon="-0.22053">
        <ele>65.03</ele>
        <time>2017-01-26T14:44:03Z</time>
      </trkpt>
      <trkpt lat="44.63864" lon="-0.2204">
        <ele>65.51</ele>
        <time>2017-01-26T14:44:19Z</time>
      </trkpt>
      <trkpt lat="44.63875" lon="-0.22031">
        <ele>65.51</ele>
        <time>2017-01-26T14:44:33Z</time>
      </trkpt>
      <trkpt lat="44.63892" lon="-0.22017">
        <ele>66.95</ele>
        <time>2017-01-26T14:44:49Z</time>
      </trkpt>
      <trkpt lat="44.63906" lon="-0.22006">
        <ele>66.47</ele>
        <time>2017-01-26T14:45:03Z</time>
      </trkpt>
      <trkpt lat="44.63924" lon="-0.21991">
        <ele>69.35</ele>
        <time>2017-01-26T14:45:20Z</time>
      </trkpt>
      <trkpt lat="44.63939" lon="-0.21976">
        <ele>70.31</ele>
        <time>2017-01-26T14:45:36Z</time>
      </trkpt>
      <trkpt lat="44.63952" lon="-0.21973">
        <ele>70.31</ele>
        <time>2017-01-26T14:45:49Z</time>
      </trkpt>
      <trkpt lat="44.63954" lon="-0.21977">
        <ele>69.83</ele>
        <time>2017-01-26T14:45:52Z</time>
      </trkpt>
      <trkpt lat="44.63956" lon="-0.21983">
        <ele>69.35</ele>
        <time>2017-01-26T14:45:56Z</time>
      </trkpt>
      <trkpt lat="44.63957" lon="-0.21987">
        <ele>68.87</ele>
        <time>2017-01-26T14:45:58Z</time>
      </trkpt>
      <trkpt lat="44.63963" lon="-0.2201">
        <ele>66.47</ele>
        <time>2017-01-26T14:46:13Z</time>
      </trkpt>
      <trkpt lat="44.63967" lon="-0.22025">
        <ele>65.03</ele>
        <time>2017-01-26T14:46:27Z</time>
      </trkpt>
      <trkpt lat="44.63967" lon="-0.22026">
        <ele>65.03</ele>
        <time>2017-01-26T14:46:28Z</time>
      </trkpt>
      <trkpt lat="44.6397" lon="-0.22043">
        <ele>64.07</ele>
        <time>2017-01-26T14:46:39Z</time>
      </trkpt>
      <trkpt lat="44.6398" lon="-0.22043">
        <ele>65.03</ele>
        <time>2017-01-26T14:46:55Z</time>
      </trkpt>
      <trkpt lat="44.63984" lon="-0.22038">
        <ele>65.03</ele>
        <time>2017-01-26T14:47:12Z</time>
      </trkpt>
      <trkpt lat="44.63987" lon="-0.22037">
        <ele>65.03</ele>
        <time>2017-01-26T14:47:15Z</time>
      </trkpt>
      <trkpt lat="44.64003" lon="-0.22028">
        <ele>65.51</ele>
        <time>2017-01-26T14:47:31Z</time>
      </trkpt>
      <trkpt lat="44.64013" lon="-0.2202">
        <ele>65.99</ele>
        <time>2017-01-26T14:47:42Z</time>
      </trkpt>
      <trkpt lat="44.64028" lon="-0.22011">
        <ele>66.47</ele>
        <time>2017-01-26T14:47:56Z</time>
      </trkpt>
      <trkpt lat="44.64045" lon="-0.22">
        <ele>66.95</ele>
        <time>2017-01-26T14:48:13Z</time>
      </trkpt>
      <trkpt lat="44.64055" lon="-0.21992">
        <ele>66.95</ele>
        <time>2017-01-26T14:48:24Z</time>
      </trkpt>
      <trkpt lat="44.64063" lon="-0.21986">
        <ele>67.43</ele>
        <time>2017-01-26T14:48:33Z</time>
      </trkpt>
      <trkpt lat="44.64076" lon="-0.21974">
        <ele>67.91</ele>
        <time>2017-01-26T14:48:50Z</time>
      </trkpt>
      <trkpt lat="44.64082" lon="-0.2197">
        <ele>67.91</ele>
        <time>2017-01-26T14:49:04Z</time>
      </trkpt>
      <trkpt lat="44.64084" lon="-0.21965">
        <ele>67.91</ele>
        <time>2017-01-26T14:49:20Z</time>
      </trkpt>
      <trkpt lat="44.64093" lon="-0.21958">
        <ele>68.39</ele>
        <time>2017-01-26T14:49:33Z</time>
      </trkpt>
      <trkpt lat="44.64101" lon="-0.21954">
        <ele>68.39</ele>
        <time>2017-01-26T14:49:42Z</time>
      </trkpt>
      <trkpt lat="44.64108" lon="-0.2195">
        <ele>68.87</ele>
        <time>2017-01-26T14:49:49Z</time>
      </trkpt>
      <trkpt lat="44.64124" lon="-0.21938">
        <ele>69.35</ele>
        <time>2017-01-26T14:50:05Z</time>
      </trkpt>
      <trkpt lat="44.64126" lon="-0.21937">
        <ele>69.35</ele>
        <time>2017-01-26T14:50:08Z</time>
      </trkpt>
      <trkpt lat="44.64128" lon="-0.21932">
        <ele>69.35</ele>
        <time>2017-01-26T14:50:11Z</time>
      </trkpt>
      <trkpt lat="44.64129" lon="-0.21927">
        <ele>73.68</ele>
        <time>2017-01-26T14:50:15Z</time>
      </trkpt>
      <trkpt lat="44.64129" lon="-0.21926">
        <ele>69.83</ele>
        <time>2017-01-26T14:50:16Z</time>
      </trkpt>
      <trkpt lat="44.64131" lon="-0.21921">
        <ele>69.83</ele>
        <time>2017-01-26T14:50:26Z</time>
      </trkpt>
      <trkpt lat="44.64134" lon="-0.21895">
        <ele>70.31</ele>
        <time>2017-01-26T14:50:42Z</time>
      </trkpt>
      <trkpt lat="44.64139" lon="-0.21879">
        <ele>69.83</ele>
        <time>2017-01-26T14:50:57Z</time>
      </trkpt>
      <trkpt lat="44.64141" lon="-0.21878">
        <ele>70.79</ele>
        <time>2017-01-26T14:51:03Z</time>
      </trkpt>
      <trkpt lat="44.64148" lon="-0.21859">
        <ele>70.79</ele>
        <time>2017-01-26T14:51:18Z</time>
      </trkpt>
      <trkpt lat="44.64153" lon="-0.21841">
        <ele>72.24</ele>
        <time>2017-01-26T14:51:34Z</time>
      </trkpt>
      <trkpt lat="44.64154" lon="-0.21839">
        <ele>71.76</ele>
        <time>2017-01-26T14:51:42Z</time>
      </trkpt>
      <trkpt lat="44.64155" lon="-0.21833">
        <ele>72.24</ele>
        <time>2017-01-26T14:51:47Z</time>
      </trkpt>
      <trkpt lat="44.6416" lon="-0.21814">
        <ele>72.72</ele>
        <time>2017-01-26T14:52:03Z</time>
      </trkpt>
      <trkpt lat="44.64165" lon="-0.21797">
        <ele>76.56</ele>
        <time>2017-01-26T14:52:17Z</time>
      </trkpt>
      <trkpt lat="44.64165" lon="-0.21795">
        <ele>72.72</ele>
        <time>2017-01-26T14:52:18Z</time>
      </trkpt>
      <trkpt lat="44.64167" lon="-0.21792">
        <ele>73.68</ele>
        <time>2017-01-26T14:52:21Z</time>
      </trkpt>
      <trkpt lat="44.64173" lon="-0.21774">
        <ele>75.12</ele>
        <time>2017-01-26T14:52:37Z</time>
      </trkpt>
      <trkpt lat="44.64176" lon="-0.21764">
        <ele>75.12</ele>
        <time>2017-01-26T14:52:51Z</time>
      </trkpt>
      <trkpt lat="44.64176" lon="-0.2176">
        <ele>75.12</ele>
        <time>2017-01-26T14:52:54Z</time>
      </trkpt>
      <trkpt lat="44.64175" lon="-0.21735">
        <ele>75.6</ele>
        <time>2017-01-26T14:53:11Z</time>
      </trkpt>
      <trkpt lat="44.64177" lon="-0.21711">
        <ele>76.08</ele>
        <time>2017-01-26T14:53:28Z</time>
      </trkpt>
      <trkpt lat="44.64177" lon="-0.21714">
        <ele>76.56</ele>
        <time>2017-01-26T14:53:38Z</time>
      </trkpt>
      <trkpt lat="44.64177" lon="-0.21725">
        <ele>76.08</ele>
        <time>2017-01-26T14:53:45Z</time>
      </trkpt>
      <trkpt lat="44.64174" lon="-0.21747">
        <ele>75.6</ele>
        <time>2017-01-26T14:53:59Z</time>
      </trkpt>
      <trkpt lat="44.64173" lon="-0.21754">
        <ele>75.12</ele>
        <time>2017-01-26T14:54:03Z</time>
      </trkpt>
      <trkpt lat="44.64169" lon="-0.21767">
        <ele>75.12</ele>
        <time>2017-01-26T14:54:13Z</time>
      </trkpt>
      <trkpt lat="44.64167" lon="-0.21758">
        <ele>74.64</ele>
        <time>2017-01-26T14:54:20Z</time>
      </trkpt>
      <trkpt lat="44.64169" lon="-0.2174">
        <ele>75.6</ele>
        <time>2017-01-26T14:54:34Z</time>
      </trkpt>
      <trkpt lat="44.64165" lon="-0.21717">
        <ele>77.04</ele>
        <time>2017-01-26T14:54:51Z</time>
      </trkpt>
      <trkpt lat="44.64165" lon="-0.21692">
        <ele>78.48</ele>
        <time>2017-01-26T14:55:08Z</time>
      </trkpt>
      <trkpt lat="44.64159" lon="-0.21672">
        <ele>79.45</ele>
        <time>2017-01-26T14:55:25Z</time>
      </trkpt>
      <trkpt lat="44.64153" lon="-0.21649">
        <ele>81.37</ele>
        <time>2017-01-26T14:55:43Z</time>
      </trkpt>
      <trkpt lat="44.64151" lon="-0.21633">
        <ele>83.29</ele>
        <time>2017-01-26T14:56:01Z</time>
      </trkpt>
      <trkpt lat="44.64146" lon="-0.21618">
        <ele>84.73</ele>
        <time>2017-01-26T14:56:17Z</time>
      </trkpt>
      <trkpt lat="44.64143" lon="-0.21606">
        <ele>86.18</ele>
        <time>2017-01-26T14:56:31Z</time>
      </trkpt>
      <trkpt lat="44.64138" lon="-0.21591">
        <ele>87.62</ele>
        <time>2017-01-26T14:56:45Z</time>
      </trkpt>
      <trkpt lat="44.64137" lon="-0.21585">
        <ele>88.1</ele>
        <time>2017-01-26T14:56:58Z</time>
      </trkpt>
      <trkpt lat="44.64132" lon="-0.21576">
        <ele>88.58</ele>
        <time>2017-01-26T14:57:14Z</time>
      </trkpt>
      <trkpt lat="44.64119" lon="-0.21577">
        <ele>89.06</ele>
        <time>2017-01-26T14:57:28Z</time>
      </trkpt>
      <trkpt lat="44.64108" lon="-0.21572">
        <ele>89.54</ele>
        <time>2017-01-26T14:57:44Z</time>
      </trkpt>
      <trkpt lat="44.64105" lon="-0.21563">
        <ele>89.54</ele>
        <time>2017-01-26T14:57:57Z</time>
      </trkpt>
      <trkpt lat="44.64099" lon="-0.21547">
        <ele>90.98</ele>
        <time>2017-01-26T14:58:09Z</time>
      </trkpt>
      <trkpt lat="44.64093" lon="-0.21527">
        <ele>93.39</ele>
        <time>2017-01-26T14:58:26Z</time>
      </trkpt>
      <trkpt lat="44.64093" lon="-0.21526">
        <ele>92.9</ele>
        <time>2017-01-26T14:58:27Z</time>
      </trkpt>
      <trkpt lat="44.6409" lon="-0.21519">
        <ele>93.39</ele>
        <time>2017-01-26T14:58:32Z</time>
      </trkpt>
      <trkpt lat="44.64084" lon="-0.21502">
        <ele>96.27</ele>
        <time>2017-01-26T14:58:48Z</time>
      </trkpt>
      <trkpt lat="44.64087" lon="-0.21499">
        <ele>96.75</ele>
        <time>2017-01-26T14:58:53Z</time>
      </trkpt>
      <trkpt lat="44.64088" lon="-0.21498">
        <ele>96.75</ele>
        <time>2017-01-26T14:58:55Z</time>
      </trkpt>
      <trkpt lat="44.64093" lon="-0.21493">
        <ele>96.75</ele>
        <time>2017-01-26T14:59:02Z</time>
      </trkpt>
      <trkpt lat="44.64105" lon="-0.2148">
        <ele>97.23</ele>
        <time>2017-01-26T14:59:18Z</time>
      </trkpt>
      <trkpt lat="44.64116" lon="-0.2147">
        <ele>97.71</ele>
        <time>2017-01-26T14:59:30Z</time>
      </trkpt>
      <trkpt lat="44.64139" lon="-0.2147">
        <ele>95.79</ele>
        <time>2017-01-26T14:59:51Z</time>
      </trkpt>
      <trkpt lat="44.64142" lon="-0.21471">
        <ele>95.31</ele>
        <time>2017-01-26T14:59:54Z</time>
      </trkpt>
      <trkpt lat="44.64148" lon="-0.21474">
        <ele>94.35</ele>
        <time>2017-01-26T15:00:00Z</time>
      </trkpt>
      <trkpt lat="44.64151" lon="-0.21476">
        <ele>93.87</ele>
        <time>2017-01-26T15:00:04Z</time>
      </trkpt>
      <trkpt lat="44.64163" lon="-0.21488">
        <ele>91.94</ele>
        <time>2017-01-26T15:00:18Z</time>
      </trkpt>
      <trkpt lat="44.64171" lon="-0.21504">
        <ele>90.02</ele>
        <time>2017-01-26T15:00:32Z</time>
      </trkpt>
      <trkpt lat="44.64182" lon="-0.21517">
        <ele>88.1</ele>
        <time>2017-01-26T15:00:48Z</time>
      </trkpt>
      <trkpt lat="44.64202" lon="-0.21517">
        <ele>88.58</ele>
        <time>2017-01-26T15:01:04Z</time>
      </trkpt>
      <trkpt lat="44.64214" lon="-0.21516">
        <ele>90.02</ele>
        <time>2017-01-26T15:01:18Z</time>
      </trkpt>
      <trkpt lat="44.64231" lon="-0.21511">
        <ele>91.46</ele>
        <time>2017-01-26T15:01:33Z</time>
      </trkpt>
      <trkpt lat="44.64233" lon="-0.2151">
        <ele>91.94</ele>
        <time>2017-01-26T15:01:36Z</time>
      </trkpt>
      <trkpt lat="44.64252" lon="-0.21507">
        <ele>92.9</ele>
        <time>2017-01-26T15:01:53Z</time>
      </trkpt>
      <trkpt lat="44.64269" lon="-0.21503">
        <ele>92.42</ele>
        <time>2017-01-26T15:02:08Z</time>
      </trkpt>
      <trkpt lat="44.6428" lon="-0.21499">
        <ele>93.39</ele>
        <time>2017-01-26T15:02:19Z</time>
      </trkpt>
      <trkpt lat="44.64289" lon="-0.21494">
        <ele>93.87</ele>
        <time>2017-01-26T15:02:29Z</time>
      </trkpt>
      <trkpt lat="44.64305" lon="-0.21486">
        <ele>95.79</ele>
        <time>2017-01-26T15:02:46Z</time>
      </trkpt>
      <trkpt lat="44.64317" lon="-0.21479">
        <ele>96.75</ele>
        <time>2017-01-26T15:03:01Z</time>
      </trkpt>
      <trkpt lat="44.64331" lon="-0.21471">
        <ele>98.19</ele>
        <time>2017-01-26T15:03:17Z</time>
      </trkpt>
      <trkpt lat="44.64343" lon="-0.21464">
        <ele>99.15</ele>
        <time>2017-01-26T15:03:30Z</time>
      </trkpt>
      <trkpt lat="44.64347" lon="-0.21459">
        <ele>99.15</ele>
        <time>2017-01-26T15:03:35Z</time>
      </trkpt>
      <trkpt lat="44.64347" lon="-0.21452">
        <ele>99.15</ele>
        <time>2017-01-26T15:03:40Z</time>
      </trkpt>
      <trkpt lat="44.64348" lon="-0.21438">
        <ele>102.04</ele>
        <time>2017-01-26T15:03:51Z</time>
      </trkpt>
      <trkpt lat="44.64348" lon="-0.21407">
        <ele>101.08</ele>
        <time>2017-01-26T15:04:10Z</time>
      </trkpt>
      <trkpt lat="44.64349" lon="-0.21389">
        <ele>101.56</ele>
        <time>2017-01-26T15:04:24Z</time>
      </trkpt>
      <trkpt lat="44.64349" lon="-0.21388">
        <ele>101.56</ele>
        <time>2017-01-26T15:04:25Z</time>
      </trkpt>
      <trkpt lat="44.64351" lon="-0.21381">
        <ele>101.56</ele>
        <time>2017-01-26T15:04:31Z</time>
      </trkpt>
      <trkpt lat="44.64357" lon="-0.21376">
        <ele>102.04</ele>
        <time>2017-01-26T15:04:40Z</time>
      </trkpt>
      <trkpt lat="44.64362" lon="-0.21381">
        <ele>102.04</ele>
        <time>2017-01-26T15:04:46Z</time>
      </trkpt>
      <trkpt lat="44.64369" lon="-0.21377">
        <ele>102.52</ele>
        <time>2017-01-26T15:04:54Z</time>
      </trkpt>
      <trkpt lat="44.64382" lon="-0.21379">
        <ele>102.04</ele>
        <time>2017-01-26T15:05:10Z</time>
      </trkpt>
      <trkpt lat="44.64388" lon="-0.21372">
        <ele>101.08</ele>
        <time>2017-01-26T15:05:26Z</time>
      </trkpt>
      <trkpt lat="44.6439" lon="-0.21367">
        <ele>101.56</ele>
        <time>2017-01-26T15:05:47Z</time>
      </trkpt>
      <trkpt lat="44.6439" lon="-0.21366">
        <ele>101.56</ele>
        <time>2017-01-26T15:05:48Z</time>
      </trkpt>
      <trkpt lat="44.64395" lon="-0.21338">
        <ele>99.63</ele>
        <time>2017-01-26T15:06:07Z</time>
      </trkpt>
      <trkpt lat="44.64398" lon="-0.21328">
        <ele>98.19</ele>
        <time>2017-01-26T15:06:14Z</time>
      </trkpt>
      <trkpt lat="44.64397" lon="-0.21318">
        <ele>97.23</ele>
        <time>2017-01-26T15:06:29Z</time>
      </trkpt>
      <trkpt lat="44.64397" lon="-0.21313">
        <ele>96.27</ele>
        <time>2017-01-26T15:07:02Z</time>
      </trkpt>
      <trkpt lat="44.64395" lon="-0.21296">
        <ele>92.9</ele>
        <time>2017-01-26T15:07:18Z</time>
      </trkpt>
      <trkpt lat="44.64396" lon="-0.21287">
        <ele>90.98</ele>
        <time>2017-01-26T15:07:35Z</time>
      </trkpt>
      <trkpt lat="44.64391" lon="-0.21266">
        <ele>87.62</ele>
        <time>2017-01-26T15:07:48Z</time>
      </trkpt>
      <trkpt lat="44.6439" lon="-0.21265">
        <ele>87.62</ele>
        <time>2017-01-26T15:07:49Z</time>
      </trkpt>
      <trkpt lat="44.64387" lon="-0.21243">
        <ele>85.69</ele>
        <time>2017-01-26T15:08:05Z</time>
      </trkpt>
      <trkpt lat="44.64394" lon="-0.21228">
        <ele>87.62</ele>
        <time>2017-01-26T15:08:19Z</time>
      </trkpt>
      <trkpt lat="44.644" lon="-0.21225">
        <ele>89.06</ele>
        <time>2017-01-26T15:08:32Z</time>
      </trkpt>
      <trkpt lat="44.64406" lon="-0.21223">
        <ele>90.5</ele>
        <time>2017-01-26T15:08:48Z</time>
      </trkpt>
      <trkpt lat="44.64408" lon="-0.21222">
        <ele>90.98</ele>
        <time>2017-01-26T15:08:51Z</time>
      </trkpt>
      <trkpt lat="44.64422" lon="-0.21217">
        <ele>93.39</ele>
        <time>2017-01-26T15:09:05Z</time>
      </trkpt>
      <trkpt lat="44.64422" lon="-0.21217">
        <ele>93.39</ele>
        <time>2017-01-26T15:09:22Z</time>
      </trkpt>
      <trkpt lat="44.64427" lon="-0.21213">
        <ele>93.87</ele>
        <time>2017-01-26T15:09:35Z</time>
      </trkpt>
      <trkpt lat="44.64435" lon="-0.2121">
        <ele>96.27</ele>
        <time>2017-01-26T15:09:47Z</time>
      </trkpt>
      <trkpt lat="44.64438" lon="-0.21209">
        <ele>97.23</ele>
        <time>2017-01-26T15:09:59Z</time>
      </trkpt>
      <trkpt lat="44.64443" lon="-0.21209">
        <ele>98.19</ele>
        <time>2017-01-26T15:10:10Z</time>
      </trkpt>
      <trkpt lat="44.64447" lon="-0.21214">
        <ele>98.67</ele>
        <time>2017-01-26T15:10:26Z</time>
      </trkpt>
      <trkpt lat="44.64449" lon="-0.21209">
        <ele>98.67</ele>
        <time>2017-01-26T15:10:39Z</time>
      </trkpt>
      <trkpt lat="44.6445" lon="-0.21208">
        <ele>99.15</ele>
        <time>2017-01-26T15:11:00Z</time>
      </trkpt>
      <trkpt lat="44.64452" lon="-0.21204">
        <ele>100.11</ele>
        <time>2017-01-26T15:11:18Z</time>
      </trkpt>
      <trkpt lat="44.64452" lon="-0.21203">
        <ele>100.11</ele>
        <time>2017-01-26T15:11:19Z</time>
      </trkpt>
      <trkpt lat="44.64453" lon="-0.2119">
        <ele>99.15</ele>
        <time>2017-01-26T15:11:35Z</time>
      </trkpt>
      <trkpt lat="44.64453" lon="-0.21187">
        <ele>98.67</ele>
        <time>2017-01-26T15:11:56Z</time>
      </trkpt>
      <trkpt lat="44.64452" lon="-0.21183">
        <ele>98.67</ele>
        <time>2017-01-26T15:12:05Z</time>
      </trkpt>
      <trkpt lat="44.64452" lon="-0.21178">
        <ele>99.15</ele>
        <time>2017-01-26T15:12:10Z</time>
      </trkpt>
      <trkpt lat="44.64451" lon="-0.21176">
        <ele>97.71</ele>
        <time>2017-01-26T15:12:19Z</time>
      </trkpt>
      <trkpt lat="44.64446" lon="-0.21152">
        <ele>96.75</ele>
        <time>2017-01-26T15:12:36Z</time>
      </trkpt>
      <trkpt lat="44.64444" lon="-0.21134">
        <ele>94.35</ele>
        <time>2017-01-26T15:12:49Z</time>
      </trkpt>
      <trkpt lat="44.64445" lon="-0.21122">
        <ele>93.87</ele>
        <time>2017-01-26T15:13:00Z</time>
      </trkpt>
      <trkpt lat="44.64445" lon="-0.21107">
        <ele>90.5</ele>
        <time>2017-01-26T15:13:12Z</time>
      </trkpt>
      <trkpt lat="44.64444" lon="-0.21105">
        <ele>90.5</ele>
        <time>2017-01-26T15:13:13Z</time>
      </trkpt>
      <trkpt lat="44.64444" lon="-0.21081">
        <ele>88.1</ele>
        <time>2017-01-26T15:13:30Z</time>
      </trkpt>
      <trkpt lat="44.64444" lon="-0.21078">
        <ele>87.14</ele>
        <time>2017-01-26T15:13:32Z</time>
      </trkpt>
      <trkpt lat="44.64444" lon="-0.21062">
        <ele>83.29</ele>
        <time>2017-01-26T15:13:43Z</time>
      </trkpt>
      <trkpt lat="44.64444" lon="-0.21061">
        <ele>87.14</ele>
        <time>2017-01-26T15:13:44Z</time>
      </trkpt>
      <trkpt lat="44.64444" lon="-0.21059">
        <ele>83.77</ele>
        <time>2017-01-26T15:13:45Z</time>
      </trkpt>
      <trkpt lat="44.64444" lon="-0.21057">
        <ele>84.25</ele>
        <time>2017-01-26T15:13:47Z</time>
      </trkpt>
      <trkpt lat="44.64444" lon="-0.21042">
        <ele>82.33</ele>
        <time>2017-01-26T15:13:57Z</time>
      </trkpt>
      <trkpt lat="44.64443" lon="-0.2103">
        <ele>80.89</ele>
        <time>2017-01-26T15:14:05Z</time>
      </trkpt>
      <trkpt lat="44.64443" lon="-0.21013">
        <ele>79.93</ele>
        <time>2017-01-26T15:14:15Z</time>
      </trkpt>
      <trkpt lat="44.64442" lon="-0.21005">
        <ele>79.45</ele>
        <time>2017-01-26T15:14:21Z</time>
      </trkpt>
      <trkpt lat="44.64445" lon="-0.21">
        <ele>78.97</ele>
        <time>2017-01-26T15:14:26Z</time>
      </trkpt>
      <trkpt lat="44.64453" lon="-0.20998">
        <ele>79.93</ele>
        <time>2017-01-26T15:14:41Z</time>
      </trkpt>
      <trkpt lat="44.64471" lon="-0.20991">
        <ele>81.85</ele>
        <time>2017-01-26T15:14:57Z</time>
      </trkpt>
      <trkpt lat="44.64481" lon="-0.20986">
        <ele>83.77</ele>
        <time>2017-01-26T15:15:11Z</time>
      </trkpt>
      <trkpt lat="44.64482" lon="-0.20986">
        <ele>83.77</ele>
        <time>2017-01-26T15:15:24Z</time>
      </trkpt>
      <trkpt lat="44.64486" lon="-0.20989">
        <ele>85.21</ele>
        <time>2017-01-26T15:15:42Z</time>
      </trkpt>
      <trkpt lat="44.64494" lon="-0.21001">
        <ele>86.18</ele>
        <time>2017-01-26T15:15:55Z</time>
      </trkpt>
      <trkpt lat="44.64494" lon="-0.21">
        <ele>86.18</ele>
        <time>2017-01-26T15:16:00Z</time>
      </trkpt>
      <trkpt lat="44.64489" lon="-0.20994">
        <ele>84.25</ele>
        <time>2017-01-26T15:16:06Z</time>
      </trkpt>
      <trkpt lat="44.64488" lon="-0.20986">
        <ele>84.25</ele>
        <time>2017-01-26T15:16:16Z</time>
      </trkpt>
      <trkpt lat="44.64487" lon="-0.20978">
        <ele>83.77</ele>
        <time>2017-01-26T15:16:21Z</time>
      </trkpt>
      <trkpt lat="44.64487" lon="-0.20965">
        <ele>82.33</ele>
        <time>2017-01-26T15:16:30Z</time>
      </trkpt>
      <trkpt lat="44.64481" lon="-0.20932">
        <ele>79.93</ele>
        <time>2017-01-26T15:16:51Z</time>
      </trkpt>
      <trkpt lat="44.64477" lon="-0.2091">
        <ele>77.04</ele>
        <time>2017-01-26T15:17:04Z</time>
      </trkpt>
      <trkpt lat="44.64476" lon="-0.20908">
        <ele>77.04</ele>
        <time>2017-01-26T15:17:05Z</time>
      </trkpt>
      <trkpt lat="44.64484" lon="-0.20881">
        <ele>78</ele>
        <time>2017-01-26T15:17:24Z</time>
      </trkpt>
      <trkpt lat="44.645" lon="-0.20859">
        <ele>78.48</ele>
        <time>2017-01-26T15:17:42Z</time>
      </trkpt>
      <trkpt lat="44.64497" lon="-0.2083">
        <ele>78.97</ele>
        <time>2017-01-26T15:17:59Z</time>
      </trkpt>
      <trkpt lat="44.64495" lon="-0.20814">
        <ele>79.45</ele>
        <time>2017-01-26T15:18:16Z</time>
      </trkpt>
      <trkpt lat="44.64495" lon="-0.20818">
        <ele>79.45</ele>
        <time>2017-01-26T15:18:33Z</time>
      </trkpt>
      <trkpt lat="44.645" lon="-0.20851">
        <ele>78.97</ele>
        <time>2017-01-26T15:18:52Z</time>
      </trkpt>
      <trkpt lat="44.64504" lon="-0.20868">
        <ele>78.97</ele>
        <time>2017-01-26T15:19:04Z</time>
      </trkpt>
      <trkpt lat="44.64506" lon="-0.20865">
        <ele>79.45</ele>
        <time>2017-01-26T15:19:15Z</time>
      </trkpt>
      <trkpt lat="44.64509" lon="-0.20859">
        <ele>80.41</ele>
        <time>2017-01-26T15:19:27Z</time>
      </trkpt>
      <trkpt lat="44.64504" lon="-0.20837">
        <ele>80.41</ele>
        <time>2017-01-26T15:19:44Z</time>
      </trkpt>
      <trkpt lat="44.64505" lon="-0.20818">
        <ele>81.37</ele>
        <time>2017-01-26T15:19:59Z</time>
      </trkpt>
      <trkpt lat="44.64507" lon="-0.20817">
        <ele>81.37</ele>
        <time>2017-01-26T15:20:01Z</time>
      </trkpt>
      <trkpt lat="44.64522" lon="-0.2081">
        <ele>81.37</ele>
        <time>2017-01-26T15:20:15Z</time>
      </trkpt>
      <trkpt lat="44.64534" lon="-0.20801">
        <ele>82.33</ele>
        <time>2017-01-26T15:20:27Z</time>
      </trkpt>
      <trkpt lat="44.64538" lon="-0.20798">
        <ele>82.81</ele>
        <time>2017-01-26T15:20:31Z</time>
      </trkpt>
      <trkpt lat="44.64556" lon="-0.20791">
        <ele>84.25</ele>
        <time>2017-01-26T15:20:48Z</time>
      </trkpt>
      <trkpt lat="44.64573" lon="-0.20781">
        <ele>85.69</ele>
        <time>2017-01-26T15:21:05Z</time>
      </trkpt>
      <trkpt lat="44.64583" lon="-0.20775">
        <ele>88.1</ele>
        <time>2017-01-26T15:21:18Z</time>
      </trkpt>
      <trkpt lat="44.64591" lon="-0.20771">
        <ele>88.58</ele>
        <time>2017-01-26T15:21:32Z</time>
      </trkpt>
      <trkpt lat="44.64599" lon="-0.20766">
        <ele>90.5</ele>
        <time>2017-01-26T15:21:46Z</time>
      </trkpt>
      <trkpt lat="44.64602" lon="-0.20765">
        <ele>90.98</ele>
        <time>2017-01-26T15:22:03Z</time>
      </trkpt>
      <trkpt lat="44.64603" lon="-0.20773">
        <ele>91.46</ele>
        <time>2017-01-26T15:22:16Z</time>
      </trkpt>
      <trkpt lat="44.64604" lon="-0.20775">
        <ele>91.46</ele>
        <time>2017-01-26T15:22:17Z</time>
      </trkpt>
      <trkpt lat="44.64606" lon="-0.2078">
        <ele>91.94</ele>
        <time>2017-01-26T15:22:21Z</time>
      </trkpt>
      <trkpt lat="44.64607" lon="-0.20792">
        <ele>91.94</ele>
        <time>2017-01-26T15:22:30Z</time>
      </trkpt>
      <trkpt lat="44.64607" lon="-0.20808">
        <ele>91.94</ele>
        <time>2017-01-26T15:22:44Z</time>
      </trkpt>
      <trkpt lat="44.64613" lon="-0.20818">
        <ele>92.42</ele>
        <time>2017-01-26T15:23:00Z</time>
      </trkpt>
      <trkpt lat="44.64615" lon="-0.20829">
        <ele>93.87</ele>
        <time>2017-01-26T15:23:17Z</time>
      </trkpt>
      <trkpt lat="44.64616" lon="-0.20832">
        <ele>93.39</ele>
        <time>2017-01-26T15:23:35Z</time>
      </trkpt>
      <trkpt lat="44.64618" lon="-0.20836">
        <ele>94.35</ele>
        <time>2017-01-26T15:23:39Z</time>
      </trkpt>
      <trkpt lat="44.64624" lon="-0.20846">
        <ele>94.83</ele>
        <time>2017-01-26T15:23:52Z</time>
      </trkpt>
      <trkpt lat="44.64624" lon="-0.20847">
        <ele>94.83</ele>
        <time>2017-01-26T15:24:07Z</time>
      </trkpt>
      <trkpt lat="44.64622" lon="-0.20842">
        <ele>93.87</ele>
        <time>2017-01-26T15:24:19Z</time>
      </trkpt>
      <trkpt lat="44.64622" lon="-0.20841">
        <ele>93.87</ele>
        <time>2017-01-26T15:24:22Z</time>
      </trkpt>
      <trkpt lat="44.64616" lon="-0.20824">
        <ele>92.9</ele>
        <time>2017-01-26T15:24:35Z</time>
      </trkpt>
      <trkpt lat="44.64608" lon="-0.20817">
        <ele>90.98</ele>
        <time>2017-01-26T15:24:49Z</time>
      </trkpt>
      <trkpt lat="44.64607" lon="-0.2082">
        <ele>90.5</ele>
        <time>2017-01-26T15:24:52Z</time>
      </trkpt>
      <trkpt lat="44.64609" lon="-0.20832">
        <ele>90.5</ele>
        <time>2017-01-26T15:25:05Z</time>
      </trkpt>
      <trkpt lat="44.64609" lon="-0.20833">
        <ele>90.5</ele>
        <time>2017-01-26T15:25:06Z</time>
      </trkpt>
      <trkpt lat="44.64612" lon="-0.20837">
        <ele>90.98</ele>
        <time>2017-01-26T15:25:11Z</time>
      </trkpt>
      <trkpt lat="44.64615" lon="-0.20843">
        <ele>91.46</ele>
        <time>2017-01-26T15:25:16Z</time>
      </trkpt>
      <trkpt lat="44.64617" lon="-0.20845">
        <ele>91.94</ele>
        <time>2017-01-26T15:25:19Z</time>
      </trkpt>
      <trkpt lat="44.6462" lon="-0.2085">
        <ele>92.42</ele>
        <time>2017-01-26T15:25:33Z</time>
      </trkpt>
      <trkpt lat="44.64623" lon="-0.20861">
        <ele>93.39</ele>
        <time>2017-01-26T15:25:49Z</time>
      </trkpt>
      <trkpt lat="44.64629" lon="-0.20876">
        <ele>94.35</ele>
        <time>2017-01-26T15:26:03Z</time>
      </trkpt>
      <trkpt lat="44.64629" lon="-0.2088">
        <ele>94.83</ele>
        <time>2017-01-26T15:26:20Z</time>
      </trkpt>
      <trkpt lat="44.64632" lon="-0.20884">
        <ele>95.79</ele>
        <time>2017-01-26T15:26:44Z</time>
      </trkpt>
      <trkpt lat="44.64634" lon="-0.20887">
        <ele>95.79</ele>
        <time>2017-01-26T15:26:47Z</time>
      </trkpt>
      <trkpt lat="44.64637" lon="-0.20898">
        <ele>98.67</ele>
        <time>2017-01-26T15:26:56Z</time>
      </trkpt>
      <trkpt lat="44.64637" lon="-0.20899">
        <ele>93.39</ele>
        <time>2017-01-26T15:26:57Z</time>
      </trkpt>
      <trkpt lat="44.64637" lon="-0.209">
        <ele>98.67</ele>
        <time>2017-01-26T15:26:58Z</time>
      </trkpt>
      <trkpt lat="44.6464" lon="-0.20917">
        <ele>97.71</ele>
        <time>2017-01-26T15:27:13Z</time>
      </trkpt>
      <trkpt lat="44.64638" lon="-0.2093">
        <ele>98.67</ele>
        <time>2017-01-26T15:27:28Z</time>
      </trkpt>
      <trkpt lat="44.64638" lon="-0.20931">
        <ele>98.67</ele>
        <time>2017-01-26T15:27:29Z</time>
      </trkpt>
      <trkpt lat="44.64635" lon="-0.20951">
        <ele>99.15</ele>
        <time>2017-01-26T15:27:49Z</time>
      </trkpt>
      <trkpt lat="44.64636" lon="-0.20951">
        <ele>99.15</ele>
        <time>2017-01-26T15:28:04Z</time>
      </trkpt>
      <trkpt lat="44.64635" lon="-0.20957">
        <ele>99.15</ele>
        <time>2017-01-26T15:28:16Z</time>
      </trkpt>
      <trkpt lat="44.64635" lon="-0.20985">
        <ele>100.11</ele>
        <time>2017-01-26T15:28:33Z</time>
      </trkpt>
      <trkpt lat="44.64638" lon="-0.21002">
        <ele>101.08</ele>
        <time>2017-01-26T15:28:45Z</time>
      </trkpt>
      <trkpt lat="44.6464" lon="-0.21019">
        <ele>101.56</ele>
        <time>2017-01-26T15:28:57Z</time>
      </trkpt>
      <trkpt lat="44.64644" lon="-0.21035">
        <ele>102.04</ele>
        <time>2017-01-26T15:29:12Z</time>
      </trkpt>
      <trkpt lat="44.64645" lon="-0.21035">
        <ele>102.04</ele>
        <time>2017-01-26T15:29:29Z</time>
      </trkpt>
      <trkpt lat="44.64656" lon="-0.21029">
        <ele>103.48</ele>
        <time>2017-01-26T15:29:45Z</time>
      </trkpt>
      <trkpt lat="44.6466" lon="-0.21028">
        <ele>100.11</ele>
        <time>2017-01-26T15:29:50Z</time>
      </trkpt>
      <trkpt lat="44.6466" lon="-0.21027">
        <ele>108.29</ele>
        <time>2017-01-26T15:29:51Z</time>
      </trkpt>
      <trkpt lat="44.6466" lon="-0.21027">
        <ele>104.92</ele>
        <time>2017-01-26T15:29:52Z</time>
      </trkpt>
      <trkpt lat="44.64668" lon="-0.21022">
        <ele>105.4</ele>
        <time>2017-01-26T15:30:06Z</time>
      </trkpt>
      <trkpt lat="44.6467" lon="-0.21022">
        <ele>105.4</ele>
        <time>2017-01-26T15:30:10Z</time>
      </trkpt>
      <trkpt lat="44.64681" lon="-0.21015">
        <ele>107.32</ele>
        <time>2017-01-26T15:30:24Z</time>
      </trkpt>
      <trkpt lat="44.64684" lon="-0.21014">
        <ele>106.84</ele>
        <time>2017-01-26T15:30:27Z</time>
      </trkpt>
      <trkpt lat="44.64688" lon="-0.21011">
        <ele>106.84</ele>
        <time>2017-01-26T15:30:32Z</time>
      </trkpt>
      <trkpt lat="44.64691" lon="-0.2101">
        <ele>107.32</ele>
        <time>2017-01-26T15:30:35Z</time>
      </trkpt>
      <trkpt lat="44.64698" lon="-0.21007">
        <ele>108.77</ele>
        <time>2017-01-26T15:30:42Z</time>
      </trkpt>
      <trkpt lat="44.64707" lon="-0.21002">
        <ele>108.77</ele>
        <time>2017-01-26T15:30:55Z</time>
      </trkpt>
      <trkpt lat="44.64708" lon="-0.21002">
        <ele>108.77</ele>
        <time>2017-01-26T15:30:56Z</time>
      </trkpt>
      <trkpt lat="44.64713" lon="-0.21">
        <ele>109.25</ele>
        <time>2017-01-26T15:31:02Z</time>
      </trkpt>
      <trkpt lat="44.6473" lon="-0.20992">
        <ele>111.17</ele>
        <time>2017-01-26T15:31:19Z</time>
      </trkpt>
      <trkpt lat="44.64748" lon="-0.20983">
        <ele>112.13</ele>
        <time>2017-01-26T15:31:37Z</time>
      </trkpt>
      <trkpt lat="44.64757" lon="-0.2098">
        <ele>113.57</ele>
        <time>2017-01-26T15:31:52Z</time>
      </trkpt>
      <trkpt lat="44.64758" lon="-0.20979">
        <ele>113.57</ele>
        <time>2017-01-26T15:31:53Z</time>
      </trkpt>
      <trkpt lat="44.64776" lon="-0.20973">
        <ele>114.53</ele>
        <time>2017-01-26T15:32:10Z</time>
      </trkpt>
      <trkpt lat="44.6478" lon="-0.2097">
        <ele>114.53</ele>
        <time>2017-01-26T15:32:15Z</time>
      </trkpt>
      <trkpt lat="44.64797" lon="-0.20965">
        <ele>114.53</ele>
        <time>2017-01-26T15:32:32Z</time>
      </trkpt>
      <trkpt lat="44.64812" lon="-0.2096">
        <ele>114.53</ele>
        <time>2017-01-26T15:32:48Z</time>
      </trkpt>
      <trkpt lat="44.64818" lon="-0.20962">
        <ele>114.53</ele>
        <time>2017-01-26T15:33:00Z</time>
      </trkpt>
      <trkpt lat="44.64822" lon="-0.20966">
        <ele>114.53</ele>
        <time>2017-01-26T15:33:04Z</time>
      </trkpt>
      <trkpt lat="44.64825" lon="-0.20974">
        <ele>114.53</ele>
        <time>2017-01-26T15:33:10Z</time>
      </trkpt>
      <trkpt lat="44.64835" lon="-0.20993">
        <ele>113.57</ele>
        <time>2017-01-26T15:33:29Z</time>
      </trkpt>
      <trkpt lat="44.64839" lon="-0.20999">
        <ele>112.13</ele>
        <time>2017-01-26T15:33:36Z</time>
      </trkpt>
      <trkpt lat="44.64843" lon="-0.21004">
        <ele>112.13</ele>
        <time>2017-01-26T15:33:49Z</time>
      </trkpt>
      <trkpt lat="44.64843" lon="-0.21003">
        <ele>112.13</ele>
        <time>2017-01-26T15:34:08Z</time>
      </trkpt>
      <trkpt lat="44.64844" lon="-0.21002">
        <ele>111.65</ele>
        <time>2017-01-26T15:34:37Z</time>
      </trkpt>
      <trkpt lat="44.64843" lon="-0.21002">
        <ele>112.13</ele>
        <time>2017-01-26T15:34:54Z</time>
      </trkpt>
      <trkpt lat="44.64842" lon="-0.21002">
        <ele>112.13</ele>
        <time>2017-01-26T15:35:16Z</time>
      </trkpt>
      <trkpt lat="44.64842" lon="-0.21002">
        <ele>111.65</ele>
        <time>2017-01-26T15:35:48Z</time>
      </trkpt>
    </trkseg>
  </trk>
</gpx>